[[{"header":{"parameterUnit":"m.s-1","parameterCategory":1,"la1":30.6,"la2":29.2853,"lo1":-89.7004,"lo2":-87.6739,"dy":0.0162,"dx":0.0183,"nx":112,"ny":82,"refTime":"2023-03-06T06:00:00:Z","depth":0,"parameterNumber":2,"parameterNumberName":"U-component_of_WINDS"},"data":[0.0,0.0,0.0,0.0,0.0,0.0,0.0,0.0,0.0,0.0,0.0,0.0,0.0,0.0,0.0,0.0,0.0,0.0,0.0,0.0,0.0,0.0,0.0,0.0,0.0,0.0,0.0,0.0,0.0,0.0,0.0,0.0,0.0,0.0,0.0,0.0,0.0,0.0,0.0,0.0,0.0,0.0,0.0,0.0,0.0,0.0,0.0,0.0,0.0,0.0,0.0,0.0,0.0,0.0,0.0,0.0,0.0,0.0,0.0,0.0,0.0,0.0,0.0,0.0,0.0,0.0,0.0,0.0,0.0,0.0,0.0,0.0,0.0,0.0,0.0,0.0,0.0,0.0,0.0,0.0,0.0,0.0,0.0,0.0,0.0,0.0,0.0,0.0,0.0,0.0,0.4132,0.1927,-0.0269,-0.1797,-0.235,-0.2483,-0.244,-0.2211,0.0,0.0,0.0,0.0,0.0,0.0,0.0,0.0,0.0,0.0,0.0,0.0,0.0,0.0,0.0,0.0,0.0,0.0,0.0,0.0,0.0,0.0,0.0,0.0,0.0,0.0,0.0,0.0,0.0,0.0,0.0,0.0,0.0,0.0,0.0,0.0,0.0,0.0,0.0,0.0,0.0,0.0,0.0,0.0,0.0,0.0,0.0,0.0,0.0,0.0,0.0,0.0,0.0,0.0,0.0,0.0,0.0,0.0,0.0,0.0,0.0,0.0,0.0,0.0,0.0,0.0,0.0,0.0,0.0,0.0,0.0,0.0,0.0,0.0,0.0,0.0,0.0,0.0,0.0,0.0,0.0,0.0,0.0,0.0,0.0,0.0,0.0,0.0,0.0,0.0,0.0,0.0,0.0,0.0,0.0,0.0,0.0,0.0,0.0,0.0,0.0,0.0,0.0,0.0,0.3202,-0.1049,-0.1754,-0.2052,-0.2369,-0.2311,-0.2245,-0.2201,0.0,0.0,0.0,0.0,0.0,0.0,0.0,0.0,0.0,0.0,0.0,0.0,0.0,0.0,0.0,0.0,0.0,0.0,0.0,0.0,0.0,0.0,0.0,0.0,0.0,0.0,0.0,0.0,0.0,0.0,0.0,0.0,0.0,0.0,0.0,0.0,0.0,0.0,0.0,0.0,0.0,0.0,0.0,0.0,0.0,0.0,0.0,0.0,0.0,0.0,0.0,0.0,0.0,0.0,0.0,0.0,0.0,0.0,0.0,0.0,0.0,0.0,0.0,0.0,0.0,0.0,0.0,0.0,0.0,0.0,0.0,0.0,0.0,0.0,0.0,0.0,0.0,0.0,0.0,0.0,0.0,0.0,0.0,0.0,0.0,0.0,0.0,0.0,0.0,0.0,0.0,0.0,0.0,0.0,0.0,0.0,0.0,0.0,0.0,0.0,0.0,0.0,0.0,0.2467,0.0019,-0.1986,-0.2144,-0.2279,-0.2689,-0.2606,-0.2509,-0.2477,-0.2364,0.0,0.0,0.0,0.0,0.0,0.0,0.0,0.0,0.0,0.0,0.0,0.0,0.0,0.0,0.0,0.0,0.0,0.0,0.0,0.0,0.0,0.0,0.0,0.0,0.0,0.0,0.0,0.0,0.0,0.0,0.0,0.0,0.0,0.0,0.0,0.0,0.0,0.0,0.0,0.0,0.0,0.0,0.0,0.0,0.0,0.0,0.0,0.0,0.0,0.0,0.0,0.0,0.0,0.0,0.0,0.0,0.0,0.0,0.0,0.0,0.0,0.0,0.0,0.0,0.0,0.0,0.0,0.0,0.0,0.0,0.0,0.0,0.0,0.0,0.0,0.0,0.0,0.0,0.0,0.0,0.0,0.0,0.0,0.0,0.0,0.0,0.0,0.0,0.0,0.0,0.0,0.0,0.0,0.0,0.0,0.0,0.0,0.0,0.0,0.0,0.0,0.0,-0.0871,-0.2571,-0.2322,-0.2289,-0.2458,-0.2876,-0.278,-0.267,-0.2589,-0.2308,0.0,0.0,0.0,0.0,0.0,0.0,0.0,0.0,0.0,0.0,0.0,0.0,0.0,0.0,0.0,0.0,0.0,0.0,0.0,0.0,0.0,0.0,0.0,0.0,0.0,0.0,0.0,0.0,0.0,0.0,0.0,0.0,0.0,0.0,0.0,0.0,0.0,0.0,0.0,0.0,0.0,0.0,0.0,0.0,0.0,0.0,0.0,0.0,0.0,0.0,0.0,0.0,0.0,0.0,0.0,0.0,0.0,0.0,0.0,0.0,0.0,0.0,0.0,0.0,0.0,0.0,0.0,0.0,0.0,0.0,0.0,0.0,0.0,0.0,0.0,0.0,0.0,0.0,0.0,0.0,0.0,0.0,0.0,0.0,0.0,0.0,0.0,0.0,0.0,0.0,0.0,0.0,0.0,0.0,0.0,0.0,0.0,0.0,0.0,0.0,0.0,0.0,-0.0793,-0.2807,-0.2598,-0.2568,-0.2587,-0.2622,-0.2501,-0.237,-0.224,-0.17,0.0,0.0,0.0,0.0,0.0,0.0,0.0,0.0,0.0,0.0,0.0,0.0,0.0,0.0,0.0,0.0,0.0,0.0,0.0,0.0,0.0,0.0,0.0,0.0,0.0,0.0,0.0,0.0,0.0,0.0,0.0,0.0,0.0,0.0,0.0,0.0,0.0,0.0,0.0,0.0,0.0,0.0,0.0,0.0,0.0,0.0,0.0,0.0,0.0,0.0,0.0,0.0,0.0,0.0,0.0,0.0,0.0,0.0,0.0,0.0,0.0,0.0,0.0,0.0,0.0,0.0,0.0,0.0,0.0,0.0,0.0,0.0,0.0,0.0,0.0,0.0,0.0,0.0,0.0,0.0,0.0,0.0,0.0,0.0,0.0,0.0,0.0,0.0,0.0,0.0,0.0,0.0,0.0,0.0,0.0,0.0,0.0,0.0,0.0,0.0,0.0,0.0,-0.1057,-0.2625,0.0,-0.3027,-0.3137,-0.3219,-0.3214,-0.3081,-0.2781,0.0,0.0,0.0,0.0,0.0,0.0,0.0,0.0,0.0,0.0,0.0,0.0,0.0,0.0,0.0,0.0,0.0,0.0,0.0,0.0,0.0,0.0,0.0,0.0,0.0,0.0,0.0,0.0,0.0,0.0,0.0,0.0,0.0,0.0,0.0,0.0,0.0,0.0,0.0,0.0,0.0,0.0,0.0,0.0,0.0,0.0,0.0,0.0,0.0,0.0,0.0,0.0,0.0,0.0,0.0,0.0,0.0,0.0,0.0,0.0,0.0,0.0,0.0,0.0,0.0,0.0,0.0,0.0,0.0,0.0,0.0,0.0,0.0,0.0,0.0,0.0,0.0,0.0,0.0,0.0,0.0,0.0,0.0,0.0,0.0,0.0,0.0,0.0,0.0,0.0,0.0,0.0,0.0,0.0,0.0,0.0,0.0,0.0,0.0,0.0,0.0,0.0,0.0441,-0.1148,-0.2378,0.0,-0.3346,-0.3504,-0.3597,-0.3656,-0.3528,-0.3126,0.0,0.0,0.0,0.0,0.0,0.0,0.0,0.0,0.0,0.0,0.0,0.0,0.0,0.0,0.0,0.0,0.0,0.0,0.0,0.0,0.0,0.0,0.0,0.0,0.0,0.0,0.0,0.0,0.0,0.0,0.0,0.0,0.0,0.0,0.0,0.0,0.0,0.0,0.0,0.0,0.0,0.0,0.0,0.0,0.0,0.0,0.0,0.0,0.0,0.0,0.0,0.0,0.0,0.0,0.0,0.0,0.0,0.0,0.0,0.0,0.0,0.0,0.0,0.0,0.0,0.0,0.0,0.0,0.0,0.0,0.0,0.0,0.0,0.0,0.0,0.0,0.0,0.0,0.0,0.0,0.0,0.0,0.0,0.0,0.0,0.0,0.0,0.0,0.0,0.0,0.0,0.0,0.0,0.0,0.0,0.0,0.0,0.0,0.0,0.0,0.0,0.0,0.0138,-0.1001,-0.211,-0.3205,-0.3493,-0.3608,-0.3621,-0.3676,-0.3536,0.0,0.0,0.0,0.0,0.0,0.0,0.0,0.0,0.0,0.0,0.0,0.0,0.0,0.0,0.0,0.0,0.0,0.0,0.0,0.0,0.0,0.0,0.0,0.0,0.0,0.0,0.0,0.0,0.0,0.0,0.0,0.0,0.0,0.0,0.0,0.0,0.0,0.0,0.0,0.0,0.0,0.0,0.0,0.0,0.0,0.0,0.0,0.0,0.0,0.0,0.0,0.0,0.0,0.0,0.0,0.0,0.0,0.0,0.0,0.0,0.0,0.0,0.0,0.0,0.0,0.0,0.0,0.0,0.0,0.0,0.0,0.0,0.0,0.0,0.0,0.0,0.0,0.0,0.0,0.0,0.0,0.0,0.0,0.0,0.0,0.0,0.0,0.0,0.0,0.0,0.0,0.0,0.0,0.0,0.0,0.0,0.0,0.0,0.0,0.0,0.0,0.0,0.0,-0.049,-0.1256,-0.2413,-0.4291,-0.4214,-0.4194,-0.462,-0.4463,-0.4224,-0.397,0.0,0.0,0.0,0.0,0.0,0.0,0.0,0.0,0.0,0.0,0.0,0.0,0.0,0.0,0.0,0.0,0.0,0.0,0.0,0.0,0.0,0.0,0.0,0.0,0.0,0.0,0.0,0.0,0.0,0.0,0.0,0.0,0.0,0.0,0.0,0.0,0.0,0.0,0.0,0.0,0.0,0.0,0.0,0.0,0.0,0.0,0.0,0.0,0.0,0.0,0.0,0.0,0.0,0.0,0.0,0.0,0.0,0.0,0.0,0.0,0.0,0.0,0.0,0.0,0.0,0.0,0.0,0.0,0.0,0.0,0.0,0.0,0.0,0.0,0.0,0.0,0.0,0.0,0.0,0.0,0.0,0.0,0.0,0.0,0.0,0.0,0.0,0.0,0.0,0.0,0.0,0.0,0.0,0.0,0.0,0.0,0.0,0.0,0.0,0.0,0.0,0.0,-0.1926,-0.2362,-0.3297,-0.5162,-0.5027,-0.4877,-0.5091,-0.492,-0.4622,-0.4207,0.0,0.0,0.0,0.0,0.0,0.0,0.0,0.0,0.0,0.0,0.0,0.0,0.0,0.0,0.0,0.0,0.0,0.0,0.0,0.0,0.0,0.0,0.0,0.0,0.0,0.0,0.0,0.0,0.0,0.0,0.0,0.0,0.0,0.0,0.0,0.0,0.0,0.0,0.0,0.0,0.0,0.0,0.0,0.0,0.0,0.0,0.0,0.0,0.0,0.0,0.0,0.0,0.0,0.0,0.0,0.0,0.0,0.0,0.0,0.0,0.0,0.0,0.0,0.0,0.0,0.0,0.0,0.0,0.0,0.0,0.0,0.0,0.0,0.0,0.0,0.0,0.0,0.0,0.0,0.0,0.0,0.0,0.0,0.0,0.0,0.0,0.0,0.0,0.0,0.0,0.0,0.0,0.0,0.0,0.0,0.0,0.0,0.0,0.0,0.0,0.0,0.0,-0.3753,-0.41,-0.4713,-0.5881,-0.5818,-0.5556,-0.5201,-0.5132,-0.4824,-0.415,0.0,0.0,0.0,0.0,0.0,0.0,0.0,0.0,0.0,0.0,0.0,0.0,0.0,0.0,0.0,0.0,0.0,0.0,0.0,0.0,0.0,0.0,0.0,0.0,0.0,0.0,0.0,0.0,0.0,0.0,0.0,0.0,0.0,0.0,0.0,0.0,0.0,0.0,0.0,0.0,0.0,0.0,0.0,0.0,0.0,0.0,0.0,0.0,0.0,0.0,0.0,0.0,0.0,0.0,0.0,0.0,0.0,0.0,0.0,0.0,-0.5301,0.0,0.0,0.0,0.0,0.0,0.0,0.0,0.0,0.0,0.0,0.0,0.0,0.0,0.0,0.0,0.0,0.0,0.0,0.0,0.0,0.0,0.0,0.0,0.0,0.0,0.0,0.0,0.0,0.0,0.0,0.0,0.0,0.0,0.0,0.0,0.0,0.0,0.0,0.0,0.0,0.0,-0.416,-0.5863,-0.698,-0.6786,-0.6132,-0.5702,-0.5726,-0.5334,-0.5053,-0.495,-0.3426,0.0,0.0,0.0,0.0,0.0,0.0,0.0,0.0,0.0,0.0,0.0,0.0,0.0,0.0,0.0,0.0,0.0,0.0,0.0,0.0,0.0,0.0,0.0,0.0,0.0,0.0,0.0,0.0,0.0,0.0,0.0,0.0,0.0,0.0,0.0,0.0,0.0,0.0,0.0,0.0,0.0,0.0,0.0,0.0,0.0,0.0,0.0,0.0,0.0,0.0,0.0,0.0,0.0,0.0,0.0,0.0,0.0,0.0,0.0,0.0,-0.6201,0.0,0.0,0.0,0.0,0.0,0.0,0.0,0.0,0.0,0.0,0.0,0.0,0.0,0.0,0.0,0.0,0.0,0.0,0.0,0.0,0.0,0.0,0.0,0.0,0.0,0.0,0.0,0.0,0.0,0.0,0.0,0.0,0.0,0.0,0.0,0.0,0.0,0.0,0.0,0.0,-0.597,-0.7102,-0.7739,-0.7329,-0.6759,-0.6371,-0.6251,-0.5778,-0.5381,-0.5169,-0.3943,0.0,0.0,0.0,0.0,0.0,0.0,0.0,0.0,0.0,0.0,0.0,0.0,0.0,0.0,0.0,0.0,0.0,0.0,0.0,0.0,0.0,0.0,0.0,0.0,0.0,0.0,0.0,0.0,0.0,0.0,0.0,0.0,0.0,0.0,0.0,0.0,0.0,0.0,0.0,0.0,0.0,0.0,0.0,0.0,0.0,0.0,0.0,0.0,0.0,0.0,0.0,0.0,0.0,-0.6225,-0.6483,-0.6699,-0.6744,-0.6826,-0.6938,-0.7055,-0.6903,-0.6629,0.0,0.0,0.0,0.0,0.0,0.0,0.0,0.0,0.0,0.0,0.0,0.0,0.0,0.0,0.0,0.0,0.0,0.0,0.0,0.0,0.0,0.0,0.0,0.0,0.0,-0.8044,-0.8418,0.0,0.0,0.0,0.0,0.0,0.0,0.0,0.0,0.0,0.0,0.0,0.0,-0.7908,-0.7976,-0.7927,-0.7657,-0.744,-0.7108,-0.6642,-0.6248,-0.5769,-0.5204,-0.4499,-0.3762,0.0,0.0,0.0,0.0,0.0,0.0,0.0,0.0,0.0,0.0,0.0,0.0,0.0,0.0,0.0,0.0,0.0,0.0,0.0,0.0,0.0,0.0,0.0,0.0,0.0,0.0,0.0,0.0,0.0,0.0,0.0,0.0,-0.5037,-0.6527,0.0,0.0,0.0,0.0,0.0,0.0,0.0,0.0,0.0,0.0,0.0,0.0,0.0,-0.6483,-0.6446,-0.6422,-0.6468,-0.6573,-0.6338,-0.6243,-0.6292,-0.6517,-0.6644,-0.6648,-0.6671,0.0,-0.6931,-0.7011,0.0,0.0,0.0,0.0,0.0,0.0,0.0,0.0,0.0,0.0,0.0,0.0,0.0,0.0,0.0,0.0,0.0,0.0,0.0,0.0,0.0,0.0,-0.8281,-0.8672,-0.8768,-0.8928,0.0,-0.9408,-0.9416,-1.0317,-1.0199,0.0,0.0,0.0,0.0,0.0,0.0,0.0,-0.8331,-0.8431,-0.8319,-0.7818,-0.7746,-0.7426,-0.6668,-0.654,-0.6201,-0.5492,-0.5127,-0.4786,-0.4441,-0.3777,0.0,0.0,0.0,0.0,0.0,0.0,0.0,0.0,0.0,0.0,0.0,0.0,0.0,0.0,0.0,0.0,0.0,0.0,0.0,0.0,0.0,0.0,0.0,0.0,0.0,0.0,0.0,0.0,0.0,-0.5899,-0.6492,-0.7965,-0.7266,-0.685,0.0,0.0,0.0,0.0,0.0,0.0,0.0,0.0,0.0,-0.6486,-0.6728,-0.6724,-0.6425,-0.6257,-0.6197,-0.6245,-0.6103,-0.6085,-0.6198,-0.6327,-0.6453,-0.6611,-0.6915,-0.7114,-0.7227,-0.7227,-0.7545,-0.8038,0.0,0.0,0.0,0.0,-0.7787,-0.7878,-0.7548,-0.7723,0.0,0.0,0.0,0.0,0.0,0.0,0.0,0.0,0.0,0.0,0.0,0.0,0.0,-0.9682,-0.9804,-1.0086,-1.1304,-1.1462,-1.1406,0.0,-1.1465,-1.1412,-1.1442,0.0,0.0,0.0,0.0,-0.8852,-0.8657,-0.867,-0.8526,-0.802,-0.7868,-0.7628,-0.7191,-0.6818,-0.6463,-0.6141,-0.5478,-0.504,-0.4932,-0.4228,-0.3038,0.0,0.0,0.0,0.0,0.0,0.0,0.0,0.0,0.0,0.0,0.0,0.0,0.0,0.0,0.0,0.0,0.0,0.0,0.0,0.0,0.0,0.0,0.0,0.0,0.0,0.0,0.0,0.0,-0.6515,-0.7749,-0.877,-0.7639,-0.7104,0.0,0.0,0.0,0.0,0.0,0.0,-0.6662,-0.728,-0.737,-0.6841,-0.6924,-0.6728,-0.621,-0.6052,-0.5954,-0.5902,-0.5954,-0.6061,-0.621,-0.6415,-0.6614,-0.6828,-0.7391,-0.7628,-0.7628,-0.7628,-0.7726,-0.7853,-0.7857,-0.8033,-0.8298,-0.8212,-0.8151,-0.813,-0.8341,-0.8683,-0.9132,-0.9936,0.0,-1.0645,-1.0511,0.0,0.0,0.0,0.0,-0.994,-0.9778,-0.9847,-1.0127,-1.0757,-1.0906,-1.1223,-1.2371,-1.2746,-1.2772,0.0,-1.2525,-1.2504,-1.2356,0.0,0.0,0.0,0.0,-0.9678,-0.9236,-0.935,-0.922,-0.8602,-0.8515,-0.8341,-0.7967,-0.7411,-0.7036,-0.6933,-0.602,-0.5591,-0.5834,-0.4611,-0.3184,-0.1611,0.0,0.0,0.0,0.0,0.0,0.0,0.0,0.0,0.0,0.0,0.0,0.0,0.0,0.0,0.0,0.0,0.0,0.0,0.0,0.0,0.0,0.0,0.0,0.0,0.0,0.0,0.0,0.0,0.0,-0.7483,-0.6582,0.0,0.0,0.0,0.0,-0.6169,-0.6495,-0.6733,-0.6886,-0.7227,-0.7175,-0.6635,-0.6619,-0.649,-0.6198,-0.6189,-0.6085,-0.5911,-0.6094,-0.6189,-0.623,-0.6994,-0.7346,-0.7393,-0.7989,-0.825,-0.825,-0.825,-0.825,-0.8263,-0.8277,-0.8277,-0.8331,-0.8576,-0.8433,-0.8139,-0.8393,-0.8354,-0.8388,-0.9748,-1.0511,-1.1064,-1.1981,-1.1877,0.0,0.0,-1.2097,-1.2483,-1.1893,-1.176,-1.181,-1.1983,-1.2025,-1.2044,-1.2112,-1.2588,-1.3154,0.0,-1.3807,-1.3563,-1.2807,0.0,-1.2463,-1.1647,-1.1552,-1.1251,-1.0331,-1.0842,-1.0878,-0.9825,-1.0105,-0.9947,-0.8926,-0.8566,-0.8242,-0.7861,-0.701,-0.6917,-0.7827,-0.5002,-0.4207,-0.5847,-0.4321,0.0,0.0,0.0,0.0,0.0,0.0,0.0,0.0,0.0,0.0,0.0,0.0,0.0,0.0,0.0,0.0,0.0,0.0,0.0,0.0,0.0,0.0,0.0,0.0,0.0,0.0,0.0,0.0,-0.7565,-0.7155,0.0,-0.7889,-0.7183,-0.6968,-0.763,-0.7226,-0.7212,-0.7775,-0.7914,-0.7713,-0.7141,-0.7116,-0.6904,-0.6465,-0.6453,-0.6418,-0.6351,-0.6773,-0.6969,-0.7003,-0.7855,-0.8134,-0.8033,-0.8973,-0.9302,-0.9178,-0.9737,-0.9411,-0.8589,-0.8792,-0.8884,-0.8914,-0.9139,-0.9236,-0.9289,-0.9512,-1.0049,-1.0819,-1.2005,-1.2175,-1.2126,-1.3223,-1.2735,-1.1924,-1.2552,-1.2557,-1.2292,-1.2081,-1.2023,-1.2161,-1.2737,-1.2876,-1.3018,-1.3521,-1.3812,-1.4028,-1.4241,-1.3761,-1.3435,-1.3805,-1.3442,-1.3024,-1.2733,-1.2713,-1.2334,-1.1276,-1.1376,-1.1269,-1.0577,-1.0659,-1.0547,-1.0034,-0.9638,-0.9342,-0.9189,-0.8489,-0.8005,-0.781,-0.667,-0.5859,-0.5502,-0.3467,-0.2377,0.0,0.0,0.0,0.0,0.0,0.0,0.0,0.0,0.0,0.0,0.0,0.0,0.0,0.0,0.0,0.0,0.0,0.0,0.0,0.0,0.0,0.0,0.0,0.0,0.0,0.0,-0.6898,-0.8217,-0.7756,-0.768,-0.8585,-0.7958,-0.7726,-0.8252,-0.7712,-0.7644,-0.8275,-0.8298,-0.8112,-0.7716,-0.7703,-0.7538,-0.7184,-0.7172,-0.7228,-0.7317,-0.7669,-0.7894,-0.8024,-0.8795,-0.9044,-0.8926,-0.9881,-1.0196,-1.0093,-1.0766,-1.0509,-0.9706,-0.9531,-0.9415,-0.938,-0.9821,-0.9992,-1.0086,-1.0423,-1.1211,-1.2248,-1.3133,-1.3088,-1.2878,-1.3966,-1.3393,-1.2563,-1.3455,-1.3513,-1.3306,-1.3306,-1.3306,-1.3513,-1.4321,-1.4101,-1.4009,-1.508,-1.5099,-1.4989,-1.5264,-1.432,-1.3628,-1.4023,-1.3881,-1.3697,-1.3697,-1.3697,-1.3419,-1.2604,-1.2423,-1.215,-1.1509,-1.1548,-1.1465,-1.1091,-1.0615,-1.0344,-1.0344,-0.9571,-0.9045,-0.8914,-0.8199,-0.7111,-0.5642,-0.4009,-0.3403,-0.3839,0.0,0.0,0.0,0.0,0.0,0.0,0.0,0.0,0.0,0.0,0.0,0.0,0.0,0.0,0.0,0.0,0.0,0.0,0.0,0.0,0.0,0.0,0.0,-0.7673,-0.7455,-0.7763,-0.9277,-0.8276,-0.7811,-0.8738,-0.8285,-0.7958,-0.7983,-0.7947,-0.8058,-0.8338,-0.8349,-0.8349,-0.8324,-0.8324,-0.8324,-0.8298,-0.8309,-0.8444,-0.8707,-0.8721,-0.8907,-0.9249,-0.9783,-1.0039,-1.0056,-1.0669,-1.0934,-1.096,-1.1236,-1.1523,-1.1664,-1.0524,-0.9907,-0.9786,-1.064,-1.0718,-1.0471,-1.1073,-1.175,-1.2434,-1.2956,-1.3105,-1.3256,-1.4245,-1.4004,-1.3574,-1.4365,-1.5141,-1.5735,-1.5735,-1.5735,-1.5931,-1.6707,-1.5716,-1.5001,-1.656,-1.6291,-1.5967,-1.6743,-1.5643,-1.4328,-1.3555,-1.4059,-1.4567,-1.4567,-1.4567,0.0,-1.4362,-1.4119,-1.3585,-1.2675,-1.2849,-1.2794,-1.2132,-1.1592,-1.1278,-1.1253,-1.0204,-1.0111,-1.1249,-0.953,-0.7974,-0.6759,-0.6289,-0.6151,-0.6363,0.0,0.0,0.0,0.0,0.0,0.0,0.0,0.0,0.0,0.0,0.0,0.0,0.0,0.0,0.0,0.0,0.0,0.0,0.0,0.0,0.0,0.0,-0.7798,-0.7928,-0.756,-0.7611,-0.8525,-0.8637,-0.8894,-0.9535,-0.9095,-0.9093,-0.9877,-0.9218,-0.8968,-0.9441,-0.9466,-0.9278,-0.8888,-0.8875,-0.8699,-0.8311,-0.8497,-0.8628,-0.8707,-0.9148,-0.9497,-0.9797,-1.0392,-1.0646,-1.0683,-1.1298,-1.1699,-1.1937,-1.2261,-1.2867,-1.3444,-1.2123,-1.1672,-1.181,-1.2037,-1.2288,-1.2523,-1.2826,-1.3166,-1.3507,-1.3795,-1.4274,-1.4831,-1.5245,-1.5612,-1.5961,-1.6175,-1.6395,-1.656,-1.656,-1.656,-1.6633,-1.6853,-1.656,-1.6358,-1.6798,-1.6725,-1.6633,-1.6853,-1.6542,-1.6175,-1.5961,-1.6083,-1.6248,-1.6248,-1.6248,0.0,-1.52,-1.5035,-1.4777,-1.4237,-1.4255,-1.4169,-1.3834,-1.3502,-1.3069,-1.2537,-1.2027,-1.1692,-1.1588,-1.1732,-1.1148,-0.9752,-0.9602,-0.8978,0.0,0.0,0.0,0.0,0.0,0.0,0.0,0.0,0.0,0.0,0.0,0.0,0.0,0.0,0.0,0.0,0.0,0.0,0.0,0.0,0.0,0.0,-0.8735,-0.9019,-0.9301,-0.8725,-0.862,-0.9567,-0.973,-0.9893,-1.0193,-1.0169,-1.022,-1.0344,-0.9993,-0.9905,-1.0219,-1.0416,-1.0404,-1.0158,-1.0469,-1.0282,-0.9519,-0.9855,-0.9958,-0.9795,-1.0145,-1.0468,-1.0764,-1.1118,-1.1279,0.0,-1.1944,-1.2327,-1.2552,-1.3165,-1.3833,0.0,0.0,0.0,0.0,0.0,-1.4029,-1.4304,-1.462,-1.4804,-1.495,-1.5239,-1.566,-1.6044,-1.6174,-1.653,-1.6908,-1.6908,-1.7147,-1.7403,-1.7403,-1.7403,-1.7484,-1.7832,-1.7385,-1.7073,-1.7759,-1.7649,-1.7502,-1.7832,0.0,0.0,-1.7906,-1.7348,-1.7018,-1.7348,-1.7128,-1.6801,-1.6561,-1.6156,-1.5821,-1.5577,-1.5175,-1.4853,-1.4684,-1.4113,0.0,0.0,0.0,-1.2384,-1.1886,-1.2692,0.0,0.0,0.0,-1.1703,-1.0467,0.0,0.0,0.0,-0.5859,-0.6421,0.0,0.0,0.0,0.0,0.0,0.0,0.0,0.0,0.0,0.0,0.0,0.0,0.0,0.0,0.0,0.0,-0.984,-1.0536,-1.149,-1.0792,-1.0548,-1.1485,-1.1136,-1.0833,-1.0896,-1.1324,-1.1213,-1.0257,-1.057,-1.0808,-1.0808,0.0,0.0,0.0,0.0,-1.2307,-1.1388,-1.177,-1.1767,-1.1411,-1.1339,-1.1479,-1.1805,-1.1757,-1.1802,-1.1939,-1.2534,-1.2914,-1.3154,-1.4038,-1.4628,-1.4973,-1.4592,-1.4776,-1.5286,-1.5556,-1.5663,-1.5733,-1.6176,0.0,0.0,-1.6896,-1.7092,-1.7183,-1.7275,-1.7367,-1.7422,-1.733,-1.7832,-1.8346,-1.8262,-1.8243,-1.8445,-1.9234,-1.8346,-1.7715,-1.926,-1.9014,-1.8702,-1.9315,-1.9444,-1.9407,-1.9315,-1.8115,-1.7403,-1.8133,-1.7631,-1.741,-1.8016,-1.7319,-1.6762,-1.6732,0.0,0.0,-1.5197,-1.4323,-1.3641,-1.3353,-1.309,-1.2835,-1.2618,-1.3236,-1.3471,-1.3239,-1.4106,-1.4232,-1.3548,-1.1574,-1.0606,-1.0502,-0.8347,-0.8097,0.0,0.0,0.0,0.0,0.0,0.0,0.0,0.0,0.0,0.0,0.0,0.0,0.0,0.0,0.0,-1.0687,-1.1956,-1.3107,-1.4038,-1.4012,-1.3298,-1.1791,-1.1487,-1.16,-1.2024,-1.1789,-1.1688,-1.1899,-1.1613,-1.1425,-1.1425,-1.1501,-1.1714,-1.2067,-1.2227,-1.2373,-1.2498,-1.2312,-1.2187,-1.2106,0.0,0.0,-1.1794,-1.1523,-1.185,-1.2609,-1.2741,-1.3573,-1.4828,-1.503,-1.5773,-1.6694,-1.5728,-1.5429,-1.5566,-1.5827,-1.6037,-1.6193,-1.6453,-1.6653,-1.691,-1.7628,-1.8317,-1.8959,-1.9612,-2.0291,0.0,-1.9997,-1.9924,-1.9887,-1.9234,-1.9077,-1.9271,-2.0071,-2.0034,-2.0089,-2.1096,-2.1188,-2.0931,-2.0364,-2.0272,-2.0052,-1.9407,-1.904,-1.8893,-1.904,-1.8948,-1.8665,-1.8163,-1.7939,-1.7723,-1.7511,-1.7311,-1.7133,-1.7019,-1.6817,-1.6317,-1.5478,-1.5165,-1.523,-1.5706,-1.5869,-1.5923,-1.5865,-1.6057,-1.6007,-1.5697,-1.5279,-1.5341,-1.5818,-1.4881,-1.469,0.0,0.0,0.0,0.0,0.0,0.0,0.0,0.0,0.0,0.0,0.0,-0.7968,-0.872,0.0,-1.1091,-1.2563,-1.3593,-1.4466,-1.5203,-1.506,-1.4481,-1.3375,-1.3011,-1.2835,-1.2801,-1.3037,-1.2987,-1.2429,-1.287,-1.3041,-1.2774,-1.2884,-1.3067,-1.3335,-1.3766,-1.3828,-1.3445,-1.3525,-1.3374,-1.305,-1.2714,-1.2639,-1.2796,-1.2627,-1.2921,-1.357,-1.391,-1.4615,-1.5592,-1.609,-1.68,-1.7494,-1.6918,-1.6712,-1.6726,-1.7004,-1.7168,-1.7291,-1.7659,-1.8135,-1.863,-1.9141,-1.9877,-2.0637,-2.1033,-2.1437,-2.1702,-2.1272,-2.1143,-2.1051,-2.0656,-2.0546,-2.0656,-2.1051,-2.1143,-2.1272,-2.1702,-2.1794,-2.1666,-2.1235,-2.1143,-2.1015,-2.0619,-2.0189,-1.9767,-1.9352,-1.9297,-1.915,-1.8739,-1.8702,-1.8646,-1.8521,-1.8141,-1.7835,-1.7666,-1.7218,-1.6744,-1.6237,-1.6072,-1.615,-1.6495,-1.6846,-1.7056,-1.7056,-1.742,-1.7549,-1.7455,-1.7455,-1.769,-1.8138,-1.7846,-1.7494,0.0,0.0,0.0,0.0,0.0,0.0,0.0,-0.9105,-0.9232,-0.8812,-0.891,-0.9445,-1.0619,-1.1681,-1.2836,-1.4347,-1.5031,-1.5547,-1.6094,-1.5793,-1.546,-1.5338,-1.4689,-1.4109,-1.3725,-1.4476,-1.448,-1.3281,-1.4235,-1.4681,-1.4226,-1.4284,-1.4425,-1.4613,-1.5314,-1.5271,-1.4442,-1.4677,-1.4528,-1.3989,-1.3857,-1.3835,-1.3895,-1.3835,-1.409,-1.4637,-1.5367,-1.5841,-1.6164,-1.7037,-1.7561,-1.78,-1.78,-1.7884,-1.8031,-1.8145,-1.843,-1.878,-1.912,-1.9794,-2.0571,-2.0874,-2.1455,-2.2069,-2.2216,-2.2271,-2.2235,-2.2088,-2.2033,-2.1996,-2.1831,-2.1794,-2.1831,-2.1996,-2.2033,-2.2088,-2.2235,-2.2271,-2.2216,-2.2069,-2.2033,-2.1978,-2.1831,-2.1216,-2.0474,-1.9656,-1.9407,-1.9297,-1.9297,-1.9297,-1.9297,-1.9297,-1.872,-1.8265,-1.8118,-1.7367,-1.6905,-1.6905,-1.6905,-1.6905,-1.6905,-1.7502,-1.7841,-1.7841,-1.8423,-1.8744,-1.8744,-1.8744,-1.8843,-1.906,-1.906,-1.8623,-1.019,-0.9935,-1.0197,-1.1412,-1.09,-1.0261,0.0,-1.0817,-1.0474,-1.001,-1.0764,-1.1551,-1.1722,-1.3002,-1.4379,-1.5464,-1.6416,-1.7222,-1.7758,-1.7783,-1.7531,-1.6921,-1.5639,-1.4968,-1.538,-1.5525,-1.5716,-1.6024,-1.5649,-1.5372,-1.5305,-1.477,-1.4651,-1.5014,-1.5134,-1.5315,-1.5607,-1.5068,-1.4766,-1.4691,-1.4081,-1.3955,-1.4225,-1.393,-1.447,-1.5683,-1.6661,-1.7092,-1.7169,-1.7562,-1.7777,-1.78,-1.78,-1.82,-1.8726,-1.8334,-1.921,-2.0554,-2.0181,-2.0752,-2.1741,-2.2492,-2.2786,-2.2988,-2.3712,-2.3933,-2.3786,-2.307,-2.2859,-2.2703,-2.1996,-2.1794,-2.1978,-2.2703,-2.2859,-2.3061,-2.3786,-2.3933,-2.3712,-2.3006,-2.2859,-2.2648,-2.1923,-2.1721,-2.1363,-2.0493,-1.9767,-1.9297,-1.9297,-1.9297,-1.9297,-1.9297,-1.9224,-1.9161,-1.9127,-1.8866,-1.8714,-1.8714,-1.8714,-1.8714,-1.8714,-1.8968,-1.9107,-1.9107,-1.9172,-1.9227,-1.9227,-1.9227,-1.9235,-1.9259,-1.9259,-1.9214,-1.0915,-1.0392,-1.0398,-1.0862,-1.1145,-1.1357,-1.1496,-1.1392,-1.132,-1.1469,-1.1902,-1.2547,-1.3524,-1.451,-1.5515,-1.6501,-1.729,-1.7847,-1.8066,-1.7749,-1.7408,-1.7141,-1.6556,-1.6142,-1.6068,-1.6395,-1.6729,-1.6949,-1.7205,-1.7216,-1.6908,-1.6574,-1.6437,-1.661,-1.6228,-1.6127,-1.6323,-1.5892,-1.5667,-1.5681,-1.5588,-1.5612,-1.5747,-1.5612,-1.5955,-1.6726,-1.7778,-1.8243,-1.8277,-1.8851,-1.9072,-1.9072,-1.9072,-1.9553,-2.0128,-1.9183,-1.972,-2.0887,-2.0854,-2.1571,-2.2556,-2.2896,-2.3318,-2.3768,-2.4098,-2.419,-2.4135,-2.3786,-2.3694,-2.3621,-2.3272,-2.3208,-2.3272,-2.3621,-2.3694,-2.3786,-2.4135,-2.419,-2.4098,-2.3768,-2.3694,-2.3584,-2.3254,-2.2813,-2.2373,-2.2015,-2.0841,-1.984,-1.9352,-1.9297,-1.9297,-1.9297,-1.9297,-1.9297,-1.9297,-1.9212,-1.9174,-1.9174,-1.9174,-1.9174,-1.9174,-1.9269,-1.9297,-1.9297,-1.9297,-1.9297,-1.9297,-1.9297,-1.9297,-1.9297,-1.9297,-1.9297,-1.1596,-1.0994,-1.0839,-1.0999,-1.1801,-1.2467,-1.2191,-1.2122,-1.2255,-1.2769,-1.3108,-1.3689,-1.4881,-1.5833,-1.6658,-1.735,-1.7956,-1.8305,-1.8271,-1.7862,-1.7472,-1.7285,-1.7302,-1.7143,-1.6736,-1.7331,-1.7801,-1.7945,-1.8429,-1.8532,-1.8135,-1.7842,-1.7763,-1.7892,-1.7423,-1.7228,-1.7334,-1.7133,-1.7037,-1.7051,-1.7295,-1.7454,-1.7533,-1.7429,-1.7571,-1.7943,-1.8622,-1.9012,-1.9249,-1.9778,-2.0002,-2.0002,-2.0002,-2.0487,-2.1094,-2.0245,-2.0613,-2.1533,-2.1517,-2.2322,-2.3318,-2.3318,-2.3731,-2.419,-2.419,-2.419,-2.419,-2.419,-2.419,-2.419,-2.419,-2.419,-2.419,-2.419,-2.419,-2.419,-2.419,-2.419,-2.419,-2.419,-2.419,-2.419,-2.419,-2.3731,-2.3263,-2.3024,-2.1979,-2.0804,-1.9767,-1.962,-1.9711,-1.9958,-1.9995,-1.9995,-1.9995,-1.9995,-1.9995,-1.9995,-1.9995,-1.9995,-1.9995,-1.9995,-1.9885,-1.9638,-1.962,-1.9517,-1.9297,-1.9297,-1.9297,-1.9297,-1.9297,-1.9297,-1.2174,-1.1953,-1.2022,-1.3118,-1.3422,-1.3467,-1.3447,-1.3447,-1.3496,-1.3713,-1.4642,-1.5401,-1.5381,-1.6837,-1.8001,-1.7908,-1.8434,-1.884,-1.8686,-1.8666,-1.8412,-1.7754,-1.7806,-1.7818,0.0,-1.8378,-1.9066,-1.9591,-1.9044,-1.8685,-1.8685,-1.8072,-1.7908,-1.8362,-1.8346,-1.8541,-1.8931,-1.8913,-1.8927,-1.8927,-1.8927,-1.9095,-1.9409,-1.9005,-1.9048,-1.9406,-1.9047,-1.9316,-1.9968,-1.9985,-2.0002,-2.0002,-2.0002,-2.0487,-2.123,-2.1453,-2.2205,-2.3023,-2.2331,-2.2996,-2.4153,-2.4153,-2.4171,-2.419,-2.419,-2.419,-2.419,-2.419,-2.419,-2.419,-2.419,-2.419,-2.419,-2.419,-2.419,-2.419,-2.419,-2.419,-2.419,-2.419,-2.419,-2.419,-2.419,-2.4171,-2.3896,-2.3116,-2.2951,-2.2327,-2.0676,-2.0448,-2.0786,-2.1629,-2.1721,-2.1721,-2.1721,-2.1721,-2.1721,-2.1721,-2.1721,-2.1721,-2.1721,-2.1721,-2.1335,-2.0493,-2.0448,-2.0071,-1.9297,-1.9297,-1.9297,-1.9297,-1.9297,-1.9297,-1.2677,-1.2758,-1.295,-1.3381,-1.3506,-1.3506,-1.3506,-1.3586,-1.3824,-1.4292,-1.4939,-1.5546,-1.5926,-1.6715,-1.743,-1.7842,-1.8396,-1.8915,-1.9313,-1.8972,-1.8731,-1.8818,-1.8873,0.0,0.0,0.0,0.0,-1.9026,-1.9491,-1.9769,-1.9769,-1.9838,-1.9956,-2.0115,-1.9702,-1.9524,-1.9657,-1.9432,-1.9329,-1.9326,-1.9561,-1.9723,-1.9827,-1.9694,-1.9698,-1.9844,-2.0242,-2.0564,-2.0822,-2.1316,-2.1536,-2.1536,-2.1536,-2.1688,-2.1963,-2.2233,-2.2558,-2.2858,-2.2847,-2.3296,-2.3876,-2.3876,-2.3876,-2.3907,-2.4123,-2.419,-2.43,-2.4842,-2.5007,-2.5117,-2.5658,-2.5786,-2.5658,-2.5117,-2.5007,-2.4842,-2.4318,-2.419,-2.419,-2.419,-2.419,-2.419,-2.419,-2.419,-2.3933,-2.3116,-2.2556,-2.1987,-2.1437,-2.1363,-2.1482,-2.1776,-2.1794,-2.1794,-2.1794,-2.1794,-2.1794,-2.1794,-2.1794,-2.1794,-2.1794,-2.1794,-2.1666,-2.1363,-2.0923,-2.0506,-2.0089,-1.9693,-1.9442,-1.9297,-1.9297,-1.9297,-1.3888,-1.4077,-1.4393,-1.4671,-1.4718,-1.4651,-1.4486,-1.4355,-1.4403,-1.4864,-1.5294,-1.5717,-1.6128,-1.654,-1.697,-1.7393,-1.7768,-1.8288,-1.9122,-1.8865,-1.8849,-1.9531,-1.961,-1.972,0.0,0.0,0.0,-1.9526,-2.0165,-2.055,-2.055,-2.0845,-2.1055,-2.1213,-2.0807,-2.0656,-2.0821,-2.0619,-2.0511,-2.0511,-2.0716,-2.0826,-2.0809,-2.0555,-2.0572,-2.0842,-2.1089,-2.136,-2.163,-2.2093,-2.2296,-2.231,-2.2415,-2.2388,-2.2349,-2.2742,-2.281,-2.2776,-2.3081,-2.3346,-2.3544,-2.366,-2.3891,-2.419,-2.4543,-2.4832,-2.5162,-2.5686,-2.5833,-2.5962,-2.6465,-2.6602,-2.6465,-2.5952,-2.5833,-2.5613,-2.4805,-2.464,-2.4548,-2.4263,-2.419,-2.419,-2.419,-2.419,-2.4025,-2.3511,-2.2978,-2.2547,-2.2271,-2.2226,-2.2345,-2.2639,-2.2657,-2.2657,-2.2657,-2.2657,-2.2657,-2.2657,-2.2657,-2.2657,-2.2657,-2.2657,-2.2528,-2.2226,-2.1801,-2.1377,-2.0951,-2.0572,-2.0166,-1.973,-1.973,-1.973,-1.576,-1.5854,-1.6261,-1.6863,-1.6905,-1.6658,-1.6289,-1.5633,-1.5151,-1.5373,-1.5728,-1.6024,-1.6037,-1.64,-1.6741,-1.6817,-1.6817,-1.7197,-1.8377,-1.8531,-1.8919,-1.9965,-2.0107,-2.0154,-2.0169,0.0,0.0,-2.1183,0.0,-2.1039,-2.1071,-2.1071,-2.1228,-2.1612,-2.1643,-2.1838,-2.2296,-2.2296,-2.2296,-2.2296,-2.2296,-2.2296,-2.2279,-2.158,-2.1634,-2.2262,-2.1563,-2.1651,-2.2296,-2.2296,-2.2296,-2.2338,-2.2573,-2.251,-2.2377,-2.297,-2.3007,-2.2816,-2.3087,-2.3177,-2.3242,-2.362,-2.4212,-2.4892,-2.533,-2.598,-2.6557,-2.6649,-2.6657,-2.6657,-2.6712,-2.6712,-2.6712,-2.6657,-2.6657,-2.6447,-2.5631,-2.5466,-2.5246,-2.4465,-2.4281,-2.4263,-2.4263,-2.4226,-2.419,-2.419,-2.419,-2.3914,-2.3153,-2.3061,-2.3354,-2.4116,-2.419,-2.419,-2.419,-2.419,-2.419,-2.419,-2.419,-2.419,-2.419,-2.419,-2.3841,-2.3079,-2.3033,-2.2639,-2.1867,-2.1821,-2.138,-2.0566,-2.0566,-2.0566,-1.7375,-1.7354,-1.7422,-1.7434,-1.6905,-1.6333,-1.621,-1.5498,-1.4991,-1.5332,-1.5824,-1.6316,-1.6621,-1.6677,-1.7134,-1.8483,-1.8284,-1.8517,-2.0099,-2.0353,-2.0542,-2.1121,-2.1687,-2.2139,-2.2491,-2.3173,0.0,0.0,-2.2269,-2.1689,-2.2244,-2.2077,-2.202,-2.212,-2.212,-2.218,-2.2296,-2.2296,-2.2296,-2.2296,-2.2296,-2.2296,-2.2296,-2.2124,-2.211,-2.2279,-2.2107,-2.2141,-2.2296,-2.2296,-2.2296,-2.231,-2.2374,-2.236,-2.2335,-2.2704,-2.2669,-2.247,-2.2725,-2.2835,-2.2973,-2.3915,-2.394,-2.3967,-2.576,-2.6025,-2.5962,-2.7163,-2.7493,-2.764,-2.8235,-2.84,-2.8235,-2.764,-2.7493,-2.7273,-2.6465,-2.63,-2.6227,-2.6025,-2.5493,-2.5081,-2.5081,-2.4603,-2.419,-2.419,-2.419,-2.4135,-2.3914,-2.3896,-2.3969,-2.4171,-2.419,-2.419,-2.419,-2.419,-2.419,-2.419,-2.419,-2.419,-2.419,-2.419,-2.4098,-2.3896,-2.3398,-2.2992,-2.2703,-2.2187,-2.1781,-2.1482,-2.1482,-2.1482,-1.9764,-1.9623,-1.9571,-1.9429,-1.8411,-1.7424,-1.7392,-1.6528,-1.5789,-1.6011,-1.6283,-1.6625,-1.7163,-1.6733,-1.6894,-1.8671,-1.8158,-1.8302,-2.0501,-2.082,-2.1216,-2.2267,-2.2762,-2.3252,-2.3818,-2.4035,-2.4373,0.0,-2.3669,-2.3061,-2.3461,-2.3038,-2.2784,-2.2784,-2.2465,-2.2296,-2.2296,-2.2296,-2.2296,-2.2296,-2.2296,-2.2296,-2.2296,-2.2296,-2.2296,-2.2296,0.0,-2.2296,-2.2296,-2.2296,-2.2296,-2.231,-2.244,-2.2398,-2.2335,-2.2599,-2.2541,-2.2358,-2.2836,-2.3112,-2.3341,-2.374,-2.4057,-2.4563,-2.6122,-2.6778,-2.7163,-2.8062,-2.8338,-2.8429,-2.8877,-2.9005,-2.8895,-2.8429,-2.8338,-2.8117,-2.731,-2.7126,-2.7016,-2.6667,-2.6245,-2.5815,-2.5448,-2.5026,-2.4622,-2.4245,-2.419,-2.419,-2.419,-2.419,-2.419,-2.419,-2.419,-2.419,-2.419,-2.419,-2.419,-2.419,-2.419,-2.419,-2.419,-2.419,-2.419,-2.419,-2.3823,-2.3602,-2.3529,-2.3141,-2.2754,-2.2336,-2.2336,-2.2336,-2.2376,-2.2098,-2.1903,-2.1839,-2.0468,-1.9088,-1.8932,-1.7894,-1.6935,-1.6901,-1.6892,-1.7081,-1.7712,-1.6862,-1.6622,-1.8377,-1.7577,-1.7677,-2.0365,-2.0872,-2.1578,-2.3211,-2.3562,-2.3934,-2.4575,-2.4264,-2.4497,-2.5661,-2.5087,-2.4682,-2.466,-2.3949,-2.3545,-2.3545,-2.275,-2.2347,-2.2448,-2.2347,-2.2296,-2.2296,-2.2296,-2.2296,-2.2296,-2.2296,-2.2296,-2.2296,0.0,0.0,-2.2296,-2.2296,-2.2296,-2.2307,-2.2563,-2.2552,-2.2474,-2.2701,-2.2706,-2.2682,-2.3398,-2.3858,-2.4081,-2.3776,-2.4573,-2.5815,-2.6662,-2.7813,-2.8858,-2.8968,-2.9005,-2.9005,-2.9005,-2.9005,-2.9005,-2.9005,-2.9005,-2.8803,-2.8117,-2.7952,-2.775,-2.7042,-2.6822,-2.6539,-2.5833,-2.554,-2.5154,-2.4447,-2.4263,-2.419,-2.419,-2.419,-2.419,-2.419,-2.419,-2.419,-2.419,-2.419,-2.419,-2.419,-2.419,-2.419,-2.419,-2.419,-2.419,-2.419,-2.419,-2.419,-2.419,-2.419,-2.3841,-2.3153,-2.3153,-2.3153,-2.4096,-2.34,-2.2548,-2.2536,-2.1116,-1.9598,-1.9037,-1.8021,-1.716,-1.6949,-1.7407,-1.7998,-1.844,-1.7893,-1.7935,-1.969,-1.9167,-1.9226,-2.1172,-2.2291,-2.303,-2.3359,-2.4475,-2.527,-2.5406,-2.5529,0.0,0.0,-2.6031,-2.5646,-2.5423,-2.4711,-2.4305,-2.4305,-2.3004,-2.2584,-2.319,-2.26,-2.2296,-2.2296,-2.2296,-2.2296,-2.2296,-2.2296,-2.2296,-2.2296,-2.2296,0.0,-2.2296,-2.2296,-2.2296,-2.231,-2.2349,-2.2722,-2.3221,-2.3262,-2.3621,-2.4181,-2.4652,-2.4857,-2.5039,-2.5888,-2.6111,-2.6326,-2.807,-2.8319,-2.8154,-2.8803,-2.9005,-2.9005,-2.9005,-2.9005,-2.9005,-2.9005,-2.9005,-2.8968,-2.8822,-2.8785,-2.8748,-2.8601,-2.8062,-2.7559,-2.7412,-2.6274,-2.5338,-2.5209,-2.464,-2.419,-2.419,-2.419,-2.419,-2.419,-2.419,-2.419,-2.419,-2.419,-2.419,-2.419,-2.419,-2.419,-2.419,-2.419,-2.419,-2.419,-2.419,-2.419,-2.419,-2.419,-2.4135,-2.3988,-2.3988,-2.3988,-2.5491,-2.4953,-2.4131,-2.3779,-2.2255,-2.0663,-1.9993,-1.8902,-1.7995,-1.7861,-1.814,-1.8584,-1.9116,-1.8672,-1.8689,-2.0075,-1.939,-1.936,-2.1324,-2.179,-2.2339,-2.3429,-2.4179,-2.493,-2.573,-2.5675,-2.589,-2.6641,-2.6262,-2.606,-2.6167,-2.5117,-2.4321,-2.3949,-2.2868,-2.2465,-2.2835,-2.2482,-2.2296,-2.2296,-2.2296,-2.2296,-2.2296,-2.2296,-2.2296,-2.2296,-2.2296,0.0,-2.2296,-2.2296,-2.2296,-2.233,-2.2733,-2.3088,-2.3444,-2.3831,-2.4203,-2.4603,-2.5399,-2.5809,-2.6173,-2.7273,-2.722,-2.6922,-2.8038,-2.8411,-2.8594,-2.939,-2.961,-2.961,-2.961,-2.961,-2.9519,-2.9097,-2.9005,-2.9005,-2.9005,-2.9005,-2.9005,-2.9005,-2.8693,-2.8282,-2.786,-2.6814,-2.5888,-2.5466,-2.4713,-2.419,-2.419,-2.419,-2.419,-2.419,-2.419,-2.419,-2.419,-2.419,-2.419,-2.419,-2.419,-2.419,-2.419,-2.419,-2.419,-2.419,-2.419,-2.419,-2.419,-2.419,-2.419,-2.419,-2.419,-2.419,-2.6408,-2.611,-2.5472,-2.4953,-2.3238,-2.1516,-2.0861,-1.9761,-1.8867,-1.8732,-1.8807,-1.9076,-1.9603,-1.9151,-1.9017,-2.0016,-1.9306,-1.9279,-2.1204,-2.1278,-2.1813,-2.3653,-2.3966,-2.459,-2.6022,-2.5561,0.0,-2.6487,-2.6209,0.0,-2.6674,-2.5455,-2.4458,-2.3883,-2.3004,-2.2533,-2.2533,-2.2381,-2.2296,-2.2296,-2.2296,-2.2296,-2.2296,-2.2296,-2.2296,-2.2296,-2.2296,0.0,0.0,-2.2296,-2.2381,-2.2584,-2.3173,-2.3579,-2.3934,-2.4525,-2.4891,-2.5234,-2.6227,-2.6827,-2.7304,-2.824,-2.813,-2.7706,-2.7988,-2.8503,-2.9133,-2.9757,-2.9953,-2.9953,-2.9953,-2.9953,-2.9831,-2.9372,-2.9133,-2.906,-2.9225,-2.9115,-2.9005,-2.9005,-2.9005,-2.8803,-2.8172,-2.7383,-2.6649,-2.6017,-2.5081,-2.4456,-2.4456,-2.43,-2.419,-2.419,-2.419,-2.419,-2.419,-2.419,-2.419,-2.419,-2.419,-2.419,-2.419,-2.419,-2.419,-2.419,-2.419,-2.419,-2.419,-2.419,-2.419,-2.419,-2.419,-2.419,-2.6408,-2.6105,-2.5604,-2.5531,-2.3596,-2.1511,-2.0853,-2.0139,-1.9453,-1.8837,-1.9181,-1.9633,-1.9693,-1.9151,-1.8929,-1.9641,-1.949,-1.9719,-2.0895,-2.2097,-2.3273,-2.4302,-2.4801,-2.5489,-2.6522,-2.5764,-2.543,-2.6015,-2.6015,0.0,-2.6674,-2.5947,-2.5473,-2.5406,-2.4036,-2.3291,-2.3291,-2.2632,-2.2296,-2.2296,-2.2296,-2.2296,-2.2296,-2.2296,-2.2296,-2.2296,-2.2296,0.0,0.0,-2.2296,-2.2685,-2.3308,-2.3376,-2.4222,-2.5423,-2.5473,-2.6153,-2.7111,-2.7584,-2.7968,-2.833,-2.8791,-2.8885,-2.8842,-2.8883,-2.895,-2.9023,-2.9097,-2.9115,-2.9115,-2.9115,-2.9115,-2.928,-2.9934,-2.9537,-2.9207,-2.9934,-2.9519,-2.9005,-2.9005,-2.9005,-2.8987,-2.8895,-2.8227,-2.7669,-2.7596,-2.6274,-2.5283,-2.5283,-2.4658,-2.419,-2.419,-2.419,-2.419,-2.419,-2.419,-2.419,-2.419,-2.419,-2.419,-2.419,-2.419,-2.419,-2.419,-2.419,-2.419,-2.419,-2.419,-2.419,-2.419,-2.419,-2.419,-2.5202,-2.551,-2.551,-2.5098,-2.364,-2.2134,-2.1455,-2.0468,-1.9633,-1.9346,-1.9513,-1.9708,-1.9708,-1.9465,-1.9481,-1.9989,-1.9688,-1.9765,-2.0847,-2.1135,-2.1843,-2.3472,-2.3831,-2.4547,0.0,0.0,-2.589,-2.6384,0.0,0.0,-2.6691,-2.5998,-2.5406,-2.4949,-2.3934,-2.319,-2.275,-2.2448,-2.2296,-2.2296,-2.2296,-2.2296,-2.2296,-2.2296,-2.2296,-2.2296,-2.2296,0.0,0.0,-2.2296,-2.2719,-2.3427,-2.3898,-2.4695,-2.5692,-2.6373,-2.6904,-2.7378,-2.7988,-2.829,-2.8562,-2.9442,-2.939,-2.9097,-2.9574,-2.9372,-2.9207,-3.0173,-3.0448,-3.0448,-3.0448,-3.0448,-3.0522,-3.0852,-3.0687,-3.0522,-3.0852,-3.0283,-2.9721,-2.9721,-2.9335,-2.9005,-2.9005,-2.8338,-2.7798,-2.7798,-2.6833,-2.6117,-2.6117,-2.5841,-2.5456,-2.497,-2.4493,-2.419,-2.419,-2.419,-2.419,-2.419,-2.419,-2.419,-2.419,-2.419,-2.419,-2.419,-2.419,-2.419,-2.419,-2.419,-2.419,-2.419,-2.419,-2.419,-2.4066,-2.4522,-2.4672,-2.438,-2.3206,-2.1979,-2.1515,-2.0513,-1.9708,-1.9708,-1.9708,-1.9708,-1.9708,-1.9708,-1.98,-2.0087,-1.9773,-1.9786,-2.0684,-2.0559,-2.0989,-2.2607,-2.2973,-2.369,-2.5319,-2.5648,-2.6033,-2.6657,0.0,0.0,-2.6691,-2.5998,-2.5253,-2.4508,-2.378,-2.3054,-2.2296,-2.2296,-2.2296,-2.2296,-2.2296,-2.2296,-2.2296,-2.2296,-2.2296,-2.2296,0.0,0.0,0.0,-2.2533,-2.3054,-2.3814,-2.4541,-2.5349,-2.619,-2.6987,-2.7439,-2.7704,-2.8219,-2.8471,-2.8724,-2.9569,-2.9464,-2.9189,-3.0246,-2.9989,-2.9592,-3.0723,-3.1231,-3.1397,-3.1397,-3.1397,-3.147,-3.1696,-3.158,-3.147,-3.1696,-3.1109,-3.0485,-3.0246,-2.9739,-2.928,-2.9042,-2.8539,-2.8154,-2.8154,-2.7475,-2.6961,-2.6961,-2.6759,-2.6374,-2.5815,-2.5044,-2.4456,-2.4226,-2.419,-2.419,-2.419,-2.419,-2.419,-2.419,-2.419,-2.419,-2.419,-2.419,-2.419,-2.419,-2.419,-2.419,-2.419,-2.419,-2.419,-2.3266,-2.3176,-2.2868,-2.346,-2.2158,-2.0718,-2.0703,-2.0183,-1.9708,-1.9708,-1.9708,-1.9708,-1.9708,-1.9708,-1.9708,-1.9708,-1.9693,-1.9839,-2.0246,-2.087,-2.1483,-2.2031,-2.2635,-2.3335,-2.4134,-2.4804,-2.5617,-2.6607,0.0,0.0,-2.6674,-2.5998,-2.5253,-2.4508,-2.378,-2.3054,-2.2296,-2.2296,-2.2296,-2.2296,-2.2296,-2.2296,-2.2296,-2.2296,-2.2296,0.0,0.0,0.0,0.0,-2.3088,-2.3831,-2.4558,-2.5304,-2.6273,-2.7286,-2.7303,-2.7762,-2.8394,-2.8407,-2.8658,-2.8994,-2.9023,-2.9005,-2.9299,-3.0889,-3.0834,-3.0191,-3.021,-3.0797,-3.1397,-3.1397,-3.1397,-3.1599,-3.2399,-3.1971,-3.1623,-3.2417,-3.1953,-3.1146,-3.0356,-3.0191,-2.9934,-2.9133,-2.8987,-2.8987,-2.8987,-2.8301,-2.7787,-2.7787,-2.709,-2.6602,-2.6583,-2.587,-2.5062,-2.4263,-2.419,-2.419,-2.419,-2.419,-2.419,-2.419,-2.419,-2.419,-2.419,-2.419,-2.419,-2.419,-2.419,-2.419,-2.419,-2.419,-2.419,-2.1376,-2.1485,-2.15,-2.2143,-2.15,-2.0703,-2.0703,-2.0183,-1.9708,-1.9708,-1.9708,-1.9708,-1.9708,-1.9708,-1.98,-2.007,-2.0106,-2.0278,-2.0731,-2.097,-2.1512,-2.2655,-2.4128,-2.5154,0.0,0.0,-2.6228,0.0,0.0,0.0,-2.6691,-2.5523,-2.4745,-2.4508,-2.378,-2.3054,-2.2296,-2.2801,-2.2801,-2.2296,-2.2818,-2.2801,-2.2296,-2.2296,0.0,0.0,0.0,0.0,0.0,-2.38,-2.4378,-2.4947,-2.6014,-2.6608,-2.6989,-2.7765,-2.8206,-2.8446,-2.8707,-2.8887,-2.9097,-2.9629,-2.9445,-2.9299,-3.0907,-3.0834,-3.043,-3.1518,-3.2014,-3.2357,-3.2908,-3.3036,-3.3091,-3.3366,-3.322,-3.3109,-3.3366,-3.2797,-3.2142,-3.1885,-3.1403,-3.0944,-3.0687,-3.0173,-2.9824,-2.9824,-2.9133,-2.862,-2.862,-2.84,-2.8033,-2.7475,-2.7192,-2.6704,-2.5915,-2.5338,-2.5026,-2.5026,-2.5026,-2.4768,-2.4226,-2.419,-2.419,-2.419,-2.419,-2.419,-2.419,-2.419,-2.419,-2.419,-2.419,-2.419,-2.0434,-2.0528,-2.0483,-2.1156,-2.0827,-2.0318,-2.0318,-1.9989,-1.9708,-1.9708,-1.9708,-1.9708,-1.9708,-1.9708,-1.9782,-2.0035,-2.0072,-2.0191,-2.0465,-2.0649,-2.1209,-2.254,-2.3914,0.0,0.0,-2.5886,0.0,0.0,0.0,0.0,-2.6302,-2.5406,-2.466,-2.4101,-2.3359,-2.2902,-2.2733,-2.2885,-2.2885,-2.2733,-2.2902,-2.275,-2.2296,-2.2296,0.0,0.0,0.0,0.0,0.0,-2.4361,-2.4866,-2.5313,-2.6678,-2.7272,-2.7429,-2.8149,-2.8502,-2.8724,-2.9265,-2.9244,-2.9133,-2.9953,-2.9849,-2.9702,-3.0999,-3.1256,-3.1384,-3.2693,-3.3041,-3.3183,-3.3678,-3.3807,-3.3807,-3.3807,-3.3807,-3.3807,-3.3807,-3.3421,-3.2949,-3.2656,-3.221,-3.1751,-3.1452,-3.098,-3.0558,-3.0246,-3.0026,-2.9794,-2.9482,-2.9445,-2.9262,-2.876,-2.8154,-2.7714,-2.7519,-2.6484,-2.5852,-2.5852,-2.5576,-2.5172,-2.4677,-2.4355,-2.419,-2.419,-2.419,-2.419,-2.419,-2.419,-2.419,-2.419,-2.419,-2.419,0.0,-2.0109,-1.9779,-2.0449,-2.0154,-1.9708,-1.9708,-1.9708,0.0,-1.9708,-1.9708,-1.9708,-1.9708,-1.9708,-1.9708,-1.9708,-1.9708,-1.9711,-1.9782,-2.0198,-2.0891,0.0,-2.254,0.0,-2.4648,-2.5102,0.0,0.0,0.0,0.0,-2.571,-2.5592,-2.4898,-2.3511,-2.2716,-2.2632,-2.3308,-2.2685,-2.2699,-2.3308,-2.2682,-2.2347,-2.2296,-2.2347,0.0,0.0,0.0,0.0,0.0,-2.491,-2.5392,-2.5738,-2.7351,-2.8121,-2.8355,-2.8428,-2.8682,-2.9115,-2.9849,-2.9629,-2.9115,-2.9879,-3.0155,-3.0356,-3.1158,-3.1953,-3.2766,-3.3568,-3.3807,-3.3807,-3.3807,-3.3807,-3.3807,-3.3807,-3.3807,-3.3807,-3.3807,-3.3807,-3.3587,-3.2821,-3.2693,-3.2449,-3.1696,-3.1525,-3.1219,-3.0485,-3.0962,-3.114,-3.0375,-3.0246,-3.021,-3.021,-2.8815,-2.8191,-2.8932,-2.7574,-2.6686,-2.6686,-2.598,-2.554,-2.5485,-2.4768,-2.4373,-2.4373,-2.4373,-2.4337,-2.4281,-2.4281,-2.4281,-2.4281,-2.4226,-2.419,-1.8971,0.0,-1.9091,-1.9783,-1.9828,-1.9708,0.0,-1.9708,-1.9708,-1.9708,-1.9708,-1.9708,-1.9708,-1.9708,-1.9708,-1.9708,-1.9708,-1.9927,-2.0599,-2.1663,-2.2477,-2.2812,-2.389,-2.4544,-2.4374,-2.5569,0.0,0.0,0.0,-2.6623,-2.6437,-2.5355,-2.4609,-2.4254,-2.2987,-2.2381,-2.2564,-2.2953,-2.2953,-2.2564,-2.2953,-2.2852,-2.2313,-2.2885,0.0,0.0,0.0,0.0,-2.5287,-2.6286,-2.6587,-2.6565,-2.8128,-2.8408,-2.8022,-2.8644,-2.8917,-2.9023,-2.9225,-2.9152,-2.9023,-2.9225,-2.9702,-3.0356,-3.1158,-3.1953,-3.2766,-3.3568,-3.3807,-3.3807,-3.3807,-3.3807,-3.3807,-3.3807,-3.3807,-3.3807,-3.3807,-3.3807,-3.3733,-3.355,-3.3532,-3.3458,-3.3275,-3.2724,-3.2252,-3.2051,-3.1659,-3.1342,-3.114,-3.0577,-3.021,-3.021,-2.9299,-2.8785,-2.8987,-2.8099,-2.7512,-2.7512,-2.7339,-2.6961,-2.6337,-2.6135,-2.6043,-2.6043,-2.6043,-2.5731,-2.5117,-2.5117,-2.5117,-2.5099,-2.4493,-2.419,-1.8634,-1.8927,-1.9241,-1.9618,-1.9708,-1.9708,-1.9708,-1.9708,-1.9708,-1.9708,-1.9708,-1.9708,-1.9708,-1.9708,-1.9708,-1.9708,-1.9708,-1.9856,-2.0345,-2.1293,-2.2065,-2.2431,-2.3578,-2.4442,0.0,0.0,0.0,0.0,0.0,-2.6539,-2.6201,-2.576,-2.5202,-2.4508,-2.3729,-2.3139,-2.2818,-2.2868,-2.2868,-2.2818,-2.2868,-2.2699,-2.2313,-2.2702,-2.3257,0.0,0.0,0.0,-2.6147,-2.6765,-2.7084,-2.7331,-2.8529,-2.873,-2.8411,-2.884,-2.9005,-2.906,-2.9427,-2.9787,-3.0099,-3.0099,-3.0393,-3.0889,-3.1715,-3.2252,-3.2766,-3.3568,-3.3807,-3.3807,-3.3807,-3.3807,-3.3807,-3.3807,-3.3807,-3.3807,-3.3807,-3.3807,-3.3807,-3.3807,-3.3807,-3.3807,-3.3807,-3.344,-3.3036,-3.2656,-3.254,-3.2375,-3.2008,-3.1568,-3.1311,-3.1311,-3.0253,-2.9537,-2.9537,-2.8815,-2.8356,-2.8356,-2.8007,-2.7603,-2.7163,-2.6796,-2.6602,-2.6602,-2.6602,-2.6392,-2.5962,-2.5962,-2.5962,-2.5933,-2.5136,-2.475,-1.8702,-1.9256,-1.9842,-1.9738,-1.9708,-1.9708,-1.9708,-1.9708,-1.9708,-1.9708,-1.9708,-1.9708,-1.9708,-1.9708,-1.9708,-1.9708,-1.9837,0.0,-2.0145,-2.0764,-2.1413,-2.1893,-2.3053,0.0,0.0,0.0,0.0,0.0,0.0,-2.642,-2.5812,-2.6251,-2.5912,-2.4541,-2.4389,-2.3983,-2.3241,-2.2615,-2.2615,-2.3224,-2.2598,-2.2296,-2.2296,-2.2429,-2.3139,0.0,0.0,0.0,-2.6641,-2.6943,-2.7371,-2.7958,-2.8707,-2.9005,-2.9005,-2.9005,-2.8952,-2.9027,-2.9826,-3.0595,-3.125,-3.136,-3.1397,-3.1562,-3.2362,-3.2601,-3.2766,-3.3568,-3.3807,-3.3807,-3.3807,-3.3807,-3.3807,-3.3807,-3.3807,-3.3807,-3.3807,-3.3899,-3.3954,-3.3825,-3.3899,-3.3935,-3.3825,-3.3807,-3.3568,-3.2894,-3.3366,-3.355,-3.2858,-3.2674,-3.2601,-3.2601,-3.1164,-3.021,-3.021,-2.9464,-2.9005,-2.9005,-2.8356,-2.797,-2.797,-2.7328,-2.6914,-2.6796,-2.6895,-2.6914,-2.6778,-2.6778,-2.6778,-2.6759,-2.5833,-2.5393,-1.8702,-1.96,-2.0423,-1.9824,-1.9708,-1.9708,-1.9708,-1.9708,-1.9708,-1.9708,-1.9708,-1.9708,-1.9708,-1.9708,-1.9708,-1.9708,-2.0454,-2.1326,0.0,0.0,-2.3463,-2.3153,0.0,0.0,0.0,0.0,0.0,0.0,0.0,-2.664,-2.6539,-2.6048,-2.5372,-2.4525,-2.3898,-2.3207,-2.2482,-2.2347,-2.2347,-2.2465,-2.2347,-2.2296,-2.2313,-2.2953,-2.3342,0.0,0.0,-2.5969,-2.6377,-2.7638,-2.8214,-2.8346,-2.8827,-2.9005,-2.9005,-2.9005,-2.8773,-2.8623,-2.9414,-3.0006,-3.0503,-3.1182,-3.1397,-3.1562,-3.2362,-3.2601,-3.2766,-3.3568,-3.3807,-3.3807,-3.3807,-3.3807,-3.3807,-3.3807,-3.3807,-3.3807,-3.3807,-3.4325,-3.4619,-3.3935,-3.4344,-3.4601,-3.3917,-3.3807,-3.3752,-3.3623,-3.3715,-3.3752,-3.3623,-3.3023,-3.2601,-3.2601,-3.1164,-3.021,-3.021,-2.9464,-2.9005,-2.9005,-2.8877,-2.8822,-2.8822,-2.8693,-2.8308,-2.7622,-2.8271,-2.829,-2.7622,-2.7622,-2.7622,-2.7585,-2.609,-2.5393,-1.9136,-1.969,-2.0094,-1.9783,-1.9974,-2.0154,-1.9783,-1.9708,-1.9708,-1.9708,-1.9708,-1.9708,-1.9708,-1.9989,-2.0363,-2.0707,-2.1411,-2.2037,-2.2489,-2.3161,-2.3674,0.0,0.0,0.0,0.0,0.0,0.0,0.0,0.0,0.0,-2.6691,-2.637,-2.5862,-2.5118,-2.4389,-2.3644,-2.2902,-2.2499,-2.2296,-2.2296,-2.2296,-2.2513,-2.2919,-2.3241,-2.3833,-2.4643,0.0,-2.6359,-2.7171,-2.785,-2.8355,-2.8725,-2.8682,-2.867,-2.87,-2.8925,-2.8878,-2.8887,-3.0097,-3.0808,-3.1306,-3.2101,-3.2524,-3.2761,-3.3146,-3.3256,-3.333,-3.3697,-3.3807,-3.3807,-3.3807,-3.3807,-3.3807,-3.3807,-3.3807,-3.3807,-3.3807,-3.41,-3.4247,-3.3862,-3.41,-3.4215,-3.3862,-3.3807,-3.3807,-3.3807,-3.3807,-3.3807,-3.3807,-3.3476,-3.3256,-3.3256,-3.1806,-3.0852,-3.0852,-2.9702,-2.9005,-2.9005,-2.9005,-2.9005,-2.9005,-2.9005,-2.8822,-2.8466,-2.8803,-2.8822,-2.8448,-2.8448,-2.8448,-2.84,-2.6796,-2.6043,-1.9573,-1.9813,-1.9884,-1.9753,-2.0094,-2.0378,-2.0022,-1.9929,-1.9974,-2.0142,-2.0034,-1.9929,-1.9929,-2.0363,-2.0912,-2.159,-2.2124,-2.2555,-2.2828,-2.333,-2.3901,-2.4539,0.0,0.0,0.0,0.0,0.0,0.0,0.0,0.0,-2.6691,-2.6539,-2.6099,-2.5372,-2.4643,-2.3898,-2.3139,-2.2581,-2.2296,-2.2296,-2.2296,-2.2699,-2.3393,-2.3393,-2.4103,-2.5355,-2.5636,-2.64,-2.7518,-2.7798,-2.8228,-2.87,-2.8394,-2.8398,-2.8578,-2.8771,-2.9034,-2.943,-3.0728,-3.1522,-3.2123,-3.2946,-3.348,-3.3807,-3.3807,-3.3807,-3.3807,-3.3807,-3.3807,-3.3807,-3.3807,-3.3807,-3.3807,-3.3807,-3.3807,-3.3807,-3.3807,-3.3954,-3.4027,-3.3844,-3.4119,-3.4321,-3.4119,-3.4082,-3.4082,-3.4082,-3.3917,-3.3807,-3.3807,-3.3807,-3.3807,-3.3807,-3.2522,-3.1604,-3.1415,-3.0099,-2.928,-2.928,-2.9097,-2.9005,-2.9005,-2.9005,-2.9005,-2.9005,-2.9005,-2.9005,-2.9005,-2.9005,-2.9005,-2.8968,-2.7354,-2.6602,-1.9693,-2.0154,-2.0483,-1.9872,-1.9738,-1.9914,-2.0513,-2.0628,-2.0793,-2.1425,-2.1066,-2.0628,-2.0628,-2.0658,-2.0912,-2.159,-2.2244,-2.3056,-2.4096,0.0,-2.5263,0.0,0.0,0.0,0.0,0.0,0.0,0.0,0.0,0.0,-2.6691,-2.6048,-2.5338,-2.4609,-2.3849,-2.3122,-2.2381,-2.233,-2.2296,-2.2296,-2.2296,-2.2699,-2.3393,-2.3393,-2.3831,-2.464,-2.5704,-2.6212,-2.6405,-2.7469,-2.794,-2.7982,-2.7954,-2.8351,-2.893,-2.8572,-2.9122,-3.0094,-3.0575,-3.1283,-3.2123,-3.2946,-3.348,-3.3807,-3.3807,-3.3807,-3.3807,-3.3807,-3.3807,-3.3807,-3.3807,-3.3807,-3.3807,-3.3807,-3.3807,-3.3807,-3.3807,-3.438,-3.4692,-3.3935,-3.5055,-3.5862,-3.5059,-3.4912,-3.4912,-3.4912,-3.427,-3.3807,-3.3807,-3.3807,-3.3807,-3.3807,-3.3036,-3.221,-3.147,-3.0613,-3.0118,-3.0118,-2.9409,-2.9005,-2.9005,-2.9005,-2.9005,-2.9005,-2.9005,-2.9005,-2.9005,-2.9005,-2.9005,-2.8968,-2.7354,-2.6602,-1.9708,-2.0183,-2.0539,-1.9872,-2.0004,-2.0393,-2.0643,-2.0703,-2.0763,-2.1036,-2.1216,-2.1321,-2.1321,-2.1523,-2.1831,-2.2249,-2.3127,-2.3902,-2.4338,-2.4871,0.0,0.0,0.0,0.0,0.0,0.0,0.0,0.0,0.0,0.0,-2.6048,-2.6184,-2.5524,-2.3881,-2.4441,-2.397,-2.2313,-2.275,-2.2987,-2.2987,-2.2516,-2.2936,-2.4085,-2.4085,-2.4745,-2.5879,-2.6312,-2.6655,-2.692,-2.735,-2.7663,-2.7883,-2.7619,-2.7816,-2.8302,-2.8648,-2.9489,-3.0557,-3.1167,-3.1975,-3.2787,-3.3109,-3.348,-3.3807,-3.3807,-3.3807,-3.3807,-3.3807,-3.3807,-3.3917,-3.4417,-3.4192,-3.4064,-3.511,-3.4559,-3.3935,-3.4435,-3.438,-3.4174,-3.3862,-3.4724,-3.5389,-3.5059,-3.5445,-3.561,-3.5078,-3.4747,-3.4362,-3.3862,-3.3807,-3.3807,-3.3807,-3.3091,-3.2284,-3.147,-3.065,-3.021,-3.021,-2.9445,-2.9005,-2.9005,-2.9005,-2.9005,-2.9005,-2.9005,-2.9005,-2.9005,-2.9005,-2.9005,-2.8968,-2.786,-2.7346,-1.9708,-2.0034,-2.0273,-1.9813,-2.0198,-2.0748,-2.0976,-2.1186,-2.1455,-2.1854,-2.1979,-2.1934,-2.1739,-2.192,-2.2235,0.0,-2.3662,-2.4471,-2.4632,0.0,0.0,0.0,0.0,0.0,0.0,0.0,0.0,0.0,0.0,0.0,0.0,-2.5862,-2.5406,-2.4137,-2.4847,-2.4408,-2.2651,-2.3139,-2.3274,-2.3054,-2.2784,-2.3427,-2.4846,-2.4609,-2.5303,-2.6691,-2.6691,-2.6857,-2.7115,-2.7115,-2.727,-2.7485,-2.7225,-2.7554,-2.8247,-2.8807,-2.988,-3.1132,-3.1616,-3.2416,-3.3184,-3.3029,-3.3273,-3.3578,-3.3433,-3.349,-3.3606,-3.3606,-3.3707,-3.399,-3.4784,-3.4399,-3.4156,-3.5569,-3.4816,-3.41,-3.5169,-3.4747,-3.4192,-3.4192,-3.5041,-3.5701,-3.5445,-3.5917,-3.6101,-3.55,-3.4949,-3.4417,-3.3862,-3.3807,-3.3807,-3.3807,-3.3311,-3.2761,-3.2192,-3.1421,-3.0852,-3.0595,-2.9824,-2.9262,-2.9005,-2.9005,-2.9005,-2.9005,-2.9005,-2.9005,-2.9005,-2.9005,-2.9005,-2.8987,-2.8172,-2.7798,-1.9708,-1.9708,-1.9708,-1.9708,-2.0213,-2.0882,-2.1545,-2.2224,-2.3062,-2.4321,-2.358,-2.2493,-2.1849,-2.1729,-2.1939,-2.2583,-2.3662,-2.4592,0.0,0.0,0.0,0.0,0.0,0.0,0.0,0.0,0.0,0.0,0.0,0.0,0.0,-2.4914,-2.4846,-2.5558,-2.488,-2.4152,-2.3393,-2.3393,-2.3038,-2.233,-2.3054,-2.4188,-2.5559,-2.4846,-2.532,-2.6691,-2.6691,-2.6691,-2.6691,-2.6691,-2.6691,-2.6691,-2.6725,-2.7656,-2.8993,-2.901,-3.0187,-3.1807,-3.1807,-3.2416,-3.3124,-3.2648,-3.2809,-3.3124,-3.2632,-3.2842,-3.3199,-3.3199,-3.3494,-3.399,-3.4784,-3.4399,-3.4009,-3.4839,-3.4399,-3.4266,-3.5954,-3.5642,-3.5023,-3.5023,-3.6358,-3.7254,-3.645,-3.6303,-3.6303,-3.6303,-3.4871,-3.3807,-3.3807,-3.3807,-3.3807,-3.3807,-3.3807,-3.3807,-3.3807,-3.3073,-3.2265,-3.1452,-3.0632,-2.9831,-2.9023,-2.9005,-2.9005,-2.9005,-2.9005,-2.9005,-2.9005,-2.9005,-2.9005,-2.8987,-2.8172,-2.7816,-1.9708,-2.0034,-2.0288,-1.9828,-2.0557,-2.1455,-2.165,-2.1844,-2.2254,-2.3086,-2.2813,-2.2524,-2.2843,-2.3161,0.0,-2.2578,-2.3566,-2.4173,0.0,0.0,0.0,0.0,0.0,0.0,0.0,0.0,0.0,0.0,0.0,0.0,0.0,-2.5389,-2.4898,-2.4086,-2.4847,-2.4425,-2.2634,-2.3661,-2.4068,-2.3864,-2.4068,-2.4406,-2.4846,-2.5135,-2.5795,-2.6691,-2.6691,-2.6691,-2.6691,-2.6691,-2.6691,-2.6742,-2.7283,-2.8095,-2.9061,-2.9583,-3.063,-3.1807,-3.1807,-3.2196,-3.2681,-3.255,-3.2599,-3.2681,-3.2534,-3.2842,-3.3199,-3.3199,-3.3494,-3.3844,-3.41,-3.3972,-3.4302,-3.6285,-3.5679,-3.5096,-3.6795,-3.6486,-3.5917,-3.5917,-3.6776,-3.7419,-3.7199,-3.7144,-3.696,-3.6376,-3.5367,-3.4435,-3.3862,-3.3807,-3.3807,-3.3807,-3.3807,-3.3807,-3.3807,-3.3073,-3.2265,-3.1452,-3.0632,-2.9831,-2.9023,-2.9005,-2.9005,-2.9005,-2.9005,-2.9005,-2.9005,-2.9005,-2.9005,-2.8987,-2.8767,-2.8638,-1.9708,-1.9989,-2.0273,-2.0124,-2.0902,-2.1769,-2.2044,-2.2657,-2.3284,-2.3679,-2.3417,-2.3266,-2.3727,-2.3662,0.0,-2.2942,-2.3511,0.0,0.0,0.0,0.0,0.0,0.0,0.0,0.0,0.0,0.0,0.0,0.0,0.0,0.0,-2.4898,-2.4594,-2.4272,-2.4847,-2.4374,-2.275,-2.3613,-2.4068,-2.4068,-2.4355,-2.466,-2.4949,-2.5406,-2.5998,-2.6691,-2.6691,-2.6691,-2.6691,-2.6691,-2.686,-2.7182,-2.7621,-2.8466,-2.9482,-2.9939,-3.0835,-3.1807,-3.1807,-3.2109,-3.2467,-3.2281,-3.2213,-3.2196,-3.2039,-3.2417,-3.2921,-3.2921,-3.3582,-3.427,-3.427,-3.427,-3.4651,-3.6156,-3.5738,-3.5463,-3.7144,-3.7125,-3.667,-3.6358,-3.696,-3.729,-3.6615,-3.6505,-3.634,-3.5862,-3.5059,-3.4344,-3.3862,-3.3807,-3.3807,-3.3807,-3.3807,-3.3807,-3.3807,-3.3366,-3.2742,-3.1935,-3.1109,-3.032,-2.95,-2.917,-2.9005,-2.9005,-2.9005,-2.9005,-2.9005,-2.9005,-2.9005,-2.9005,-2.9005,-2.9005,-1.9708,-1.9708,-1.9872,-2.0524,-2.1201,-2.1874,-2.2553,-2.4053,-2.5257,-2.5166,-2.4751,-2.441,-2.4471,-2.3662,-2.3141,-2.3574,-2.3559,0.0,0.0,0.0,0.0,0.0,0.0,0.0,0.0,0.0,0.0,0.0,0.0,0.0,0.0,-2.3814,-2.4002,-2.5372,-2.4762,-2.4051,-2.3308,-2.3359,-2.3393,0.0,-2.422,-2.4949,-2.5592,-2.566,-2.6065,-2.6691,-2.6691,-2.6691,-2.6691,-2.6691,-2.7097,-2.7705,-2.7773,-2.8703,-3.0023,-3.0091,-3.0798,-3.1734,-3.1734,-3.2021,-3.2316,-3.1879,-3.1734,-3.1678,-3.1351,-3.1841,-3.2517,-3.255,-3.3689,-3.4912,-3.4986,-3.5004,-3.5023,-3.5096,-3.5133,-3.5573,-3.7254,-3.7621,-3.7401,-3.6652,-3.7125,-3.7144,-3.5591,-3.5224,-3.5078,-3.4912,-3.427,-3.3807,-3.3807,-3.3807,-3.3807,-3.3807,-3.3807,-3.3807,-3.3807,-3.3807,-3.3458,-3.2656,-3.1916,-3.1146,-3.0338,-2.9464,-2.9005,-2.9005,-2.9005,-2.9005,-2.9005,-2.9005,-2.9005,-2.9005,-2.9005,-2.9005,-1.9708,-1.9708,-1.9872,-2.0524,-2.1201,-2.1874,-2.2553,-2.361,-2.4228,-2.3431,-2.3871,-2.4532,-2.4953,-2.5185,-2.4968,-2.3979,0.0,0.0,0.0,0.0,0.0,0.0,0.0,0.0,0.0,0.0,0.0,0.0,0.0,0.0,-2.4423,-2.3814,-2.3545,-2.3849,-2.3714,-2.3274,-2.2533,-2.3105,-2.3393,0.0,-2.4729,-2.5456,-2.5625,-2.6201,-2.6539,-2.6691,-2.6691,-2.6691,-2.6691,-2.6691,-2.6793,-2.6996,-2.757,-2.8399,-2.9314,-2.9888,-3.0605,-3.1332,-3.1332,-3.1389,-3.1449,-3.1351,-3.1332,-3.137,-3.1603,-3.2057,-3.2583,-3.2952,-3.3531,-3.4197,-3.4839,-3.5004,-3.5169,-3.5862,-3.6028,-3.6468,-3.8083,-3.8432,-3.8395,-3.823,-3.8322,-3.834,-3.7973,-3.6872,-3.5569,-3.4266,-3.3917,-3.3807,-3.3807,-3.3807,-3.3807,-3.3807,-3.3807,-3.3807,-3.3807,-3.3807,-3.3458,-3.2656,-3.2436,-3.199,-3.1182,-2.9769,-2.9005,-2.9005,-2.9005,-2.9005,-2.9005,-2.9005,-2.9005,-2.9005,-2.9005,-2.9005,-1.9708,-1.9708,-1.9872,-2.0524,-2.1201,-2.1784,-2.2149,-2.2778,-2.3243,-2.3075,-2.4163,-2.5182,-2.5202,-2.5153,-2.4865,0.0,0.0,0.0,0.0,0.0,0.0,0.0,0.0,0.0,0.0,0.0,0.0,0.0,0.0,-2.268,-2.359,-2.3137,-2.3038,-2.3376,-2.3054,-2.2868,-2.2835,-2.3207,-2.3748,-2.4458,-2.5236,-2.5795,-2.6133,-2.6522,-2.6691,-2.6691,-2.6691,-2.6691,-2.6691,-2.6691,-2.6911,-2.7249,-2.7655,-2.8518,-2.9567,-2.9973,-3.0565,-3.119,-3.119,-3.119,-3.119,-3.119,-3.119,-3.1271,-3.1678,-3.1969,-3.2298,-3.3014,-3.3908,-3.4823,-3.5457,-3.5917,-3.6413,-3.7257,-3.7147,-3.7107,-3.7936,-3.8432,-3.8597,-3.8193,-3.812,-3.7991,-3.7624,-3.6853,-3.5734,-3.4045,-3.4137,-3.4247,-3.3844,-3.3807,-3.3807,-3.3807,-3.3807,-3.3807,-3.3807,-3.3807,-3.3623,-3.3201,-3.2803,-3.2399,-3.199,-3.0797,-2.9971,-2.9574,-2.9207,-2.9005,-2.9005,-2.9005,-2.9005,-2.9005,-2.9005,-2.9005,-1.9672,-1.9765,-2.0004,-2.0554,-2.1126,-2.153,-2.153,-2.1896,-2.2416,-2.2921,-2.4523,-2.5655,-2.5199,-2.471,-2.4279,0.0,0.0,0.0,0.0,0.0,0.0,0.0,0.0,0.0,0.0,0.0,0.0,0.0,0.0,-2.2314,-2.2608,-2.2425,-2.2649,-2.3376,-2.2818,-2.2852,-2.3579,-2.3594,-2.4137,-2.5221,-2.5221,-2.5676,-2.6505,-2.6505,-2.6573,-2.6691,-2.6691,-2.6691,-2.6691,-2.6691,-2.7131,-2.779,-2.7655,-2.8618,-3.0072,-2.9973,-3.0463,-3.119,-3.119,-3.119,-3.119,-3.119,-3.119,-3.1305,-3.1833,-3.1911,-3.2021,-3.3146,-3.4335,-3.5419,-3.617,-3.686,-3.7604,-3.849,-3.8193,-3.7713,-3.7713,-3.823,-3.8505,-3.7841,-3.7713,-3.7456,-3.6652,-3.6505,-3.5991,-3.4468,-3.4674,-3.4766,-3.41,-3.3899,-3.3807,-3.3807,-3.3807,-3.3807,-3.3807,-3.3807,-3.3807,-3.3807,-3.3183,-3.2803,-3.2803,-3.2027,-3.1292,-3.0632,-2.9812,-2.9409,-2.9409,-2.9409,-2.9335,-2.9207,-2.9207,-2.9133,-1.9566,-2.0124,-2.0583,-2.0673,-2.0763,-2.0823,-2.0823,-2.1507,-2.2021,-2.1657,-2.338,-2.4936,-2.4866,-2.5145,-2.4976,0.0,0.0,0.0,0.0,0.0,0.0,0.0,0.0,0.0,0.0,0.0,0.0,0.0,-2.1658,-2.1888,-2.2329,-2.2319,-2.2649,-2.3376,-2.3291,-2.3611,-2.4355,-2.4355,-2.4135,-2.368,-2.368,-2.4408,-2.5761,-2.5761,-2.6099,-2.6691,-2.6691,-2.6691,-2.6691,-2.6691,-2.7131,-2.7739,-2.7097,-2.818,-3.0023,-2.9382,-3.0025,-3.119,-3.119,-3.119,-3.119,-3.119,-3.119,-3.1407,-3.2524,-3.2344,-3.2175,-3.3988,-3.418,-3.43,-3.6166,-3.6732,-3.7138,-3.8394,-3.8615,-3.8542,-3.8542,-3.8615,-3.867,-3.856,-3.8542,-3.8285,-3.7474,-3.7345,-3.7033,-3.6101,-3.5408,-3.4968,-3.4857,-3.4215,-3.3807,-3.3807,-3.3807,-3.3807,-3.3807,-3.3807,-3.3807,-3.3807,-3.3697,-3.3642,-3.3642,-3.2871,-3.2381,-3.2271,-3.1494,-3.1085,-3.1085,-3.1085,-3.0723,-3.0044,-3.0044,-2.9666,-1.9548,-1.9932,-2.0139,-2.0139,-2.0139,-2.0212,-2.0421,-2.1003,-2.16,-2.2002,-2.3112,-2.4047,-2.4165,-2.4278,0.0,0.0,0.0,0.0,0.0,0.0,0.0,0.0,0.0,0.0,0.0,0.0,0.0,0.0,-2.126,-2.1354,-2.1554,-2.1796,-2.2063,-2.2378,-2.2651,-2.3139,-2.3881,-2.3881,-2.3932,-2.4017,-2.4441,-2.4983,-2.5609,-2.6031,-2.6387,-2.6691,-2.6691,-2.6691,-2.6691,-2.6691,-2.7131,-2.7773,-2.7435,-2.8467,-3.0074,-2.9736,-3.0294,-3.119,-3.119,-3.119,-3.119,-3.119,-3.119,-3.1339,-3.2145,-3.1951,-3.1826,-3.36,-3.4004,-3.4283,-3.5865,-3.6613,-3.7202,-3.8043,-3.8251,-3.8332,-3.8643,-3.8707,-3.8707,-3.8707,-3.8707,-3.8432,-3.7639,-3.7878,-3.7753,-3.6486,-3.6358,-3.6248,-3.5789,-3.4986,-3.4472,-3.4472,-3.4082,-3.3807,-3.3807,-3.3807,-3.3807,-3.3807,-3.3807,-3.3807,-3.3807,-3.3458,-3.3275,-3.3275,-3.2045,-3.1397,-3.1397,-3.1397,-3.1231,-3.087,-3.087,-3.0448,-1.9584,-1.9708,-1.9708,-1.9708,-1.9708,-1.9818,-2.021,-2.0666,-2.1263,0.0,-2.2713,-2.2988,-2.3127,-2.3198,0.0,0.0,0.0,0.0,0.0,0.0,0.0,0.0,0.0,0.0,0.0,0.0,0.0,0.0,-2.0829,-2.0878,-2.0991,-2.1384,-2.1696,-2.186,-2.2331,-2.2936,-2.3663,-2.3477,-2.3678,-2.422,-2.4594,-2.4966,-2.5338,-2.5879,-2.6352,-2.6691,-2.6691,-2.6691,-2.6691,-2.6691,-2.7266,-2.8077,-2.7874,-2.8855,-3.0362,-3.0176,-3.0565,-3.119,-3.119,-3.119,-3.119,-3.119,-3.119,-3.1303,-3.184,-3.1637,-3.1567,-3.3323,-3.3911,-3.4352,-3.5837,-3.6711,-3.7341,-3.7946,-3.8099,-3.8216,-3.8611,-3.8707,-3.8707,-3.8707,-3.8707,-3.8505,-3.7915,-3.8303,-3.8303,-3.7092,-3.7254,-3.729,-3.667,-3.5862,-3.5261,-3.5023,-3.4454,-3.4027,-3.3825,-3.3807,-3.3807,-3.3807,-3.3807,-3.3807,-3.3807,-3.3807,-3.3807,-3.3807,-3.2614,-3.2021,-3.2021,-3.2021,-3.1911,-3.1696,-3.1696,-3.1274,-1.969,-1.9708,-1.9708,-1.9708,-1.9708,-1.9818,-2.021,-2.0666,-2.1134,-2.157,-2.1678,-2.1709,-2.1712,-2.227,0.0,0.0,0.0,0.0,0.0,0.0,0.0,0.0,0.0,0.0,0.0,0.0,0.0,0.0,-2.0348,-2.0533,-2.0975,-2.1384,-2.1925,-2.2616,-2.3098,-2.3712,-2.444,-2.3763,-2.341,-2.3444,-2.2801,-2.3207,-2.4558,-2.4592,-2.5388,-2.6691,-2.6691,-2.6691,-2.6691,-2.6691,-2.7588,-2.8857,-2.8094,-2.9159,-3.1055,-3.0362,-3.0565,-3.119,-3.119,-3.119,-3.119,-3.119,-3.119,-3.1345,-3.2059,-3.1772,-3.165,-3.3825,-3.3961,-3.4025,-3.6503,-3.7174,-3.7451,-3.8417,-3.8658,-3.8676,-3.8692,-3.8707,-3.8707,-3.8707,-3.8707,-3.8689,-3.8652,-3.867,-3.867,-3.8597,-3.797,-3.7474,-3.7437,-3.6725,-3.5917,-3.5096,-3.4968,-3.4637,-3.3862,-3.3807,-3.3807,-3.3807,-3.3807,-3.3807,-3.3807,-3.3807,-3.3807,-3.3807,-3.3715,-3.3678,-3.3678,-3.3678,-3.3275,-3.2528,-3.2528,-3.2118,-1.9188,-1.9442,-1.9708,-1.9708,-1.9708,-1.9818,-2.021,-2.0433,-2.0748,-2.1444,-2.1384,-2.1213,-2.1213,-2.1439,0.0,0.0,0.0,0.0,0.0,0.0,0.0,0.0,0.0,0.0,0.0,0.0,0.0,0.0,0.0,-2.0089,-2.0533,-2.0959,-2.1342,-2.1601,-2.2313,-2.2818,-2.3088,-2.2835,-2.2699,-2.2699,-2.3376,-2.4,-2.4525,-2.5489,-2.62,-2.6691,-2.6691,-2.6691,-2.6691,-2.6691,-2.7622,-2.8976,-2.867,-2.9651,-3.1157,-3.0903,-3.097,-3.119,-3.119,-3.119,-3.119,-3.119,-3.119,-3.1241,-3.1495,-3.1752,-3.2175,-3.344,-3.4188,-3.4935,-3.6322,-3.6941,-3.7377,-3.8032,-3.8449,-3.8707,-3.8707,-3.8707,-3.8707,-3.8707,-3.8707,-3.8707,-3.8707,-3.8707,-3.8707,-3.8707,-3.845,-3.8267,-3.8267,-3.7584,-3.6758,-3.5917,-3.5844,-3.5275,-3.3917,-3.427,-3.4344,-3.3825,-3.3807,-3.3807,-3.3807,-3.3807,-3.3807,-3.3807,-3.3807,-3.3807,-3.3807,-3.3807,-3.3642,-3.3366,-3.3366,-3.2944,-1.8893,-1.9281,-1.9708,-1.9708,-1.9708,-1.9818,-2.021,-2.0297,-2.0516,-2.126,-2.1055,-2.078,-2.078,-2.0649,0.0,0.0,0.0,0.0,0.0,0.0,0.0,0.0,0.0,0.0,0.0,0.0,0.0,0.0,0.0,0.0,-2.0089,-2.0813,-2.1276,-2.1431,-2.2005,-2.2296,-2.2296,-2.2296,-2.2415,-2.2682,-2.3661,-2.4389,-2.4897,-2.5879,-2.6471,-2.6691,-2.6691,-2.6691,-2.6708,-2.6962,-2.7824,-2.9027,-2.9281,-3.0108,-3.119,-3.119,-3.119,-3.119,-3.119,-3.119,-3.119,-3.119,-3.119,-3.1241,-3.1478,-3.1921,-3.2513,-3.3491,-3.4375,-3.5283,-3.6391,-3.7173,-3.7791,-3.8082,-3.865,-3.9038,-3.8762,-3.8707,-3.8707,-3.8707,-3.8707,-3.8707,-3.8707,-3.8707,-3.8707,-3.8707,-3.8707,-3.8707,-3.8707,-3.823,-3.7588,-3.678,-3.6703,-3.6138,-3.4761,-3.4857,-3.4766,-3.4247,-3.3954,-3.3807,-3.3807,-3.3807,-3.3807,-3.3807,-3.3807,-3.3807,-3.3807,-3.3807,-3.3807,-3.3807,-3.3807,-3.3513,0.0,0.0,0.0,-1.9708,-1.9708,-1.98,-2.0177,0.0,-2.0416,-2.0878,-2.0616,-2.0297,-2.0297,-1.9982,0.0,0.0,0.0,0.0,0.0,0.0,0.0,0.0,0.0,0.0,0.0,0.0,0.0,0.0,-2.0089,-2.0158,-1.9747,-2.0927,-2.1809,-2.2282,-2.2296,-2.2296,-2.2296,-2.2313,-2.2699,-2.3393,-2.3444,-2.4205,-2.5592,-2.5625,-2.6031,-2.6691,-2.6691,-2.6708,-2.6793,-2.7503,-2.8298,-2.9111,-2.982,-3.0548,-3.119,-3.119,-3.119,-3.119,-3.119,-3.119,-3.119,-3.119,-3.119,-3.1326,-3.209,-3.2327,-3.2649,-3.4083,-3.4527,-3.4959,-3.673,-3.7929,-3.8692,-3.8692,-3.9294,-3.9643,-3.8872,-3.8707,-3.8707,-3.8707,-3.8707,-3.8707,-3.8707,-3.8707,-3.8707,-3.8707,-3.8707,-3.8707,-3.8707,-3.8707,-3.8395,-3.7584,-3.7529,-3.7199,-3.6358,-3.5555,-3.5059,-3.5041,-3.4307,-3.3862,-3.3862,-3.3844,-3.3844,-3.3844,-3.3807,-3.3807,-3.3807,-3.3807,-3.3807,-3.3807,-3.3807,-3.3807,-1.9022,0.0,0.0,0.0,0.0,0.0,0.0,0.0,-1.9997,-2.0414,-2.0399,-2.0297,-2.0297,-2.021,0.0,0.0,0.0,0.0,0.0,0.0,0.0,0.0,0.0,0.0,0.0,0.0,0.0,0.0,-2.055,-2.0764,-2.0664,-2.126,-2.1809,-2.2282,-2.2296,-2.2296,-2.2296,-2.2835,-2.319,-2.341,-2.4475,-2.522,-2.5625,-2.615,-2.6505,-2.6691,-2.6691,-2.6996,-2.7503,-2.7722,-2.8584,-2.982,-3.0023,-3.0548,-3.119,-3.119,-3.119,-3.119,-3.119,-3.119,-3.119,-3.119,-3.119,-3.1326,-3.209,-3.2662,-3.3288,-3.4235,-3.5164,-3.6094,-3.6967,-3.7667,-3.8115,-3.8115,-3.8597,-3.8964,-3.8762,-3.8707,-3.8707,-3.8707,-3.8707,-3.8707,-3.8707,-3.8707,-3.8707,-3.8707,-3.8707,-3.8707,-3.8707,-3.8707,-3.8395,-3.7584,-3.801,-3.7808,-3.6413,-3.6597,-3.656,-3.5973,-3.5734,-3.5605,-3.5605,-3.5,-3.4674,-3.4674,-3.41,-3.3807,-3.3807,-3.3807,-3.3807,-3.3807,-3.3807,-3.3807,-1.9839,-1.9759,-1.9834,-2.0053,0.0,0.0,-1.9639,-1.9708,-1.9764,0.0,-2.0052,-2.0052,-2.0052,-2.0052,0.0,0.0,0.0,0.0,0.0,0.0,0.0,0.0,0.0,0.0,0.0,-2.0297,-2.0297,-2.0297,-2.0894,-2.1338,-2.1539,-2.1583,-2.1809,-2.2282,-2.2296,-2.2448,-2.2767,-2.319,-2.3714,-2.4323,-2.5203,-2.5761,-2.6065,-2.6488,-2.6691,-2.6708,-2.7029,-2.7588,-2.8332,-2.8618,-2.9277,-3.0123,-3.0446,-3.0818,-3.119,-3.119,-3.119,-3.119,-3.119,-3.119,-3.1241,-3.1546,-3.1667,-3.1853,-3.2903,-3.3508,-3.4015,-3.4759,-3.5647,-3.6563,-3.7304,-3.7542,-3.7667,-3.7842,-3.8404,-3.8784,-3.8439,-3.8802,-3.9093,-3.8781,-3.8707,-3.8707,-3.8707,-3.8707,-3.8707,-3.8707,-3.8707,-3.8707,-3.8707,-3.8707,-3.8524,-3.8046,-3.8414,-3.8322,-3.7386,-3.7419,-3.7309,-3.6831,-3.6486,-3.6303,-3.6303,-3.5807,-3.5536,-3.5536,-3.5092,-3.4669,-3.4289,-3.3972,-3.3807,-3.3807,-3.3807,-3.3807,-2.1032,-2.0561,-2.0205,-2.0608,-1.9891,0.0,-1.9599,-1.9708,-1.9708,0.0,-1.9744,-1.9747,-1.9708,-1.9744,0.0,0.0,0.0,0.0,0.0,0.0,0.0,0.0,0.0,0.0,-2.0263,-2.0399,-2.0433,-2.0382,-2.1181,-2.1869,-2.2282,-2.1899,-2.1884,-2.2282,-2.2381,-2.275,-2.3393,-2.3562,-2.4306,-2.5592,-2.5677,-2.6065,-2.6691,-2.6691,-2.6691,-2.6725,-2.7384,-2.818,-2.9044,-2.9702,-3.0074,-3.0294,-3.0937,-3.119,-3.119,-3.119,-3.119,-3.119,-3.119,-3.119,-3.1309,-3.2056,-3.2293,-3.2581,-3.4049,-3.4489,-3.468,-3.5469,-3.6075,-3.6684,-3.7506,-3.747,-3.7285,-3.7649,-3.833,-3.8689,-3.7987,-3.8796,-3.947,-3.874,-3.8658,-3.8707,-3.8707,-3.8707,-3.8707,-3.8707,-3.8707,-3.8707,-3.8707,-3.8707,-3.8707,-3.8707,-3.8707,-3.8707,-3.8707,-3.8028,-3.7639,-3.7639,-3.6945,-3.656,-3.656,-3.6468,-3.6431,-3.6431,-3.634,-3.5881,-3.5004,-3.4192,-3.3807,-3.3807,-3.3807,-3.3807,-2.1823,-2.1451,-2.1248,0.0,0.0,0.0,-1.9809,-1.9708,-1.9708,0.0,-1.9947,-2.0072,-1.9764,-1.9965,0.0,0.0,0.0,0.0,0.0,0.0,0.0,0.0,0.0,0.0,-2.0297,-2.0927,-2.1212,-2.0894,-2.166,-2.2209,-2.2296,-2.2209,-2.2209,-2.2296,-2.2885,-2.3241,-2.3393,-2.4577,-2.5321,-2.5609,-2.6201,-2.6556,-2.6691,-2.6691,-2.6691,-2.6708,-2.6843,-2.7706,-2.901,-2.9162,-2.9905,-3.1004,-3.114,-3.119,-3.119,-3.119,-3.119,-3.119,-3.119,-3.119,-3.1309,-3.2056,-3.2293,-3.2581,-3.4049,-3.4489,-3.475,-3.5916,-3.6623,-3.6981,-3.6746,-3.696,-3.7097,-3.6766,-3.7126,-3.7537,-3.7377,-3.7828,-3.8246,-3.8101,-3.8399,-3.8707,-3.8707,-3.8707,-3.8707,-3.8707,-3.8707,-3.8707,-3.8707,-3.8707,-3.8707,-3.8707,-3.8707,-3.8707,-3.8707,-3.856,-3.8469,-3.8469,-3.8322,-3.823,-3.823,-3.7606,-3.7272,-3.7272,-3.6615,-3.5881,-3.5004,-3.4192,-3.3807,-3.3807,-3.3807,-3.3807,0.0,0.0,0.0,-2.1709,0.0,0.0,0.0,-2.0453,-2.0516,-1.9842,-2.0143,-2.0337,-1.9804,0.0,-1.9929,0.0,0.0,0.0,0.0,0.0,0.0,0.0,0.0,0.0,-2.06,-2.1039,-2.14,-2.163,-2.2049,-2.2296,-2.2296,-2.2296,-2.2465,-2.2835,-2.3207,-2.3748,-2.4492,-2.5236,-2.5795,-2.615,-2.6522,-2.6691,-2.6691,-2.6691,-2.6691,-2.6725,-2.752,-2.8299,-2.9061,-2.9788,-3.0531,-3.119,-3.119,-3.119,-3.119,-3.119,-3.119,-3.119,-3.119,-3.1427,-3.187,-3.2594,-3.3106,-3.3613,-3.4709,-3.5244,-3.5641,-3.6539,-3.6981,-3.7248,-3.7487,-3.7377,-3.7192,-3.7173,-3.7173,-3.7267,-3.7506,-3.7737,-3.8106,-3.8776,-3.9116,-3.9294,-3.9294,-3.9294,-3.9294,-3.9294,-3.8964,-3.8707,-3.8707,-3.8707,-3.8707,-3.8707,-3.8707,-3.8707,-3.8707,-3.8707,-3.8707,-3.8707,-3.8707,-3.8707,-3.8707,-3.8303,-3.8102,-3.8102,-3.7309,-3.6486,-3.5646,-3.4802,-3.4192,-3.3807,-3.3807,-3.3807,0.0,0.0,0.0,0.0,0.0,-2.1181,0.0,0.0,0.0,0.0,0.0,0.0,0.0,0.0,0.0,0.0,0.0,0.0,0.0,0.0,0.0,0.0,0.0,0.0,0.0,-2.0813,-2.1245,-2.2106,-2.218,-2.218,-2.218,-2.2403,-2.2784,-2.3376,-2.368,-2.4408,-2.5592,-2.5728,-2.6116,-2.6691,-2.6691,-2.6691,-2.6691,-2.6691,-2.6776,-2.6979,-2.823,-2.8942,-2.9314,-3.0497,-3.1072,-3.119,-3.119,-3.119,-3.119,-3.119,-3.119,-3.119,-3.119,-3.1684,-3.2429,-3.3169,-3.3998,-3.4827,-3.5414,-3.5968,-3.6519,-3.7057,-3.7284,-3.7578,-3.8516,-3.8181,-3.7682,-3.8115,-3.7934,-3.7729,-3.7989,-3.8133,-3.8491,-3.9455,-3.9847,-4.0055,-4.0125,-3.9992,-3.99,-3.99,-3.9221,-3.8707,-3.8707,-3.8707,-3.8707,-3.8707,-3.8707,-3.8707,-3.8707,-3.8707,-3.8707,-3.8707,-3.8707,-3.8707,-3.8707,-3.8707,-3.8707,-3.8707,-3.8046,-3.7272,-3.6303,-3.5591,-3.4747,-3.3807,-3.3807,-3.3807,0.0,0.0,0.0,0.0,-2.3005,0.0,0.0,0.0,-2.0946,-2.138,0.0,0.0,0.0,0.0,0.0,0.0,0.0,0.0,0.0,0.0,0.0,0.0,0.0,0.0,0.0,-2.0176,-2.0748,-2.1613,-2.1673,-2.1673,-2.1673,-2.2696,-2.3308,-2.3393,-2.4678,-2.5439,-2.5592,-2.6251,-2.6607,-2.6691,-2.6691,-2.6691,-2.6691,-2.6691,-2.7063,-2.7689,-2.7858,-2.8703,-2.9989,-3.0176,-3.0615,-3.119,-3.119,-3.119,-3.119,-3.119,-3.119,-3.119,-3.119,-3.1684,-3.2429,-3.3169,-3.4353,-3.5481,-3.5566,-3.5968,-3.6519,-3.7057,-3.7506,-3.8004,-3.8829,-3.8975,-3.896,-3.9321,-3.9382,-3.9186,-3.8716,-3.8986,-3.9204,-3.8821,-3.9714,-4.0601,-4.0908,-4.0377,-3.99,-3.99,-3.9221,-3.8707,-3.8707,-3.8707,-3.8707,-3.8707,-3.8707,-3.8707,-3.8707,-3.8707,-3.8707,-3.8707,-3.8707,-3.8707,-3.8707,-3.8707,-3.8707,-3.8707,-3.8615,-3.7826,-3.6303,-3.6193,-3.533,-3.3807,-3.3807,-3.3807,0.0,0.0,0.0,0.0,0.0,0.0,-2.3041,0.0,-2.2721,0.0,0.0,0.0,0.0,0.0,0.0,0.0,-1.9708,0.0,0.0,0.0,0.0,0.0,0.0,0.0,0.0,0.0,0.0,0.0,-2.1244,-2.1353,-2.1582,-2.2489,-2.3303,-2.4034,-2.505,-2.5812,-2.6234,-2.6539,-2.6691,-2.6691,-2.6691,-2.6691,-2.6708,-2.7148,-2.7503,-2.7858,-2.8753,-2.9497,-3.0123,-3.0565,-3.092,-3.119,-3.119,-3.119,-3.119,-3.119,-3.119,-3.1258,-3.1701,-3.2307,-3.3119,-3.4298,-3.5092,-3.56,-3.56,-3.5968,-3.6437,-3.6664,-3.7413,-3.8274,-3.8923,-3.9427,-3.986,-4.0347,-4.0238,-4.0017,-4.0073,-4.0017,-4.0104,-4.0647,-4.1194,-4.1524,-4.1359,-4.1014,-4.0778,-4.0778,-4.0381,-3.9918,-3.946,-3.9405,-3.9221,-3.8762,-3.8707,-3.8707,-3.8707,-3.8707,-3.8707,-3.8707,-3.8707,-3.8707,-3.8707,-3.8707,-3.8707,-3.8707,-3.8707,-3.8138,-3.6997,-3.6523,-3.5679,-3.4491,-3.4027,-3.3807,-2.732,0.0,0.0,0.0,0.0,0.0,0.0,0.0,0.0,0.0,0.0,0.0,0.0,0.0,0.0,0.0,0.0,-1.9899,0.0,0.0,0.0,0.0,0.0,0.0,0.0,0.0,0.0,-2.0797,-2.0813,-2.0943,-2.1228,-2.2391,-2.3419,-2.4303,-2.5357,-2.6167,-2.6691,-2.6691,-2.6691,-2.6691,-2.6691,-2.6691,-2.6725,-2.7452,-2.7925,-2.8196,-2.9533,-3.0226,-3.0446,-3.097,-3.119,-3.119,-3.119,-3.119,-3.119,-3.119,-3.119,-3.1309,-3.2039,-3.2936,-3.3914,-3.5177,-3.56,-3.56,-3.56,-3.5876,-3.6224,-3.6354,-3.7202,-3.8276,-3.901,-3.9877,-4.0709,-4.1374,-4.134,-4.1251,-4.1499,-4.1233,-4.1197,-4.2014,-4.2159,-4.2032,-4.1641,-4.1481,-4.1321,-4.1141,-4.096,-4.0707,-4.0288,-4.0029,-3.968,-3.9093,-3.8836,-3.8707,-3.8707,-3.8707,-3.8707,-3.8707,-3.8707,-3.8707,-3.8707,-3.8707,-3.8707,-3.8707,-3.8707,-3.8303,-3.7492,-3.6703,-3.5862,-3.4986,-3.416,-3.3807,0.0,0.0,0.0,-2.6746,0.0,0.0,0.0,0.0,-2.361,0.0,0.0,0.0,0.0,0.0,-2.1425,-2.0763,-2.0658,0.0,0.0,0.0,0.0,0.0,0.0,0.0,0.0,0.0,0.0,-2.0297,-2.0331,-2.0331,-2.0348,-2.2571,-2.3885,-2.3918,-2.5715,-2.6674,-2.6691,-2.6691,-2.6691,-2.6691,-2.6691,-2.6691,-2.6725,-2.7452,-2.823,-2.901,-2.977,-3.0514,-3.1157,-3.119,-3.119,-3.119,-3.119,-3.119,-3.119,-3.119,-3.119,-3.1309,-3.2039,-3.3258,-3.459,-3.5346,-3.56,-3.56,-3.56,-3.5622,-3.5739,-3.6249,-3.6932,-3.7826,-3.9161,-4.0402,-4.1574,-4.2442,-4.3032,-4.3248,-4.2773,-4.2639,-4.2447,-4.1923,-4.1817,-4.18,-4.1779,-4.1568,-4.1159,-4.0438,-4.0275,-4.0419,-4.0991,-4.0377,-3.9882,-3.9845,-3.9166,-3.8707,-3.8707,-3.8707,-3.8707,-3.8707,-3.8707,-3.8707,-3.8707,-3.8707,-3.8707,-3.8707,-3.8707,-3.8303,-3.7492,-3.6703,-3.5862,-3.4986,-3.416,-3.3807,0.0,0.0,-2.8203,-2.7979,0.0,0.0,0.0,0.0,0.0,0.0,0.0,0.0,0.0,0.0,-2.162,-2.1395,-2.0991,-2.0613,0.0,0.0,0.0,0.0,0.0,0.0,0.0,0.0,0.0,-1.9892,-2.0316,-2.0685,-2.0945,-2.2613,-2.3847,-2.4477,-2.5642,-2.6384,-2.6691,-2.7182,-2.7182,-2.6725,-2.7199,-2.7418,-2.7452,-2.823,-2.9008,-2.977,-3.0514,-3.097,-3.119,-3.119,-3.119,-3.119,-3.119,-3.1515,-3.1938,-3.1938,-3.1938,-3.2107,-3.3343,-3.4404,-3.5261,-3.5515,-3.56,-3.56,-3.56,-3.56,-3.5644,-3.581,-3.6422,-3.744,-3.9135,-4.0259,-4.1243,-4.2418,-4.2845,-4.2808,-4.2223,-4.242,-4.2635,-4.244,-4.2676,-4.2629,-4.1745,-4.1984,-4.2055,-4.1395,-4.1615,-4.172,-4.1343,-4.093,-4.0487,-3.9955,-3.9184,-3.8707,-3.8707,-3.8382,-3.8316,-3.8692,-3.8366,-3.8316,-3.8692,-3.8707,-3.8707,-3.8707,-3.8707,-3.8579,-3.8285,-3.6945,-3.6413,-3.6597,-3.4688,-3.3807,-3.0088,-2.9594,0.0,-2.8712,-2.8442,0.0,-2.6866,0.0,0.0,0.0,0.0,0.0,0.0,0.0,-2.2308,-2.2084,-2.168,-2.1335,0.0,-2.0677,0.0,0.0,0.0,0.0,0.0,0.0,-1.9813,-2.0034,-2.0468,-2.093,0.0,0.0,-2.3962,-2.456,-2.567,-2.6384,-2.6691,-2.7435,-2.7553,-2.7097,-2.7858,-2.823,-2.8264,-2.9025,-2.9651,-3.0142,-3.0886,-3.119,-3.119,-3.119,-3.119,-3.119,-3.119,-3.1667,-3.2293,-3.2293,-3.2632,-3.3224,-3.4167,-3.4979,-3.56,-3.56,-3.56,-3.56,-3.56,-3.56,-3.56,-3.56,-3.6383,-3.7472,-3.8673,-4.0042,-4.1316,-4.2177,-4.2539,-4.2596,-4.2203,-4.2262,-4.244,-4.2655,-4.2976,-4.2996,-4.2323,-4.2465,-4.241,-4.1543,-4.1734,-4.1959,-4.1861,-4.1251,-4.0673,-4.0361,-3.9606,-3.9019,-3.8726,-3.8382,-3.8316,-3.8692,-3.8382,-3.835,-3.8692,-3.8707,-3.8836,-3.9129,-3.8854,-3.8836,-3.9129,-3.7514,-3.6997,-3.7456,-3.5569,-3.4688]},{"header":{"parameterUnit":"m.s-1","parameterCategory":1,"la1":30.6,"la2":29.2853,"lo1":-89.7004,"lo2":-87.6739,"dy":0.0162,"dx":0.0183,"nx":112,"ny":82,"refTime":"2023-03-06T06:00:00:Z","depth":0,"parameterNumber":3,"parameterNumberName":"V-component_of_WINDS"},"data":[0.0,0.0,0.0,0.0,0.0,0.0,0.0,0.0,0.0,0.0,0.0,0.0,0.0,0.0,0.0,0.0,0.0,0.0,0.0,0.0,0.0,0.0,0.0,0.0,0.0,0.0,0.0,0.0,0.0,0.0,0.0,0.0,0.0,0.0,0.0,0.0,0.0,0.0,0.0,0.0,0.0,0.0,0.0,0.0,0.0,0.0,0.0,0.0,0.0,0.0,0.0,0.0,0.0,0.0,0.0,0.0,0.0,0.0,0.0,0.0,0.0,0.0,0.0,0.0,0.0,0.0,0.0,0.0,0.0,0.0,0.0,0.0,0.0,0.0,0.0,0.0,0.0,0.0,0.0,0.0,0.0,0.0,0.0,0.0,0.0,0.0,0.0,0.0,0.0,0.0,0.4946,0.3643,0.4328,0.5145,0.5834,0.6641,0.7565,0.8627,0.0,0.0,0.0,0.0,0.0,0.0,0.0,0.0,0.0,0.0,0.0,0.0,0.0,0.0,0.0,0.0,0.0,0.0,0.0,0.0,0.0,0.0,0.0,0.0,0.0,0.0,0.0,0.0,0.0,0.0,0.0,0.0,0.0,0.0,0.0,0.0,0.0,0.0,0.0,0.0,0.0,0.0,0.0,0.0,0.0,0.0,0.0,0.0,0.0,0.0,0.0,0.0,0.0,0.0,0.0,0.0,0.0,0.0,0.0,0.0,0.0,0.0,0.0,0.0,0.0,0.0,0.0,0.0,0.0,0.0,0.0,0.0,0.0,0.0,0.0,0.0,0.0,0.0,0.0,0.0,0.0,0.0,0.0,0.0,0.0,0.0,0.0,0.0,0.0,0.0,0.0,0.0,0.0,0.0,0.0,0.0,0.0,0.0,0.0,0.0,0.0,0.0,0.0,0.0,0.2953,0.4267,0.4599,0.5048,0.5826,0.608,0.691,0.859,0.0,0.0,0.0,0.0,0.0,0.0,0.0,0.0,0.0,0.0,0.0,0.0,0.0,0.0,0.0,0.0,0.0,0.0,0.0,0.0,0.0,0.0,0.0,0.0,0.0,0.0,0.0,0.0,0.0,0.0,0.0,0.0,0.0,0.0,0.0,0.0,0.0,0.0,0.0,0.0,0.0,0.0,0.0,0.0,0.0,0.0,0.0,0.0,0.0,0.0,0.0,0.0,0.0,0.0,0.0,0.0,0.0,0.0,0.0,0.0,0.0,0.0,0.0,0.0,0.0,0.0,0.0,0.0,0.0,0.0,0.0,0.0,0.0,0.0,0.0,0.0,0.0,0.0,0.0,0.0,0.0,0.0,0.0,0.0,0.0,0.0,0.0,0.0,0.0,0.0,0.0,0.0,0.0,0.0,0.0,0.0,0.0,0.0,0.0,0.0,0.0,0.0,0.0,0.4639,0.4336,0.4567,0.4625,0.5164,0.6433,0.6615,0.7419,0.9244,1.0138,0.0,0.0,0.0,0.0,0.0,0.0,0.0,0.0,0.0,0.0,0.0,0.0,0.0,0.0,0.0,0.0,0.0,0.0,0.0,0.0,0.0,0.0,0.0,0.0,0.0,0.0,0.0,0.0,0.0,0.0,0.0,0.0,0.0,0.0,0.0,0.0,0.0,0.0,0.0,0.0,0.0,0.0,0.0,0.0,0.0,0.0,0.0,0.0,0.0,0.0,0.0,0.0,0.0,0.0,0.0,0.0,0.0,0.0,0.0,0.0,0.0,0.0,0.0,0.0,0.0,0.0,0.0,0.0,0.0,0.0,0.0,0.0,0.0,0.0,0.0,0.0,0.0,0.0,0.0,0.0,0.0,0.0,0.0,0.0,0.0,0.0,0.0,0.0,0.0,0.0,0.0,0.0,0.0,0.0,0.0,0.0,0.0,0.0,0.0,0.0,0.0,0.0,0.5873,0.5482,0.4669,0.4555,0.5168,0.6694,0.686,0.7674,0.9497,1.0251,0.0,0.0,0.0,0.0,0.0,0.0,0.0,0.0,0.0,0.0,0.0,0.0,0.0,0.0,0.0,0.0,0.0,0.0,0.0,0.0,0.0,0.0,0.0,0.0,0.0,0.0,0.0,0.0,0.0,0.0,0.0,0.0,0.0,0.0,0.0,0.0,0.0,0.0,0.0,0.0,0.0,0.0,0.0,0.0,0.0,0.0,0.0,0.0,0.0,0.0,0.0,0.0,0.0,0.0,0.0,0.0,0.0,0.0,0.0,0.0,0.0,0.0,0.0,0.0,0.0,0.0,0.0,0.0,0.0,0.0,0.0,0.0,0.0,0.0,0.0,0.0,0.0,0.0,0.0,0.0,0.0,0.0,0.0,0.0,0.0,0.0,0.0,0.0,0.0,0.0,0.0,0.0,0.0,0.0,0.0,0.0,0.0,0.0,0.0,0.0,0.0,0.0,0.5825,0.4395,0.4499,0.4449,0.484,0.5888,0.5983,0.6786,0.866,0.8902,0.0,0.0,0.0,0.0,0.0,0.0,0.0,0.0,0.0,0.0,0.0,0.0,0.0,0.0,0.0,0.0,0.0,0.0,0.0,0.0,0.0,0.0,0.0,0.0,0.0,0.0,0.0,0.0,0.0,0.0,0.0,0.0,0.0,0.0,0.0,0.0,0.0,0.0,0.0,0.0,0.0,0.0,0.0,0.0,0.0,0.0,0.0,0.0,0.0,0.0,0.0,0.0,0.0,0.0,0.0,0.0,0.0,0.0,0.0,0.0,0.0,0.0,0.0,0.0,0.0,0.0,0.0,0.0,0.0,0.0,0.0,0.0,0.0,0.0,0.0,0.0,0.0,0.0,0.0,0.0,0.0,0.0,0.0,0.0,0.0,0.0,0.0,0.0,0.0,0.0,0.0,0.0,0.0,0.0,0.0,0.0,0.0,0.0,0.0,0.0,0.0,0.0,0.5843,0.4347,0.0,0.4718,0.5406,0.6317,0.6971,0.7897,0.9239,0.0,0.0,0.0,0.0,0.0,0.0,0.0,0.0,0.0,0.0,0.0,0.0,0.0,0.0,0.0,0.0,0.0,0.0,0.0,0.0,0.0,0.0,0.0,0.0,0.0,0.0,0.0,0.0,0.0,0.0,0.0,0.0,0.0,0.0,0.0,0.0,0.0,0.0,0.0,0.0,0.0,0.0,0.0,0.0,0.0,0.0,0.0,0.0,0.0,0.0,0.0,0.0,0.0,0.0,0.0,0.0,0.0,0.0,0.0,0.0,0.0,0.0,0.0,0.0,0.0,0.0,0.0,0.0,0.0,0.0,0.0,0.0,0.0,0.0,0.0,0.0,0.0,0.0,0.0,0.0,0.0,0.0,0.0,0.0,0.0,0.0,0.0,0.0,0.0,0.0,0.0,0.0,0.0,0.0,0.0,0.0,0.0,0.0,0.0,0.0,0.0,0.0,0.7076,0.5047,0.3788,0.0,0.4834,0.5732,0.6625,0.7517,0.8517,0.9622,0.0,0.0,0.0,0.0,0.0,0.0,0.0,0.0,0.0,0.0,0.0,0.0,0.0,0.0,0.0,0.0,0.0,0.0,0.0,0.0,0.0,0.0,0.0,0.0,0.0,0.0,0.0,0.0,0.0,0.0,0.0,0.0,0.0,0.0,0.0,0.0,0.0,0.0,0.0,0.0,0.0,0.0,0.0,0.0,0.0,0.0,0.0,0.0,0.0,0.0,0.0,0.0,0.0,0.0,0.0,0.0,0.0,0.0,0.0,0.0,0.0,0.0,0.0,0.0,0.0,0.0,0.0,0.0,0.0,0.0,0.0,0.0,0.0,0.0,0.0,0.0,0.0,0.0,0.0,0.0,0.0,0.0,0.0,0.0,0.0,0.0,0.0,0.0,0.0,0.0,0.0,0.0,0.0,0.0,0.0,0.0,0.0,0.0,0.0,0.0,0.0,0.0,0.5487,0.3288,0.2487,0.3786,0.4753,0.5691,0.6635,0.7333,0.828,0.0,0.0,0.0,0.0,0.0,0.0,0.0,0.0,0.0,0.0,0.0,0.0,0.0,0.0,0.0,0.0,0.0,0.0,0.0,0.0,0.0,0.0,0.0,0.0,0.0,0.0,0.0,0.0,0.0,0.0,0.0,0.0,0.0,0.0,0.0,0.0,0.0,0.0,0.0,0.0,0.0,0.0,0.0,0.0,0.0,0.0,0.0,0.0,0.0,0.0,0.0,0.0,0.0,0.0,0.0,0.0,0.0,0.0,0.0,0.0,0.0,0.0,0.0,0.0,0.0,0.0,0.0,0.0,0.0,0.0,0.0,0.0,0.0,0.0,0.0,0.0,0.0,0.0,0.0,0.0,0.0,0.0,0.0,0.0,0.0,0.0,0.0,0.0,0.0,0.0,0.0,0.0,0.0,0.0,0.0,0.0,0.0,0.0,0.0,0.0,0.0,0.0,0.0,0.5466,0.3283,0.2845,0.5068,0.5774,0.6382,0.713,0.8156,0.9215,1.0275,0.0,0.0,0.0,0.0,0.0,0.0,0.0,0.0,0.0,0.0,0.0,0.0,0.0,0.0,0.0,0.0,0.0,0.0,0.0,0.0,0.0,0.0,0.0,0.0,0.0,0.0,0.0,0.0,0.0,0.0,0.0,0.0,0.0,0.0,0.0,0.0,0.0,0.0,0.0,0.0,0.0,0.0,0.0,0.0,0.0,0.0,0.0,0.0,0.0,0.0,0.0,0.0,0.0,0.0,0.0,0.0,0.0,0.0,0.0,0.0,0.0,0.0,0.0,0.0,0.0,0.0,0.0,0.0,0.0,0.0,0.0,0.0,0.0,0.0,0.0,0.0,0.0,0.0,0.0,0.0,0.0,0.0,0.0,0.0,0.0,0.0,0.0,0.0,0.0,0.0,0.0,0.0,0.0,0.0,0.0,0.0,0.0,0.0,0.0,0.0,0.0,0.0,0.5575,0.3636,0.3414,0.5733,0.6334,0.679,0.7355,0.8436,0.9372,1.0033,0.0,0.0,0.0,0.0,0.0,0.0,0.0,0.0,0.0,0.0,0.0,0.0,0.0,0.0,0.0,0.0,0.0,0.0,0.0,0.0,0.0,0.0,0.0,0.0,0.0,0.0,0.0,0.0,0.0,0.0,0.0,0.0,0.0,0.0,0.0,0.0,0.0,0.0,0.0,0.0,0.0,0.0,0.0,0.0,0.0,0.0,0.0,0.0,0.0,0.0,0.0,0.0,0.0,0.0,0.0,0.0,0.0,0.0,0.0,0.0,0.0,0.0,0.0,0.0,0.0,0.0,0.0,0.0,0.0,0.0,0.0,0.0,0.0,0.0,0.0,0.0,0.0,0.0,0.0,0.0,0.0,0.0,0.0,0.0,0.0,0.0,0.0,0.0,0.0,0.0,0.0,0.0,0.0,0.0,0.0,0.0,0.0,0.0,0.0,0.0,0.0,0.0,0.5737,0.4349,0.4281,0.605,0.6562,0.6985,0.7445,0.8354,0.9048,0.9376,0.0,0.0,0.0,0.0,0.0,0.0,0.0,0.0,0.0,0.0,0.0,0.0,0.0,0.0,0.0,0.0,0.0,0.0,0.0,0.0,0.0,0.0,0.0,0.0,0.0,0.0,0.0,0.0,0.0,0.0,0.0,0.0,0.0,0.0,0.0,0.0,0.0,0.0,0.0,0.0,0.0,0.0,0.0,0.0,0.0,0.0,0.0,0.0,0.0,0.0,0.0,0.0,0.0,0.0,0.0,0.0,0.0,0.0,0.0,0.0,1.2877,0.0,0.0,0.0,0.0,0.0,0.0,0.0,0.0,0.0,0.0,0.0,0.0,0.0,0.0,0.0,0.0,0.0,0.0,0.0,0.0,0.0,0.0,0.0,0.0,0.0,0.0,0.0,0.0,0.0,0.0,0.0,0.0,0.0,0.0,0.0,0.0,0.0,0.0,0.0,0.0,0.0,0.5571,0.5625,0.623,0.7104,0.6962,0.7169,0.8103,0.862,0.9235,1.0037,0.981,0.0,0.0,0.0,0.0,0.0,0.0,0.0,0.0,0.0,0.0,0.0,0.0,0.0,0.0,0.0,0.0,0.0,0.0,0.0,0.0,0.0,0.0,0.0,0.0,0.0,0.0,0.0,0.0,0.0,0.0,0.0,0.0,0.0,0.0,0.0,0.0,0.0,0.0,0.0,0.0,0.0,0.0,0.0,0.0,0.0,0.0,0.0,0.0,0.0,0.0,0.0,0.0,0.0,0.0,0.0,0.0,0.0,0.0,0.0,0.0,1.2403,0.0,0.0,0.0,0.0,0.0,0.0,0.0,0.0,0.0,0.0,0.0,0.0,0.0,0.0,0.0,0.0,0.0,0.0,0.0,0.0,0.0,0.0,0.0,0.0,0.0,0.0,0.0,0.0,0.0,0.0,0.0,0.0,0.0,0.0,0.0,0.0,0.0,0.0,0.0,0.0,0.6182,0.6297,0.6757,0.7171,0.7076,0.7297,0.8054,0.8447,0.8934,0.9595,0.955,0.0,0.0,0.0,0.0,0.0,0.0,0.0,0.0,0.0,0.0,0.0,0.0,0.0,0.0,0.0,0.0,0.0,0.0,0.0,0.0,0.0,0.0,0.0,0.0,0.0,0.0,0.0,0.0,0.0,0.0,0.0,0.0,0.0,0.0,0.0,0.0,0.0,0.0,0.0,0.0,0.0,0.0,0.0,0.0,0.0,0.0,0.0,0.0,0.0,0.0,0.0,0.0,0.0,1.0727,1.0527,1.0414,1.0385,1.0002,0.942,0.9914,1.0091,1.0111,0.0,0.0,0.0,0.0,0.0,0.0,0.0,0.0,0.0,0.0,0.0,0.0,0.0,0.0,0.0,0.0,0.0,0.0,0.0,0.0,0.0,0.0,0.0,0.0,0.0,0.6007,0.6547,0.0,0.0,0.0,0.0,0.0,0.0,0.0,0.0,0.0,0.0,0.0,0.0,0.671,0.6444,0.6535,0.682,0.6999,0.7281,0.776,0.8106,0.8453,0.8835,0.9149,0.9371,0.0,0.0,0.0,0.0,0.0,0.0,0.0,0.0,0.0,0.0,0.0,0.0,0.0,0.0,0.0,0.0,0.0,0.0,0.0,0.0,0.0,0.0,0.0,0.0,0.0,0.0,0.0,0.0,0.0,0.0,0.0,0.0,1.1653,1.4239,0.0,0.0,0.0,0.0,0.0,0.0,0.0,0.0,0.0,0.0,0.0,0.0,0.0,1.1006,1.0755,1.0081,0.9725,0.9654,0.8866,0.8476,0.8464,0.8342,0.8241,0.8137,0.822,0.0,0.9762,0.9921,0.0,0.0,0.0,0.0,0.0,0.0,0.0,0.0,0.0,0.0,0.0,0.0,0.0,0.0,0.0,0.0,0.0,0.0,0.0,0.0,0.0,0.0,0.5744,0.5096,0.5087,0.5391,0.0,0.75,0.8975,1.0094,1.0515,0.0,0.0,0.0,0.0,0.0,0.0,0.0,0.6011,0.5835,0.5961,0.6574,0.6659,0.6986,0.7738,0.7846,0.8118,0.8683,0.888,0.9024,0.9156,0.9407,0.0,0.0,0.0,0.0,0.0,0.0,0.0,0.0,0.0,0.0,0.0,0.0,0.0,0.0,0.0,0.0,0.0,0.0,0.0,0.0,0.0,0.0,0.0,0.0,0.0,0.0,0.0,0.0,0.0,1.3855,1.3804,1.5098,1.4775,1.4606,0.0,0.0,0.0,0.0,0.0,0.0,0.0,0.0,0.0,1.0156,0.9974,0.9693,0.9283,0.9019,0.887,0.8836,0.8458,0.8205,0.8095,0.8044,0.7969,0.7914,0.8297,0.8765,0.925,0.925,0.9571,1.0128,0.0,0.0,0.0,0.0,0.9703,0.8964,0.8237,0.769,0.0,0.0,0.0,0.0,0.0,0.0,0.0,0.0,0.0,0.0,0.0,0.0,0.0,0.4788,0.4848,0.507,0.5605,0.6354,0.7214,0.0,0.8542,0.858,0.8409,0.0,0.0,0.0,0.0,0.5136,0.5422,0.5365,0.559,0.6294,0.6515,0.6794,0.7254,0.7606,0.791,0.8187,0.8599,0.8885,0.899,0.9277,0.7788,0.0,0.0,0.0,0.0,0.0,0.0,0.0,0.0,0.0,0.0,0.0,0.0,0.0,0.0,0.0,0.0,0.0,0.0,0.0,0.0,0.0,0.0,0.0,0.0,0.0,0.0,0.0,0.0,1.3814,1.5166,1.5189,1.3675,1.3255,0.0,0.0,0.0,0.0,0.0,0.0,1.0508,1.0089,0.9583,0.8956,0.8842,0.8573,0.8111,0.8253,0.8348,0.8409,0.8348,0.8247,0.8111,0.8248,0.8241,0.8192,0.8867,0.9152,0.9152,0.9152,0.9248,0.9422,0.9922,1.0031,0.989,0.9809,0.9113,0.8166,0.795,0.7367,0.6835,0.7487,0.0,0.7096,0.7428,0.0,0.0,0.0,0.0,0.497,0.4769,0.4579,0.4482,0.4649,0.4699,0.4851,0.5395,0.5658,0.6024,0.0,0.7014,0.6931,0.6674,0.0,0.0,0.0,0.0,0.4839,0.5093,0.5209,0.5513,0.6136,0.6549,0.683,0.6971,0.7476,0.7831,0.7922,0.8325,0.8735,0.9136,0.8741,0.6639,0.2655,0.0,0.0,0.0,0.0,0.0,0.0,0.0,0.0,0.0,0.0,0.0,0.0,0.0,0.0,0.0,0.0,0.0,0.0,0.0,0.0,0.0,0.0,0.0,0.0,0.0,0.0,0.0,0.0,0.0,1.2182,1.0901,0.0,0.0,0.0,0.0,1.1274,1.0999,1.0392,0.9434,0.9126,0.8665,0.7996,0.7959,0.8014,0.8095,0.8102,0.8205,0.8403,0.8198,0.8102,0.8119,0.8637,0.8853,0.889,0.9563,0.9854,0.9854,0.9854,0.9854,0.9869,0.9908,0.9908,0.9863,0.9545,0.8906,0.8157,0.7896,0.712,0.6393,0.7379,0.7224,0.6615,0.6505,0.5987,0.0,0.0,0.5529,0.5672,0.4972,0.4781,0.4712,0.448,0.4421,0.4428,0.4468,0.4974,0.5651,0.0,0.653,0.6451,0.6177,0.0,0.5762,0.5431,0.5265,0.5172,0.5193,0.5524,0.5876,0.6169,0.6848,0.7243,0.7196,0.7562,0.7942,0.8265,0.8011,0.8447,0.9796,0.7416,0.7178,0.9542,0.9536,0.0,0.0,0.0,0.0,0.0,0.0,0.0,0.0,0.0,0.0,0.0,0.0,0.0,0.0,0.0,0.0,0.0,0.0,0.0,0.0,0.0,0.0,0.0,0.0,0.0,0.0,0.0,0.0,1.1761,1.0887,0.0,1.2412,1.1495,1.0938,1.118,1.0272,0.9703,0.9688,0.96,0.9233,0.8567,0.8537,0.8357,0.7984,0.7969,0.7997,0.8075,0.8439,0.8606,0.8629,0.9036,0.9337,0.9552,0.9792,1.0019,1.0238,1.0442,1.0158,0.956,0.9346,0.926,0.9231,0.898,0.8538,0.804,0.7806,0.7402,0.7009,0.7249,0.6959,0.6482,0.6166,0.5587,0.5,0.496,0.4946,0.4873,0.4607,0.454,0.4562,0.4636,0.4655,0.4722,0.4938,0.5164,0.542,0.5681,0.577,0.5738,0.5613,0.5363,0.5147,0.5032,0.4976,0.503,0.5303,0.5457,0.5804,0.6513,0.6823,0.7031,0.719,0.7649,0.7979,0.8094,0.847,0.8929,0.9432,0.9035,0.8957,0.9317,0.7456,0.5865,0.0,0.0,0.0,0.0,0.0,0.0,0.0,0.0,0.0,0.0,0.0,0.0,0.0,0.0,0.0,0.0,0.0,0.0,0.0,0.0,0.0,0.0,0.0,0.0,0.0,0.0,1.1395,1.2268,1.0949,1.0668,1.2491,1.1261,1.0489,1.0803,0.9961,0.9567,0.9884,0.989,0.9689,0.9257,0.9242,0.9023,0.8581,0.8566,0.8519,0.8417,0.8861,0.9001,0.8912,0.937,0.9699,0.9913,1.0143,1.0353,1.0589,1.0696,1.026,0.9517,0.9305,0.9032,0.8728,0.8708,0.8329,0.7774,0.7349,0.7194,0.7107,0.662,0.6313,0.6074,0.5785,0.5276,0.4823,0.4947,0.4902,0.4843,0.4843,0.4843,0.4902,0.5195,0.5115,0.5082,0.5507,0.5514,0.5474,0.5574,0.5479,0.5317,0.5156,0.5035,0.4968,0.4968,0.4968,0.5101,0.5448,0.5662,0.6008,0.6628,0.7059,0.7304,0.7271,0.7819,0.8173,0.8173,0.8693,0.9184,0.958,0.9947,0.9632,0.8585,0.613,0.5748,0.7535,0.0,0.0,0.0,0.0,0.0,0.0,0.0,0.0,0.0,0.0,0.0,0.0,0.0,0.0,0.0,0.0,0.0,0.0,0.0,0.0,0.0,0.0,0.0,1.3025,1.1646,1.1349,1.3342,1.0858,0.9908,1.2336,1.1095,1.0141,1.0171,1.0149,1.0062,0.9959,0.995,0.995,0.992,0.992,0.992,0.989,0.9881,0.9714,0.9399,0.9413,0.9264,0.8951,0.9634,0.993,0.9969,1.0599,1.0887,1.0888,1.0547,1.0173,0.983,0.9878,0.9279,0.8451,0.8771,0.8298,0.7383,0.6523,0.648,0.6611,0.5566,0.5311,0.5406,0.5344,0.5097,0.4907,0.5246,0.5511,0.5708,0.5708,0.5708,0.5798,0.6122,0.5759,0.5497,0.6068,0.595,0.5812,0.6135,0.5732,0.5233,0.49,0.5117,0.532,0.532,0.532,0.0,0.5693,0.6176,0.6498,0.6528,0.7587,0.8053,0.7489,0.8098,0.8498,0.8499,0.8562,0.9144,1.0331,0.9912,0.9113,0.802,0.614,0.7909,1.3454,0.0,0.0,0.0,0.0,0.0,0.0,0.0,0.0,0.0,0.0,0.0,0.0,0.0,0.0,0.0,0.0,0.0,0.0,0.0,0.0,0.0,0.0,1.3405,1.2178,1.1156,1.0621,1.0912,1.0548,1.0741,1.1907,1.1157,1.1007,1.1981,1.1157,1.0807,1.1251,1.1281,1.1057,1.0568,1.0553,1.0344,0.9905,0.9668,0.9498,0.9399,0.9896,0.9943,0.9648,1.0324,1.0623,1.0613,1.0307,1.0534,1.1083,1.0753,1.0583,1.0456,0.9795,0.9202,0.8699,0.8786,0.8327,0.7562,0.7036,0.6727,0.6479,0.5891,0.5858,0.5992,0.5681,0.5702,0.5829,0.5927,0.6008,0.6068,0.6068,0.6068,0.6095,0.6176,0.6068,0.5994,0.6156,0.6129,0.6095,0.6176,0.6062,0.5927,0.5829,0.5894,0.5954,0.5954,0.5954,0.0,0.6122,0.6266,0.6618,0.7293,0.772,0.7996,0.8108,0.854,0.8671,0.8377,0.8599,0.9114,0.9919,1.0379,1.0441,1.0077,0.9456,1.0259,0.0,0.0,0.0,0.0,0.0,0.0,0.0,0.0,0.0,0.0,0.0,0.0,0.0,0.0,0.0,0.0,0.0,0.0,0.0,0.0,0.0,0.0,1.4324,1.3658,1.2773,1.1791,1.1259,1.1503,1.1595,1.179,1.2175,1.2119,1.2153,1.2355,1.191,1.1805,1.2205,1.2062,1.1995,1.2052,1.1704,1.132,1.0902,1.0545,1.0177,0.9816,1.0212,1.0219,0.9907,1.03,1.0472,0.0,1.0314,1.0528,1.0984,1.0804,1.0687,0.0,0.0,0.0,0.0,0.0,0.8618,0.8155,0.753,0.7161,0.6852,0.6234,0.6129,0.6219,0.5987,0.6037,0.6196,0.6196,0.6283,0.6377,0.6377,0.6377,0.6385,0.6512,0.6371,0.6256,0.6486,0.6445,0.6392,0.6512,0.0,0.0,0.6539,0.6357,0.6236,0.6357,0.6277,0.6261,0.6399,0.6466,0.6716,0.7264,0.7381,0.7589,0.7994,0.8251,0.0,0.0,0.0,0.9039,0.9561,1.021,0.0,0.0,0.0,1.0961,1.1574,0.0,0.0,0.0,1.102,1.1178,0.0,0.0,0.0,0.0,0.0,0.0,0.0,0.0,0.0,0.0,0.0,0.0,0.0,0.0,0.0,0.0,1.4589,1.4046,1.4445,1.3477,1.2997,1.3718,1.3271,1.2939,1.3014,1.3496,1.3334,1.2224,1.2624,1.2909,1.2909,0.0,0.0,0.0,0.0,1.2496,1.232,1.1873,1.1264,1.0502,1.0436,1.0223,0.9905,0.9931,0.9969,1.0018,1.0494,1.0741,1.0819,1.0869,1.0702,1.0387,1.0553,1.0155,0.9482,0.9072,0.8885,0.8721,0.7824,0.0,0.0,0.6507,0.6263,0.6297,0.633,0.6364,0.6384,0.635,0.6512,0.67,0.6647,0.664,0.6713,0.7001,0.67,0.6492,0.6986,0.6921,0.6807,0.7006,0.7053,0.704,0.7006,0.6593,0.6377,0.66,0.6439,0.6358,0.6579,0.6713,0.6793,0.6866,0.0,0.0,0.7515,0.7676,0.7896,0.8263,0.8603,0.8945,0.9315,0.9661,0.9968,1.0274,1.039,1.0483,1.0513,0.8123,0.5924,0.3979,0.6318,0.7584,0.0,0.0,0.0,0.0,0.0,0.0,0.0,0.0,0.0,0.0,0.0,0.0,0.0,0.0,0.0,1.6418,1.6494,1.6552,1.6954,1.6773,1.5918,1.4021,1.369,1.3825,1.4361,1.4049,1.3929,1.4212,1.384,1.3615,1.3615,1.3525,1.3445,1.3314,1.3141,1.2868,1.2471,1.1683,1.1216,1.1044,0.0,0.0,0.9918,1.0173,1.0392,1.0557,1.0643,1.1016,1.1507,1.1533,1.1251,1.0764,0.9733,0.9248,0.9055,0.8549,0.8149,0.7789,0.7175,0.6749,0.647,0.6503,0.6667,0.6901,0.7162,0.741,0.0,0.7303,0.7276,0.7263,0.7001,0.692,0.7014,0.733,0.7316,0.7337,0.7652,0.7686,0.7592,0.7437,0.7404,0.7323,0.704,0.6906,0.6853,0.6906,0.6873,0.6794,0.6633,0.6618,0.6803,0.7231,0.7304,0.7472,0.7868,0.7931,0.8025,0.8208,0.8536,0.8971,0.9507,0.9464,0.945,0.9509,0.9529,0.9499,0.9408,0.8888,0.7922,0.6572,0.7138,0.7607,0.0,0.0,0.0,0.0,0.0,0.0,0.0,0.0,0.0,0.0,0.0,1.5471,1.5532,0.0,1.629,1.7332,1.7437,1.7588,1.8119,1.7908,1.722,1.5905,1.5471,1.5262,1.529,1.5064,1.4874,1.4812,1.4325,1.417,1.4438,1.3756,1.3501,1.3839,1.3439,1.3065,1.2759,1.2125,1.1677,1.1394,1.1125,1.0914,1.0761,1.0928,1.0914,1.077,1.1064,1.124,1.1302,1.1345,1.1067,1.0589,0.9916,0.9648,0.9584,0.9041,0.8724,0.8433,0.7633,0.7304,0.7221,0.7085,0.7235,0.7486,0.7655,0.7802,0.7872,0.7742,0.7695,0.7662,0.7493,0.7453,0.7493,0.7662,0.7695,0.7742,0.7872,0.7905,0.7859,0.7729,0.7695,0.7649,0.7479,0.7348,0.7194,0.702,0.7,0.6946,0.682,0.6807,0.6902,0.7179,0.7077,0.7161,0.7567,0.7666,0.7719,0.7788,0.7948,0.8184,0.8496,0.8583,0.8644,0.8644,0.8876,0.8966,0.8894,0.8894,0.8461,0.7606,0.7644,0.7766,0.0,0.0,0.0,0.0,0.0,0.0,0.0,1.7917,1.7455,1.6705,1.6453,1.64,1.6509,1.6761,1.7228,1.8037,1.8033,1.8083,1.8514,1.8128,1.7745,1.7644,1.7198,1.6666,1.6069,1.6112,1.5872,1.511,1.4708,1.4681,1.5122,1.3915,1.357,1.436,1.3698,1.3245,1.3032,1.2618,1.219,1.1738,1.1653,1.1558,1.1454,1.1558,1.1308,1.0855,1.1345,1.1325,1.0928,1.088,1.063,1.0303,1.0303,1.0352,1.0332,0.9724,0.9517,0.9389,0.8338,0.8098,0.8155,0.7804,0.7809,0.8005,0.8059,0.8079,0.8065,0.8012,0.7992,0.7979,0.7919,0.7905,0.7919,0.7979,0.7992,0.8012,0.8065,0.8079,0.8059,0.8005,0.7992,0.7972,0.7919,0.7722,0.7477,0.7154,0.704,0.7,0.7,0.7,0.7,0.7,0.6814,0.6806,0.7137,0.7372,0.7505,0.7505,0.7505,0.7505,0.7505,0.7701,0.7804,0.7804,0.8178,0.837,0.837,0.837,0.8144,0.7725,0.7725,0.7762,1.8914,1.9291,1.964,2.0695,2.0129,1.9606,0.0,2.0505,1.9803,1.9076,1.8458,1.8045,1.8051,1.7978,1.8036,1.8308,1.8595,1.8631,1.8229,1.8096,1.7878,1.7408,1.7483,1.7371,1.6821,1.6795,1.6562,1.5989,1.5479,1.5205,1.5272,1.4674,1.421,1.397,1.3868,1.3609,1.3183,1.2671,1.2363,1.23,1.1842,1.1351,1.0915,1.1381,1.1331,1.0905,1.1028,1.1047,1.0964,1.0552,1.0341,1.0303,1.0303,1.0508,1.073,0.9825,0.9578,0.953,0.8592,0.8122,0.7994,0.8214,0.8322,0.8395,0.8631,0.8711,0.8657,0.8397,0.8348,0.8263,0.7979,0.7905,0.7972,0.8263,0.8348,0.8422,0.8657,0.8711,0.8631,0.8402,0.8348,0.8243,0.7952,0.7879,0.7776,0.7484,0.7194,0.7,0.7,0.7,0.7,0.7,0.6973,0.6974,0.7009,0.7527,0.7847,0.7847,0.7847,0.7847,0.7847,0.7376,0.712,0.712,0.7168,0.7189,0.7189,0.7189,0.7168,0.7105,0.7105,0.7112,1.9742,2.0396,2.0743,2.0216,2.0262,2.0435,2.0581,2.0393,2.0008,1.9471,1.914,1.8912,1.883,1.853,1.8367,1.8651,1.8541,1.8361,1.8145,1.7827,1.756,1.7329,1.7408,1.7234,1.6603,1.683,1.6913,1.6692,1.5973,1.5672,1.5975,1.5188,1.467,1.4503,1.4169,1.3927,1.3727,1.2869,1.2462,1.2445,1.1961,1.1605,1.1388,1.1605,1.1433,1.0966,1.0948,1.0935,1.0955,1.1021,1.1067,1.1067,1.1067,1.1289,1.1504,1.0308,0.9779,0.9601,0.8906,0.8443,0.821,0.8362,0.8516,0.8651,0.8771,0.8804,0.8784,0.8657,0.8624,0.8597,0.847,0.8418,0.847,0.8597,0.8624,0.8657,0.8784,0.8804,0.8771,0.8651,0.8624,0.8584,0.8464,0.8303,0.8143,0.804,0.7611,0.7221,0.702,0.7,0.7,0.7,0.7,0.7,0.7,0.7231,0.7384,0.7384,0.7384,0.7384,0.7384,0.7133,0.7,0.7,0.7,0.7,0.7,0.7,0.7,0.7,0.7,0.7,2.0548,2.1404,2.1919,2.0741,2.1127,2.1647,2.1062,2.0944,2.0753,2.0141,1.9805,1.9504,1.9132,1.8661,1.8299,1.8243,1.8034,1.7793,1.749,1.7099,1.6799,1.6656,1.6891,1.6773,1.5986,1.6664,1.7078,1.6955,1.6162,1.5863,1.6257,1.5408,1.4806,1.4651,1.4267,1.3982,1.3788,1.3028,1.2635,1.2617,1.228,1.2052,1.1938,1.1673,1.1493,1.1348,1.1024,1.0977,1.1113,1.1447,1.1606,1.1606,1.1606,1.1858,1.2056,1.0849,1.0221,0.9927,0.9439,0.8934,0.8516,0.8516,0.8637,0.8804,0.8804,0.8804,0.8804,0.8804,0.8804,0.8804,0.8804,0.8804,0.8804,0.8804,0.8804,0.8804,0.8804,0.8804,0.8804,0.8804,0.8804,0.8804,0.8804,0.8637,0.8496,0.8409,0.8027,0.7598,0.7194,0.7141,0.7174,0.7239,0.7253,0.7253,0.7253,0.7253,0.7253,0.7253,0.7253,0.7253,0.7253,0.7253,0.7213,0.7148,0.7141,0.708,0.7,0.7,0.7,0.7,0.7,0.7,2.114,2.1957,2.2851,2.3187,2.3306,2.3325,2.3291,2.3291,2.2969,2.1786,2.0815,1.9891,1.8909,1.8374,1.7767,1.6736,1.7003,1.6963,1.5924,1.5767,1.5552,1.503,1.5893,1.6114,0.0,1.6367,1.7092,1.6548,1.6015,1.5713,1.5713,1.5198,1.4631,1.4058,1.4014,1.3689,1.3041,1.2999,1.2978,1.2978,1.2978,1.2729,1.2246,1.1335,1.1417,1.2214,1.1304,1.1152,1.1587,1.1596,1.1606,1.1606,1.1606,1.1858,1.2134,1.1407,1.1011,1.0705,1.0295,0.9555,0.8791,0.8791,0.8798,0.8804,0.8804,0.8804,0.8804,0.8804,0.8804,0.8804,0.8804,0.8804,0.8804,0.8804,0.8804,0.8804,0.8804,0.8804,0.8804,0.8804,0.8804,0.8804,0.8804,0.8798,0.8697,0.8442,0.8382,0.8154,0.7551,0.7493,0.7591,0.7846,0.7879,0.7879,0.7879,0.7879,0.7879,0.7879,0.7879,0.7879,0.7879,0.7879,0.7739,0.7484,0.7493,0.733,0.7,0.7,0.7,0.7,0.7,0.7,2.1683,2.2493,2.3124,2.3352,2.3393,2.3393,2.3393,2.278,2.2016,2.134,2.0143,1.9027,1.8401,1.7309,1.6504,1.6493,1.6347,1.6227,1.6241,1.5919,1.5475,1.4902,1.5147,0.0,0.0,0.0,0.0,1.6036,1.5749,1.562,1.562,1.5085,1.4666,1.4481,1.4118,1.383,1.3605,1.2893,1.2552,1.252,1.2223,1.1998,1.1825,1.1514,1.1545,1.1835,1.1775,1.1843,1.2021,1.2338,1.2465,1.2465,1.2465,1.2553,1.2584,1.1853,1.1525,1.1365,1.0806,1.0099,0.9465,0.9465,0.9465,0.9387,0.8929,0.8804,0.8844,0.9011,0.9071,0.9111,0.9339,0.9385,0.9339,0.9111,0.9071,0.9011,0.8851,0.8804,0.8804,0.8804,0.8804,0.8804,0.8804,0.8804,0.8711,0.8442,0.821,0.8003,0.7802,0.7776,0.7792,0.7899,0.7905,0.7905,0.7905,0.7905,0.7905,0.7905,0.7905,0.7905,0.7905,0.7905,0.7859,0.7776,0.7204,0.7036,0.7337,0.6757,0.6647,0.7,0.7,0.7,2.1906,2.2916,2.3661,2.3651,2.3668,2.3618,2.3352,2.221,2.1005,2.0319,1.8929,1.7649,1.7033,1.5937,1.5246,1.5593,1.5344,1.5244,1.5553,1.5311,1.4926,1.4518,1.4477,1.4327,0.0,0.0,0.0,1.5393,1.5299,1.5276,1.5276,1.4903,1.4606,1.4376,1.4034,1.3769,1.3554,1.2853,1.2507,1.2507,1.2203,1.2054,1.2044,1.1897,1.1907,1.2064,1.2145,1.2301,1.2457,1.2788,1.2905,1.2881,1.2618,1.2666,1.2774,1.1807,1.1591,1.1699,1.104,1.0517,1.0115,0.9891,0.9896,0.9835,0.9146,0.9038,0.9158,0.9317,0.9371,0.9417,0.9633,0.9715,0.9633,0.9446,0.9371,0.9291,0.8998,0.8938,0.8904,0.8831,0.8804,0.8804,0.8804,0.8804,0.8744,0.8557,0.8363,0.8179,0.8079,0.809,0.8105,0.8212,0.8218,0.8218,0.8218,0.8218,0.8218,0.8218,0.8218,0.8218,0.8218,0.8218,0.8172,0.809,0.7533,0.7387,0.7651,0.7084,0.6944,0.7181,0.7181,0.7181,2.1841,2.3231,2.4393,2.4195,2.4143,2.3957,2.3263,2.1716,2.0106,1.8941,1.7429,1.5989,1.502,1.4446,1.411,1.4142,1.4111,1.4082,1.4038,1.4028,1.3999,1.3915,1.3916,1.3916,1.3895,0.0,0.0,1.4661,0.0,1.4663,1.4686,1.4651,1.4352,1.3768,1.3755,1.3481,1.2905,1.2905,1.2905,1.2905,1.2905,1.2905,1.2895,1.2428,1.249,1.2886,1.2418,1.25,1.2905,1.2905,1.2905,1.2832,1.2129,1.2286,1.2725,1.1359,1.1283,1.1751,1.1074,1.0838,1.0745,1.0087,1.0091,1.0184,0.9439,0.9424,0.9666,0.9699,0.9735,0.9735,0.9755,0.9755,0.9755,0.9735,0.9735,0.9626,0.9297,0.9237,0.9158,0.8905,0.8838,0.8831,0.8831,0.8818,0.8804,0.8804,0.8804,0.8704,0.8456,0.8422,0.8529,0.8778,0.8804,0.8804,0.8804,0.8804,0.8804,0.8804,0.8804,0.8804,0.8804,0.8804,0.8677,0.8429,0.8383,0.8212,0.7932,0.7888,0.7729,0.7511,0.7511,0.7511,2.2339,2.3239,2.3869,2.4726,2.4143,2.3327,2.3151,2.1331,1.9492,1.8849,1.7421,1.6139,1.5568,1.4722,1.4219,1.457,1.4285,1.4144,1.4469,1.4518,1.4351,1.388,1.4084,1.4104,1.3648,1.3993,0.0,0.0,1.4118,1.4153,1.4446,1.3762,1.3296,1.3128,1.3128,1.3065,1.2905,1.2905,1.2905,1.2905,1.2905,1.2905,1.2905,1.2773,1.2798,1.2895,1.2764,1.2783,1.2905,1.2905,1.2905,1.2881,1.2691,1.2715,1.2798,1.1882,1.199,1.252,1.1798,1.1541,1.1485,1.1057,1.0815,1.0514,0.9792,0.9472,0.9417,0.9886,1.0007,1.006,1.0311,1.0372,1.0311,1.006,1.0007,0.9927,0.9633,0.9573,0.9546,0.9472,0.9279,0.9098,0.9098,0.8924,0.8804,0.8804,0.8804,0.8784,0.8704,0.8697,0.8724,0.8798,0.8804,0.8804,0.8804,0.8804,0.8804,0.8804,0.8804,0.8804,0.8804,0.8804,0.8771,0.8697,0.8057,0.7917,0.8263,0.7613,0.7473,0.7792,0.7792,0.7792,2.2047,2.2924,2.3479,2.3622,2.2889,2.2003,2.1478,1.948,1.769,1.7435,1.6283,1.5334,1.5352,1.445,1.3865,1.436,1.3777,1.342,1.3893,1.3944,1.3877,1.3679,1.388,1.3937,1.3786,1.4264,1.4537,0.0,1.4116,1.4028,1.4272,1.3571,1.3154,1.3154,1.3003,1.2905,1.2905,1.2905,1.2905,1.2905,1.2905,1.2905,1.2905,1.2905,1.2905,1.2905,0.0,1.2905,1.2905,1.2905,1.2905,1.2881,1.2535,1.2608,1.2798,1.208,1.227,1.2876,1.2626,1.2321,1.1925,1.1292,1.1122,1.1001,0.9995,0.9746,0.9886,1.0214,1.0314,1.0347,1.0546,1.0593,1.0553,1.0347,1.0314,1.0234,0.994,0.9873,0.9833,0.9706,0.9552,0.9364,0.9231,0.9078,0.8931,0.8824,0.8804,0.8804,0.8804,0.8804,0.8804,0.8804,0.8804,0.8804,0.8804,0.8804,0.8804,0.8804,0.8804,0.8804,0.8804,0.8804,0.8804,0.8804,0.832,0.8242,0.8564,0.8081,0.7946,0.813,0.813,0.813,2.1562,2.2536,2.3131,2.2078,2.1288,2.0469,1.9349,1.7431,1.5861,1.5726,1.5011,1.4525,1.4928,1.4149,1.3611,1.4133,1.3185,1.2551,1.3036,1.3074,1.3158,1.3469,1.3603,1.3818,1.4153,1.4905,1.5233,1.489,1.4594,1.4358,1.4202,1.3792,1.3594,1.3594,1.3135,1.2935,1.2993,1.2935,1.2905,1.2905,1.2905,1.2905,1.2905,1.2905,1.2905,1.2905,0.0,0.0,1.2905,1.2905,1.2905,1.2847,1.2187,1.2372,1.291,1.2262,1.2457,1.3096,1.3339,1.2954,1.2237,1.1309,1.1263,1.1359,1.0168,1.0157,1.0539,1.0579,1.0593,1.0593,1.0593,1.0593,1.0593,1.0593,1.0593,1.0519,1.0234,1.0174,1.01,0.9876,0.9796,0.9659,0.9371,0.9264,0.9124,0.8898,0.8831,0.8804,0.8804,0.8804,0.8804,0.8804,0.8804,0.8804,0.8804,0.8804,0.8804,0.8804,0.8804,0.8804,0.8804,0.8804,0.8804,0.8804,0.8804,0.8804,0.8804,0.8804,0.8677,0.8456,0.8456,0.8456,2.2128,2.2498,2.2696,2.2487,2.1255,1.9899,1.9246,1.7942,1.6644,1.5875,1.5811,1.5853,1.561,1.5047,1.4752,1.5246,1.3958,1.306,1.3586,1.3527,1.3431,1.3486,1.4131,1.459,1.4668,1.5644,0.0,0.0,1.5796,1.5678,1.4715,1.4231,1.3997,1.3997,1.3281,1.3071,1.3389,1.3081,1.2905,1.2905,1.2905,1.2905,1.2905,1.2905,1.2905,1.2905,1.2905,0.0,1.2905,1.2905,1.2905,1.2881,1.2774,1.2987,1.3373,1.3262,1.3501,1.382,1.3211,1.2905,1.2723,1.2279,1.1557,1.0804,1.053,1.0307,1.0247,1.0519,1.0593,1.0593,1.0593,1.0593,1.0593,1.0593,1.0593,1.0579,1.0526,1.0512,1.0499,1.0445,1.0214,0.9997,0.9943,0.9531,0.9191,0.9144,0.8938,0.8804,0.8804,0.8804,0.8804,0.8804,0.8804,0.8804,0.8804,0.8804,0.8804,0.8804,0.8804,0.8804,0.8804,0.8804,0.8804,0.8804,0.8804,0.8804,0.8804,0.8804,0.8784,0.8731,0.8731,0.8731,2.2208,2.2666,2.275,2.1837,2.0753,1.9651,1.8481,1.7244,1.6238,1.5802,1.5839,1.6013,1.6111,1.5668,1.5372,1.5578,1.4446,1.3588,1.3782,1.3484,1.3522,1.4287,1.4745,1.5202,1.5652,1.6514,1.6613,1.5497,1.6093,1.6087,1.5146,1.4465,1.4007,1.3792,1.3203,1.3003,1.3184,1.3013,1.2905,1.2905,1.2905,1.2905,1.2905,1.2905,1.2905,1.2905,1.2905,0.0,1.2905,1.2905,1.2905,1.2925,1.3125,1.333,1.3535,1.3724,1.3938,1.4026,1.347,1.2974,1.2589,1.2214,1.1554,1.0843,1.0448,1.0341,1.0408,1.0734,1.0814,1.0814,1.0814,1.0814,1.078,1.0626,1.0593,1.0593,1.0593,1.0593,1.0593,1.0593,1.0479,1.0294,1.014,0.976,0.9391,0.9237,0.8964,0.8804,0.8804,0.8804,0.8804,0.8804,0.8804,0.8804,0.8804,0.8804,0.8804,0.8804,0.8804,0.8804,0.8804,0.8804,0.8804,0.8804,0.8804,0.8804,0.8804,0.8804,0.8804,0.8804,0.8804,0.8804,2.2159,2.2598,2.2585,2.1218,2.0245,1.9246,1.7738,1.6619,1.5831,1.5718,1.5781,1.6007,1.6412,1.607,1.5711,1.578,1.4881,1.4136,1.4002,1.3818,1.3997,1.4852,1.5416,1.5855,1.6221,1.7079,0.0,1.5719,1.6179,0.0,1.5439,1.466,1.4121,1.3789,1.3281,1.3042,1.3042,1.2954,1.2905,1.2905,1.2905,1.2905,1.2905,1.2905,1.2905,1.2905,1.2905,0.0,0.0,1.2905,1.2954,1.3071,1.3379,1.3613,1.3818,1.4124,1.4191,1.406,1.3616,1.294,1.2192,1.1697,1.1294,1.0879,1.036,1.0374,1.064,1.0868,1.0902,1.0902,1.0902,1.0902,1.0894,1.0727,1.064,1.0613,1.0673,1.0633,1.0593,1.0593,1.0593,1.0519,1.0254,0.9967,0.9699,0.9437,0.9098,0.8871,0.8871,0.8844,0.8804,0.8804,0.8804,0.8804,0.8804,0.8804,0.8804,0.8804,0.8804,0.8804,0.8804,0.8804,0.8804,0.8804,0.8804,0.8804,0.8804,0.8804,0.8804,0.8804,0.8804,0.8804,2.2159,2.2002,2.1627,2.1471,1.9888,1.821,1.7536,1.6898,1.6287,1.5806,1.6095,1.6437,1.6488,1.607,1.5848,1.6336,1.5469,1.4691,1.4631,1.5365,1.5477,1.4351,1.6067,1.6871,1.5623,1.6771,1.7274,1.6454,1.6454,0.0,1.5439,1.498,1.4707,1.4668,1.3877,1.3447,1.3447,1.3066,1.2905,1.2905,1.2905,1.2905,1.2905,1.2905,1.2905,1.2905,1.2905,0.0,0.0,1.2905,1.313,1.3457,1.3496,1.3984,1.4678,1.4707,1.4497,1.4075,1.3305,1.2525,1.1735,1.0944,1.0692,1.064,1.0584,1.0573,1.06,1.0626,1.0633,1.0633,1.0633,1.0633,1.0693,1.0895,1.0787,1.0667,1.0895,1.078,1.0593,1.0593,1.0593,1.0586,1.0553,1.0274,1.0037,1.001,0.9531,0.9171,0.9171,0.8944,0.8804,0.8804,0.8804,0.8804,0.8804,0.8804,0.8804,0.8804,0.8804,0.8804,0.8804,0.8804,0.8804,0.8804,0.8804,0.8804,0.8804,0.8804,0.8804,0.8804,0.8804,0.8804,2.1194,2.1405,2.1405,2.1106,1.9836,1.8531,1.8003,1.7174,1.6437,1.6233,1.6337,1.65,1.65,1.6333,1.6131,1.5971,1.5313,1.4793,1.4699,1.4764,1.4942,1.5316,1.6188,1.6557,0.0,0.0,1.6613,1.5892,0.0,0.0,1.541,1.501,1.4668,1.4404,1.3818,1.3389,1.3135,1.2993,1.2905,1.2905,1.2905,1.2905,1.2905,1.2905,1.2905,1.2905,1.2905,0.0,0.0,1.2905,1.315,1.3525,1.3763,1.4258,1.4758,1.4544,1.4343,1.4025,1.2718,1.2081,1.1685,1.1044,1.0734,1.0626,1.0801,1.0727,1.0667,1.0982,1.1082,1.1082,1.1082,1.1082,1.1109,1.1229,1.1169,1.1109,1.1229,1.1022,1.0854,1.0854,1.0713,1.0593,1.0593,1.0314,1.0083,1.0083,0.9766,0.9506,0.9506,0.9406,0.9265,0.9058,0.8884,0.8804,0.8804,0.8804,0.8804,0.8804,0.8804,0.8804,0.8804,0.8804,0.8804,0.8804,0.8804,0.8804,0.8804,0.8804,0.8804,0.8804,0.8804,0.8804,2.0239,2.0577,2.0702,2.0503,1.9472,1.8442,1.8053,1.7212,1.65,1.65,1.65,1.65,1.65,1.65,1.6358,1.5942,1.5552,1.5217,1.4993,1.4766,1.4971,1.5829,1.6123,1.6358,1.656,1.6736,1.6425,1.5468,0.0,0.0,1.541,1.501,1.458,1.4114,1.3695,1.3311,1.2905,1.2905,1.2905,1.2905,1.2905,1.2905,1.2905,1.2905,1.2905,1.2905,0.0,0.0,0.0,1.3042,1.3311,1.3714,1.4133,1.4452,1.4592,1.4311,1.3906,1.3326,1.2197,1.1648,1.1387,1.0982,1.076,1.066,1.1009,1.0915,1.0807,1.1182,1.1329,1.1389,1.1389,1.1389,1.1415,1.1536,1.1455,1.1415,1.1536,1.1323,1.1096,1.1009,1.0861,1.0693,1.0606,1.0388,1.0247,1.0247,1.0,0.9813,0.9813,0.974,0.9599,0.9364,0.9084,0.8871,0.8818,0.8804,0.8804,0.8804,0.8804,0.8804,0.8804,0.8804,0.8804,0.8804,0.8804,0.8804,0.8804,0.8804,0.8804,0.8804,0.8804,0.8804,1.9522,1.9447,1.9146,1.9685,1.8593,1.7423,1.741,1.6936,1.65,1.65,1.65,1.65,1.65,1.65,1.65,1.65,1.6488,1.6281,1.5676,1.605,1.6115,1.5391,1.5959,1.6491,1.6781,1.7288,1.6996,1.5517,0.0,0.0,1.5439,1.501,1.458,1.4114,1.3695,1.3311,1.2905,1.2905,1.2905,1.2905,1.2905,1.2905,1.2905,1.2905,1.2905,0.0,0.0,0.0,0.0,1.333,1.3724,1.4143,1.4609,1.4563,1.4204,1.4213,1.3205,1.1834,1.1803,1.1288,1.0624,1.06,1.0593,1.07,1.1243,1.1223,1.0989,1.0995,1.1209,1.1389,1.1389,1.1389,1.1462,1.1832,1.1637,1.151,1.1839,1.163,1.1336,1.1049,1.0989,1.0895,1.064,1.0586,1.0586,1.0586,1.0301,1.0114,1.0114,0.986,0.9715,0.9708,0.9384,0.9091,0.8831,0.8804,0.8804,0.8804,0.8804,0.8804,0.8804,0.8804,0.8804,0.8804,0.8804,0.8804,0.8804,0.8804,0.8804,0.8804,0.8804,0.8804,1.7976,1.8028,1.8041,1.8581,1.8041,1.741,1.741,1.6936,1.65,1.65,1.65,1.65,1.65,1.65,1.6358,1.5964,1.5886,1.5666,1.5062,1.5131,1.5415,1.5863,1.6236,1.6492,0.0,0.0,1.6112,0.0,0.0,0.0,1.541,1.4699,1.425,1.4114,1.3695,1.3311,1.2905,1.3164,1.3164,1.2905,1.3174,1.3164,1.2905,1.2905,0.0,0.0,0.0,0.0,0.0,1.2356,1.2556,1.3405,1.3219,1.3122,1.3054,1.269,1.2228,1.171,1.1163,1.08,1.0626,1.0821,1.0754,1.07,1.1249,1.1223,1.1076,1.1511,1.1692,1.1777,1.1977,1.2024,1.2044,1.2144,1.2091,1.2051,1.2144,1.1937,1.1739,1.1645,1.143,1.1263,1.1169,1.0982,1.0855,1.0855,1.064,1.0452,1.0452,1.0372,1.0238,1.0,0.9864,0.9719,0.9432,0.9191,0.9078,0.9078,0.9078,0.8984,0.8818,0.8804,0.8804,0.8804,0.8804,0.8804,0.8804,0.8804,0.8804,0.8804,0.8804,0.8804,1.7184,1.7225,1.7187,1.7752,1.7476,1.7049,1.7049,1.6773,1.65,1.65,1.65,1.65,1.65,1.65,1.638,1.6008,1.593,1.581,1.5421,1.5175,1.5268,1.5856,1.6823,0.0,0.0,1.6254,0.0,0.0,0.0,0.0,1.5186,1.4668,1.4202,1.388,1.3486,1.3223,1.3125,1.3213,1.3213,1.3125,1.3223,1.3135,1.2905,1.2905,0.0,0.0,0.0,0.0,0.0,1.2246,1.2195,1.2655,1.2618,1.25,1.2248,1.1913,1.1624,1.1279,1.0905,1.068,1.064,1.0902,1.0901,1.0847,1.1283,1.1376,1.1423,1.194,1.2067,1.2078,1.2258,1.2305,1.2305,1.2305,1.2305,1.2305,1.2305,1.2164,1.2033,1.1926,1.1724,1.1557,1.1409,1.1276,1.1122,1.1009,1.0929,1.0881,1.0767,1.0754,1.0687,1.0468,1.0247,1.0087,1.005,0.9639,0.9377,0.9377,0.9277,0.9131,0.8951,0.8864,0.8804,0.8804,0.8804,0.8804,0.8804,0.8804,0.8804,0.8804,0.8804,0.8804,0.0,1.6873,1.6597,1.7197,1.6911,1.65,1.65,1.65,0.0,1.65,1.65,1.65,1.65,1.65,1.65,1.65,1.65,1.6466,1.638,1.5959,1.5635,0.0,1.7531,0.0,1.616,1.6852,0.0,0.0,0.0,0.0,1.4844,1.4775,1.4375,1.3574,1.3115,1.3066,1.3457,1.313,1.3105,1.3457,1.3096,1.2935,1.2905,1.2935,0.0,0.0,0.0,0.0,0.0,1.2761,1.2453,1.2002,1.2609,1.2373,1.1673,1.1703,1.1226,1.0633,1.0901,1.0821,1.0633,1.0875,1.0975,1.1049,1.1302,1.163,1.1966,1.2218,1.2305,1.2305,1.2305,1.2305,1.2305,1.2305,1.2305,1.2305,1.2305,1.2305,1.2225,1.1986,1.194,1.181,1.1536,1.1435,1.1363,1.1096,1.1269,1.1295,1.1056,1.1009,1.0995,1.0995,1.0488,1.0261,1.0566,1.007,0.9713,0.9713,0.9424,0.9264,0.9244,0.8984,0.8871,0.8871,0.8871,0.8858,0.8838,0.8838,0.8838,0.8838,0.8818,0.8804,1.6131,0.0,1.6019,1.6563,1.66,1.65,0.0,1.65,1.65,1.65,1.65,1.65,1.65,1.65,1.65,1.65,1.65,1.6173,1.5242,1.5739,1.6181,1.6047,1.7159,1.7588,1.6674,1.6172,0.0,0.0,0.0,1.5371,1.5264,1.4639,1.4172,1.3968,1.3271,1.2954,1.3027,1.3252,1.3252,1.3027,1.3252,1.3193,1.2915,1.3213,0.0,0.0,0.0,0.0,1.4125,1.2397,1.1977,1.2352,1.1507,1.0905,1.0547,1.0781,1.0776,1.06,1.0673,1.0646,1.06,1.0673,1.0847,1.1049,1.1302,1.163,1.1966,1.2218,1.2305,1.2305,1.2305,1.2305,1.2305,1.2305,1.2305,1.2305,1.2305,1.2305,1.2278,1.2211,1.2204,1.2178,1.2111,1.1911,1.1779,1.1705,1.1523,1.1369,1.1295,1.1129,1.0995,1.0995,1.07,1.0512,1.0586,1.0227,1.0013,1.0013,0.9917,0.9813,0.9586,0.9512,0.9479,0.9479,0.9479,0.9365,0.9111,0.9111,0.9111,0.9104,0.8884,0.8804,1.5774,1.5881,1.6145,1.6425,1.65,1.65,1.65,1.65,1.65,1.65,1.65,1.65,1.65,1.65,1.65,1.65,1.65,1.6259,1.5611,1.6302,1.6931,1.7096,1.7487,1.7596,0.0,0.0,0.0,0.0,0.0,1.5322,1.5127,1.4835,1.4513,1.4114,1.3665,1.3359,1.3174,1.3203,1.3203,1.3174,1.3203,1.3105,1.2915,1.314,1.3428,0.0,0.0,0.0,1.3684,1.2339,1.1671,1.1391,1.0809,1.0492,1.0341,1.0533,1.0593,1.0613,1.0747,1.0842,1.0955,1.0955,1.1062,1.1243,1.1543,1.1779,1.1966,1.2218,1.2305,1.2305,1.2305,1.2305,1.2305,1.2305,1.2305,1.2305,1.2305,1.2305,1.2305,1.2305,1.2305,1.2305,1.2305,1.2171,1.2024,1.1926,1.1844,1.1784,1.165,1.149,1.1396,1.1396,1.1048,1.0787,1.0787,1.0488,1.0321,1.0321,1.0194,1.0047,0.9886,0.9753,0.9715,0.9715,0.9715,0.9606,0.9417,0.9417,0.9417,0.9439,0.9118,0.8978,1.5693,1.6158,1.6613,1.6525,1.65,1.65,1.65,1.65,1.65,1.65,1.65,1.65,1.65,1.65,1.65,1.65,1.6498,0.0,1.6829,1.7154,1.7534,1.8087,1.7889,0.0,0.0,0.0,0.0,0.0,0.0,1.5254,1.4902,1.5156,1.4923,1.4133,1.4046,1.3812,1.3418,1.3057,1.3057,1.3408,1.3047,1.2905,1.2905,1.2949,1.3359,0.0,0.0,0.0,1.2743,1.2421,1.1548,1.0384,1.0555,1.0593,1.0593,1.0593,1.0681,1.0817,1.1077,1.1249,1.1335,1.1375,1.1389,1.1449,1.1819,1.1906,1.1966,1.2218,1.2305,1.2305,1.2305,1.2305,1.2305,1.2305,1.2305,1.2305,1.2305,1.2338,1.2358,1.2311,1.2338,1.2351,1.2311,1.2305,1.2218,1.2013,1.2144,1.2211,1.2,1.1933,1.1906,1.1906,1.1343,1.0995,1.0995,1.076,1.0593,1.0593,1.0321,1.018,1.018,0.9947,0.9829,0.9753,0.9822,0.9829,0.9746,0.9746,0.9746,0.974,0.9371,0.9211,1.5693,1.6446,1.7137,1.6635,1.65,1.65,1.65,1.65,1.65,1.65,1.65,1.65,1.65,1.65,1.65,1.65,1.6453,1.6926,0.0,0.0,1.7282,1.7887,0.0,0.0,0.0,0.0,0.0,0.0,0.0,1.5381,1.5322,1.5039,1.4648,1.4124,1.3763,1.3398,1.3013,1.2935,1.2935,1.3003,1.2935,1.2905,1.2915,1.3252,1.3477,0.0,0.0,1.3519,1.3367,1.2305,1.1759,1.1489,1.085,1.0593,1.0593,1.0593,1.1045,1.1637,1.1921,1.1593,1.1102,1.1349,1.1389,1.1449,1.1819,1.1906,1.1966,1.2218,1.2305,1.2305,1.2305,1.2305,1.2305,1.2305,1.2305,1.2305,1.2305,1.2536,1.2643,1.2351,1.2543,1.2636,1.2345,1.2305,1.2285,1.2238,1.2271,1.2285,1.2238,1.206,1.1906,1.1906,1.1343,1.0995,1.0995,1.076,1.0593,1.0593,1.0546,1.0526,1.0526,1.0479,1.0338,1.0053,1.0325,1.0332,1.0053,1.0053,1.0053,1.004,0.9464,0.9211,1.6057,1.6522,1.6861,1.6563,1.676,1.6911,1.6563,1.65,1.65,1.65,1.65,1.65,1.65,1.6773,1.7087,1.7375,1.707,1.7063,1.7848,1.7099,1.6654,0.0,0.0,0.0,0.0,0.0,0.0,0.0,0.0,0.0,1.541,1.5225,1.4932,1.4502,1.4046,1.3617,1.3223,1.3023,1.2905,1.2905,1.2905,1.2998,1.3232,1.3418,1.376,1.4192,0.0,1.3868,1.3216,1.2692,1.1927,1.117,1.1226,1.1257,1.1341,1.1981,1.2444,1.2861,1.3361,1.2998,1.2292,1.2564,1.2282,1.1924,1.2064,1.2104,1.2131,1.2265,1.2305,1.2305,1.2305,1.2305,1.2305,1.2305,1.2305,1.2305,1.2305,1.2412,1.2465,1.2325,1.2412,1.2496,1.2325,1.2305,1.2305,1.2305,1.2305,1.2305,1.2305,1.2184,1.2104,1.2104,1.1577,1.1229,1.1229,1.0847,1.0593,1.0593,1.0593,1.0593,1.0593,1.0593,1.0526,1.0361,1.0519,1.0526,1.0354,1.0354,1.0354,1.0372,0.9753,0.9479,1.6387,1.6588,1.6685,1.6538,1.6861,1.7099,1.6763,1.6722,1.676,1.6864,1.681,1.6722,1.6722,1.7087,1.7586,1.8116,1.7836,1.7543,1.7477,1.6834,1.6465,1.6708,0.0,0.0,0.0,0.0,0.0,0.0,0.0,0.0,1.541,1.5322,1.5068,1.4648,1.4192,1.3763,1.3359,1.3037,1.2905,1.2905,1.2905,1.3105,1.3506,1.3506,1.3916,1.4639,1.4541,1.4,1.3126,1.3036,1.2274,1.1233,1.1834,1.2127,1.2352,1.3492,1.3849,1.388,1.4698,1.4241,1.3347,1.3605,1.3062,1.2305,1.2305,1.2305,1.2305,1.2305,1.2305,1.2305,1.2305,1.2305,1.2305,1.2305,1.2305,1.2305,1.2305,1.2358,1.2385,1.2318,1.2418,1.2492,1.2418,1.2405,1.2405,1.2405,1.2345,1.2305,1.2305,1.2305,1.2305,1.2305,1.1837,1.1503,1.1395,1.0955,1.0693,1.0693,1.0626,1.0593,1.0593,1.0593,1.0593,1.0593,1.0593,1.0593,1.0593,1.0593,1.0593,1.0579,0.999,0.9715,1.6488,1.6911,1.7187,1.6638,1.6525,1.671,1.7212,1.7348,1.7486,1.7978,1.7677,1.7348,1.7348,1.7373,1.7586,1.8116,1.8582,1.8795,1.8615,0.0,1.7241,0.0,0.0,0.0,0.0,0.0,0.0,0.0,0.0,0.0,1.541,1.5039,1.4629,1.4172,1.3769,1.335,1.2954,1.2925,1.2905,1.2905,1.2905,1.3105,1.3506,1.3506,1.3724,1.4119,1.3811,1.3645,1.3527,1.3139,1.2917,1.2826,1.2887,1.3145,1.3567,1.448,1.4559,1.4394,1.5453,1.4712,1.3347,1.3605,1.3062,1.2305,1.2305,1.2305,1.2305,1.2305,1.2305,1.2305,1.2305,1.2305,1.2305,1.2305,1.2305,1.2305,1.2305,1.2556,1.267,1.2351,1.2759,1.3053,1.2804,1.275,1.275,1.275,1.2516,1.2305,1.2305,1.2305,1.2305,1.2305,1.2024,1.1724,1.1415,1.1142,1.0962,1.0962,1.074,1.0593,1.0593,1.0593,1.0593,1.0593,1.0593,1.0593,1.0593,1.0593,1.0593,1.0579,0.999,0.9715,1.65,1.6936,1.7272,1.6638,1.6785,1.7112,1.736,1.741,1.7461,1.7652,1.7802,1.789,1.789,1.7585,1.7639,1.8545,1.877,1.8801,1.8717,1.807,0.0,0.0,0.0,0.0,0.0,0.0,0.0,0.0,0.0,0.0,1.5039,1.5117,1.4736,1.3753,1.4111,1.3874,1.2915,1.3135,1.3271,1.3271,1.3032,1.3242,1.387,1.387,1.425,1.4903,1.4773,1.4435,1.3976,1.3823,1.3455,1.3039,1.3545,1.4326,1.5207,1.5798,1.5721,1.5402,1.6095,1.5123,1.3581,1.3672,1.3062,1.2305,1.2305,1.2305,1.2305,1.2305,1.2305,1.2345,1.2569,1.2445,1.2398,1.2779,1.2579,1.2351,1.2576,1.2556,1.2438,1.2325,1.2639,1.2924,1.2804,1.2945,1.3005,1.2811,1.269,1.2549,1.2325,1.2305,1.2305,1.2305,1.2044,1.175,1.1415,1.1156,1.0995,1.0995,1.0754,1.0593,1.0593,1.0593,1.0593,1.0593,1.0593,1.0593,1.0593,1.0593,1.0593,1.0579,1.014,0.9953,1.65,1.681,1.7011,1.6588,1.6948,1.7448,1.7601,1.7777,1.8003,1.8378,1.8442,1.8405,1.8242,1.787,1.7885,0.0,1.8821,1.8608,1.8394,0.0,0.0,0.0,0.0,0.0,0.0,0.0,0.0,0.0,0.0,0.0,0.0,1.4932,1.4668,1.3936,1.4346,1.4092,1.3111,1.3359,1.3437,1.3311,1.3154,1.3525,1.4309,1.4172,1.4572,1.541,1.541,1.5079,1.4569,1.4569,1.4234,1.3816,1.4362,1.5273,1.6309,1.659,1.6435,1.6163,1.6502,1.5332,1.3745,1.4063,1.3528,1.2806,1.3127,1.2981,1.2732,1.2732,1.2519,1.2371,1.2703,1.2563,1.2432,1.2946,1.2672,1.2412,1.2844,1.269,1.2445,1.2445,1.2797,1.3038,1.2945,1.3073,1.314,1.2965,1.2764,1.2569,1.2325,1.2305,1.2305,1.2305,1.2124,1.1924,1.1717,1.1436,1.1229,1.1136,1.0855,1.0687,1.0593,1.0593,1.0593,1.0593,1.0593,1.0593,1.0593,1.0593,1.0593,1.0586,1.0254,1.0083,1.65,1.65,1.65,1.65,1.6961,1.7561,1.8078,1.8607,1.9309,2.0453,1.9786,1.8832,1.8293,1.8193,1.8368,1.8907,1.8821,1.8447,0.0,0.0,0.0,0.0,0.0,0.0,0.0,0.0,0.0,0.0,0.0,0.0,0.0,1.4348,1.4309,1.4756,1.4328,1.3909,1.3506,1.3506,1.3301,1.2925,1.3311,1.3965,1.4793,1.4309,1.4582,1.541,1.541,1.541,1.541,1.541,1.541,1.541,1.5391,1.5927,1.6697,1.6707,1.6647,1.6602,1.6602,1.5332,1.389,1.4879,1.4522,1.389,1.4914,1.4494,1.3709,1.3709,1.3025,1.2371,1.2703,1.2563,1.2378,1.2723,1.2563,1.2472,1.3086,1.2973,1.279,1.279,1.3233,1.3513,1.3267,1.3213,1.3213,1.3213,1.2692,1.2305,1.2305,1.2305,1.2305,1.2305,1.2305,1.2305,1.2305,1.2037,1.1744,1.1409,1.1149,1.0894,1.06,1.0593,1.0593,1.0593,1.0593,1.0593,1.0593,1.0593,1.0593,1.0586,1.0254,1.009,1.65,1.681,1.7024,1.66,1.725,1.8003,1.8166,1.8329,1.8632,1.9371,1.8598,1.7836,1.7967,1.7652,0.0,1.764,1.8247,1.8675,0.0,0.0,0.0,0.0,0.0,0.0,0.0,0.0,0.0,0.0,0.0,0.0,0.0,1.4658,1.4375,1.3906,1.4346,1.4102,1.3101,1.3627,1.386,1.3743,1.386,1.4055,1.4309,1.4512,1.4893,1.541,1.541,1.541,1.541,1.541,1.541,1.5439,1.5752,1.6221,1.6736,1.708,1.6935,1.6602,1.6602,1.579,1.4807,1.5092,1.4985,1.4807,1.5128,1.4494,1.3709,1.3709,1.3025,1.2318,1.2412,1.2365,1.2485,1.3206,1.2986,1.2817,1.3347,1.328,1.3073,1.3073,1.334,1.3573,1.3493,1.3473,1.3407,1.324,1.2872,1.2576,1.2325,1.2305,1.2305,1.2305,1.2305,1.2305,1.2305,1.2037,1.1744,1.1409,1.1149,1.0894,1.06,1.0593,1.0593,1.0593,1.0593,1.0593,1.0593,1.0593,1.0593,1.0586,1.0506,1.0459,1.65,1.6773,1.7011,1.6886,1.7539,1.8267,1.8456,1.8635,1.8855,1.9175,1.8502,1.7933,1.8166,1.7993,0.0,1.8126,1.8286,0.0,0.0,0.0,0.0,0.0,0.0,0.0,0.0,0.0,0.0,0.0,0.0,0.0,0.0,1.4375,1.4199,1.4014,1.4346,1.4072,1.3135,1.3633,1.386,1.386,1.4026,1.4202,1.4404,1.4668,1.501,1.541,1.541,1.541,1.541,1.541,1.5508,1.5693,1.5987,1.6476,1.7021,1.7285,1.7048,1.6602,1.6602,1.6009,1.5269,1.5614,1.5755,1.5834,1.6193,1.5376,1.4314,1.4314,1.344,1.2516,1.2516,1.2516,1.2612,1.316,1.3052,1.2951,1.3473,1.3467,1.3347,1.3233,1.3407,1.3527,1.3327,1.3287,1.3227,1.3053,1.2804,1.2543,1.2325,1.2305,1.2305,1.2305,1.2305,1.2305,1.2305,1.2144,1.1917,1.1623,1.1323,1.1035,1.0774,1.0653,1.0593,1.0593,1.0593,1.0593,1.0593,1.0593,1.0593,1.0593,1.0593,1.0593,1.65,1.65,1.6638,1.726,1.779,1.8355,1.8882,1.9176,1.938,1.953,1.9078,1.8688,1.8608,1.8695,1.8907,1.9303,1.8447,0.0,0.0,0.0,0.0,0.0,0.0,0.0,0.0,0.0,0.0,0.0,0.0,0.0,0.0,1.3714,1.3857,1.4648,1.426,1.3851,1.3457,1.3486,1.3506,0.0,1.3948,1.4404,1.4813,1.4852,1.5049,1.541,1.541,1.541,1.541,1.541,1.5644,1.6036,1.6075,1.6613,1.7334,1.7373,1.7116,1.674,1.674,1.6184,1.5587,1.6463,1.674,1.6888,1.7647,1.662,1.5163,1.5092,1.3954,1.275,1.2777,1.2784,1.279,1.2817,1.2831,1.2991,1.3513,1.3646,1.3567,1.334,1.3467,1.3473,1.2998,1.2864,1.2811,1.275,1.2516,1.2305,1.2305,1.2305,1.2305,1.2305,1.2305,1.2305,1.2305,1.2305,1.2178,1.1926,1.1617,1.1336,1.1042,1.076,1.0593,1.0593,1.0593,1.0593,1.0593,1.0593,1.0593,1.0593,1.0593,1.0593,1.65,1.65,1.6638,1.726,1.779,1.8355,1.8882,1.8158,1.7724,1.889,1.8903,1.8528,1.7922,1.739,1.6841,1.6212,0.0,0.0,0.0,0.0,0.0,0.0,0.0,0.0,0.0,0.0,0.0,0.0,0.0,0.0,1.4065,1.3714,1.3594,1.3769,1.3691,1.3437,1.3042,1.334,1.3506,0.0,1.4277,1.4697,1.4795,1.5127,1.5322,1.541,1.541,1.541,1.541,1.541,1.5469,1.5586,1.5958,1.6396,1.6882,1.7256,1.7537,1.7681,1.7681,1.7579,1.7432,1.7647,1.7681,1.7613,1.707,1.6114,1.5021,1.4243,1.3251,1.2489,1.2723,1.2784,1.2844,1.3053,1.3113,1.3273,1.3861,1.3988,1.3975,1.3915,1.3948,1.3955,1.3821,1.342,1.2946,1.2472,1.2345,1.2305,1.2305,1.2305,1.2305,1.2305,1.2305,1.2305,1.2305,1.2305,1.2178,1.1926,1.1846,1.1643,1.1349,1.0835,1.0593,1.0593,1.0593,1.0593,1.0593,1.0593,1.0593,1.0593,1.0593,1.0593,1.65,1.65,1.6638,1.726,1.779,1.8279,1.8544,1.7796,1.7317,1.8273,1.8043,1.7633,1.7605,1.7126,1.6575,0.0,0.0,0.0,0.0,0.0,0.0,0.0,0.0,0.0,0.0,0.0,0.0,0.0,0.0,1.3293,1.4209,1.3595,1.3301,1.3496,1.3311,1.3203,1.3184,1.3398,1.3711,1.4121,1.457,1.4893,1.5088,1.5312,1.541,1.541,1.541,1.541,1.541,1.541,1.5537,1.5772,1.6007,1.6465,1.707,1.7305,1.7646,1.8008,1.8008,1.8008,1.8008,1.8008,1.8008,1.7828,1.6888,1.6245,1.5579,1.4099,1.3571,1.3324,1.3081,1.3073,1.3253,1.3561,1.352,1.346,1.3808,1.3988,1.4048,1.3901,1.3874,1.3828,1.3694,1.3414,1.3006,1.2392,1.2425,1.2465,1.2318,1.2305,1.2305,1.2305,1.2305,1.2305,1.2305,1.2305,1.2238,1.2084,1.198,1.1832,1.1643,1.1209,1.0909,1.0801,1.0667,1.0593,1.0593,1.0593,1.0593,1.0593,1.0593,1.0593,1.6543,1.6584,1.6785,1.7285,1.7727,1.8066,1.8066,1.7495,1.7084,1.7548,1.6973,1.6581,1.7197,1.6943,1.657,0.0,0.0,0.0,0.0,0.0,0.0,0.0,0.0,0.0,0.0,0.0,0.0,0.0,0.0,1.3375,1.4093,1.3342,1.3076,1.3496,1.3174,1.3193,1.3613,1.3588,1.3936,1.4598,1.4598,1.4824,1.5303,1.5303,1.5342,1.541,1.541,1.541,1.541,1.541,1.5664,1.6085,1.6007,1.6564,1.7406,1.7305,1.7588,1.8008,1.8008,1.8008,1.8008,1.8008,1.8008,1.7847,1.6971,1.6656,1.6271,1.4628,1.4486,1.4626,1.3794,1.3736,1.3919,1.4057,1.3901,1.368,1.368,1.3915,1.4015,1.3726,1.368,1.3586,1.334,1.3287,1.31,1.2545,1.2663,1.2697,1.2412,1.2338,1.2305,1.2305,1.2305,1.2305,1.2305,1.2305,1.2305,1.2305,1.2078,1.198,1.198,1.1657,1.139,1.1149,1.0888,1.074,1.074,1.074,1.0713,1.0667,1.0667,1.064,1.6637,1.6886,1.731,1.7385,1.7461,1.7511,1.7511,1.6503,1.5744,1.6468,1.6257,1.6001,1.611,1.556,1.4859,0.0,0.0,0.0,0.0,0.0,0.0,0.0,0.0,0.0,0.0,0.0,0.0,0.0,1.3732,1.3512,1.312,1.2983,1.3076,1.3496,1.3447,1.3597,1.4026,1.4026,1.3899,1.3672,1.3672,1.4092,1.4873,1.4873,1.5068,1.541,1.541,1.541,1.541,1.541,1.5664,1.6056,1.5644,1.6269,1.7334,1.6921,1.7291,1.8008,1.8008,1.8008,1.8008,1.8008,1.8008,1.7905,1.7293,1.6882,1.6527,1.6166,1.5848,1.5541,1.5119,1.5028,1.4911,1.426,1.4055,1.4028,1.4028,1.4055,1.4075,1.4035,1.4028,1.3935,1.3593,1.3547,1.3433,1.314,1.2931,1.277,1.273,1.2496,1.2305,1.2305,1.2305,1.2305,1.2305,1.2305,1.2305,1.2305,1.2265,1.2245,1.2245,1.1964,1.1826,1.1785,1.1463,1.1275,1.1275,1.1275,1.1182,1.0935,1.0935,1.0834,1.6659,1.6688,1.6898,1.6898,1.6898,1.681,1.6463,1.5648,1.5019,1.5228,1.4902,1.4736,1.5395,1.4732,0.0,0.0,0.0,0.0,0.0,0.0,0.0,0.0,0.0,0.0,0.0,0.0,0.0,0.0,1.4306,1.4201,1.3931,1.3586,1.3487,1.3646,1.3343,1.3359,1.3753,1.3753,1.3782,1.3831,1.4111,1.4424,1.4823,1.5029,1.5234,1.541,1.541,1.541,1.541,1.541,1.5664,1.6075,1.588,1.6436,1.7363,1.7168,1.749,1.8008,1.8008,1.8008,1.8008,1.8008,1.8008,1.7866,1.7092,1.7123,1.719,1.6297,1.6448,1.6767,1.6297,1.6301,1.6176,1.5226,1.5019,1.481,1.4208,1.4088,1.4088,1.4088,1.4088,1.3988,1.3653,1.374,1.3741,1.328,1.3233,1.3193,1.3026,1.2777,1.2589,1.2589,1.2405,1.2305,1.2305,1.2305,1.2305,1.2305,1.2305,1.2305,1.2305,1.2178,1.2111,1.2111,1.1663,1.1389,1.1389,1.1389,1.1329,1.1236,1.1236,1.1082,1.6616,1.65,1.65,1.65,1.65,1.6337,1.5754,1.5118,1.4614,0.0,1.3885,1.3847,1.4698,1.4216,0.0,0.0,0.0,0.0,0.0,0.0,0.0,0.0,0.0,0.0,0.0,0.0,0.0,0.0,1.4926,1.4858,1.4698,1.412,1.3855,1.396,1.3385,1.3242,1.3662,1.3555,1.3636,1.3948,1.4199,1.4414,1.4629,1.4941,1.5176,1.541,1.541,1.541,1.541,1.541,1.5742,1.6251,1.6134,1.6701,1.7529,1.7422,1.7646,1.8008,1.8008,1.8008,1.8008,1.8008,1.8008,1.7891,1.7288,1.7536,1.786,1.7071,1.7465,1.793,1.7189,1.7168,1.6968,1.5621,1.5296,1.5054,1.4292,1.4088,1.4088,1.4088,1.4088,1.4015,1.3753,1.3941,1.3941,1.35,1.3513,1.3527,1.3347,1.3053,1.2878,1.279,1.2583,1.2385,1.2311,1.2305,1.2305,1.2305,1.2305,1.2305,1.2305,1.2305,1.2305,1.2305,1.187,1.1615,1.1615,1.1615,1.1575,1.1536,1.1536,1.1383,1.6522,1.65,1.65,1.65,1.65,1.6337,1.5754,1.5118,1.4525,1.3941,1.381,1.3797,1.3865,1.4153,0.0,0.0,0.0,0.0,0.0,0.0,0.0,0.0,0.0,0.0,0.0,0.0,0.0,0.0,1.5543,1.5298,1.4721,1.412,1.3968,1.4373,1.3776,1.3656,1.4075,1.3685,1.3516,1.3535,1.3164,1.3398,1.4143,1.4163,1.4621,1.541,1.541,1.541,1.541,1.541,1.5888,1.6619,1.6261,1.6877,1.793,1.7529,1.7646,1.8008,1.8008,1.8008,1.8008,1.8008,1.8008,1.8052,1.8416,1.8251,1.8227,1.9382,1.9459,1.8909,1.7607,1.7285,1.6772,1.4699,1.4166,1.4173,1.413,1.4088,1.4088,1.4088,1.4088,1.4082,1.4068,1.4075,1.4075,1.4048,1.3773,1.3593,1.358,1.3367,1.3073,1.2817,1.277,1.265,1.2325,1.2305,1.2305,1.2305,1.2305,1.2305,1.2305,1.2305,1.2305,1.2305,1.2271,1.2258,1.2258,1.2258,1.2111,1.1879,1.1879,1.169,1.7013,1.6752,1.65,1.65,1.65,1.6337,1.5754,1.5432,1.5005,1.3993,1.412,1.4376,1.4376,1.4495,0.0,0.0,0.0,0.0,0.0,0.0,0.0,0.0,0.0,0.0,0.0,0.0,0.0,0.0,0.0,1.5908,1.5298,1.471,1.4429,1.4604,1.364,1.3174,1.333,1.3184,1.3105,1.3105,1.3496,1.3821,1.4124,1.4679,1.5089,1.541,1.541,1.541,1.541,1.541,1.5907,1.6687,1.6553,1.7119,1.7988,1.7842,1.7881,1.8008,1.8008,1.8008,1.8008,1.8008,1.8008,1.8037,1.8184,1.8286,1.8529,1.9307,1.9097,1.8624,1.8457,1.7868,1.6935,1.5462,1.4615,1.4088,1.4088,1.4088,1.4088,1.4088,1.4088,1.4088,1.4088,1.4088,1.4088,1.4088,1.3995,1.3928,1.3928,1.3633,1.3333,1.3073,1.3046,1.2839,1.2345,1.2516,1.2543,1.2311,1.2305,1.2305,1.2305,1.2305,1.2305,1.2305,1.2305,1.2305,1.2305,1.2305,1.2245,1.2144,1.2144,1.1991,1.7312,1.6909,1.65,1.65,1.65,1.6337,1.5754,1.561,1.532,1.4306,1.4572,1.4994,1.4994,1.5175,0.0,0.0,0.0,0.0,0.0,0.0,0.0,0.0,0.0,0.0,0.0,0.0,0.0,0.0,0.0,0.0,1.5908,1.4949,1.4317,1.4084,1.332,1.2905,1.2905,1.2905,1.2974,1.3096,1.3627,1.4046,1.4338,1.4941,1.5283,1.541,1.541,1.541,1.542,1.5566,1.6064,1.6716,1.6863,1.7383,1.8008,1.8008,1.8008,1.8008,1.8008,1.8008,1.8008,1.8008,1.8008,1.8037,1.8174,1.8383,1.8724,1.9336,1.9202,1.876,1.8492,1.7334,1.6041,1.5338,1.4691,1.4208,1.4108,1.4088,1.4088,1.4088,1.4088,1.4088,1.4088,1.4088,1.4088,1.4088,1.4088,1.4088,1.4088,1.3915,1.3681,1.3387,1.3313,1.3153,1.2652,1.273,1.2697,1.2465,1.2358,1.2305,1.2305,1.2305,1.2305,1.2305,1.2305,1.2305,1.2305,1.2305,1.2305,1.2305,1.2305,1.2198,0.0,0.0,0.0,1.65,1.65,1.6358,1.5764,0.0,1.5454,1.4858,1.5186,1.561,1.561,1.6073,0.0,0.0,0.0,0.0,0.0,0.0,0.0,0.0,0.0,0.0,0.0,0.0,0.0,0.0,1.5908,1.582,1.6423,1.4755,1.3529,1.2929,1.2905,1.2905,1.2905,1.2915,1.3105,1.3506,1.3535,1.3975,1.4813,1.4795,1.5029,1.541,1.541,1.542,1.5469,1.5919,1.6338,1.6765,1.7217,1.7637,1.8008,1.8008,1.8008,1.8008,1.8008,1.8008,1.8008,1.8008,1.8008,1.8086,1.8481,1.8617,1.8802,1.9678,1.9884,1.9478,1.7766,1.5711,1.413,1.413,1.4302,1.4429,1.4148,1.4088,1.4088,1.4088,1.4088,1.4088,1.4088,1.4088,1.4088,1.4088,1.4088,1.4088,1.4088,1.4088,1.3975,1.3633,1.3613,1.3493,1.3233,1.2985,1.2804,1.2797,1.2529,1.2325,1.2325,1.2318,1.2318,1.2318,1.2305,1.2305,1.2305,1.2305,1.2305,1.2305,1.2305,1.2305,1.7431,0.0,0.0,0.0,0.0,0.0,0.0,0.0,1.6086,1.5488,1.5477,1.561,1.561,1.5754,0.0,0.0,0.0,0.0,0.0,0.0,0.0,0.0,0.0,0.0,0.0,0.0,0.0,0.0,1.5276,1.5017,1.5186,1.4306,1.3529,1.2929,1.2905,1.2905,1.2905,1.3184,1.3389,1.3516,1.4131,1.4561,1.4795,1.5098,1.5303,1.541,1.541,1.5586,1.5919,1.6046,1.6545,1.7217,1.7334,1.7637,1.8008,1.8008,1.8008,1.8008,1.8008,1.8008,1.8008,1.8008,1.8008,1.8086,1.8481,1.8857,1.9219,1.9766,1.9592,1.894,1.7632,1.6281,1.5255,1.5255,1.4719,1.4182,1.4108,1.4088,1.4088,1.4088,1.4088,1.4088,1.4088,1.4088,1.4088,1.4088,1.4088,1.4088,1.4088,1.4088,1.3975,1.3633,1.3834,1.3761,1.3253,1.332,1.3307,1.3093,1.3006,1.2959,1.2959,1.2739,1.2663,1.2663,1.2412,1.2305,1.2305,1.2305,1.2305,1.2305,1.2305,1.2305,1.81,1.7635,1.7165,1.6939,0.0,0.0,1.6552,1.65,1.6402,0.0,1.5986,1.5986,1.5986,1.5986,0.0,0.0,0.0,0.0,0.0,0.0,0.0,0.0,0.0,0.0,0.0,1.561,1.561,1.561,1.4801,1.4224,1.3954,1.3849,1.3529,1.2929,1.2905,1.2993,1.3145,1.3389,1.3691,1.4043,1.4551,1.4873,1.5049,1.5293,1.541,1.542,1.5605,1.5928,1.6357,1.6564,1.6946,1.7435,1.7578,1.7793,1.8008,1.8008,1.8008,1.8008,1.8008,1.8008,1.8037,1.8213,1.8237,1.8344,1.8948,1.9346,1.9639,2.0068,1.9607,1.863,1.705,1.6519,1.6232,1.582,1.5322,1.4888,1.4804,1.4508,1.4229,1.4115,1.4088,1.4088,1.4088,1.4088,1.4088,1.4088,1.4088,1.4088,1.4088,1.4088,1.4021,1.3848,1.3981,1.3948,1.3607,1.3573,1.3533,1.336,1.328,1.3213,1.3213,1.3033,1.2978,1.2978,1.2772,1.2619,1.2522,1.2365,1.2305,1.2305,1.2305,1.2305,1.8937,1.8554,1.8074,1.7523,1.7367,0.0,1.6629,1.65,1.65,0.0,1.6457,1.6423,1.65,1.6457,0.0,0.0,0.0,0.0,0.0,0.0,0.0,0.0,0.0,0.0,1.5654,1.5477,1.5432,1.5499,1.4388,1.3467,1.2929,1.342,1.3443,1.2929,1.2954,1.3135,1.3506,1.3603,1.4033,1.4813,1.4862,1.5049,1.541,1.541,1.541,1.543,1.585,1.6269,1.6726,1.7148,1.7363,1.749,1.7861,1.8008,1.8008,1.8008,1.8008,1.8008,1.8008,1.8008,1.8076,1.8461,1.8598,1.8763,1.9658,1.9912,1.9972,2.0323,1.9638,1.839,1.6552,1.6683,1.709,1.6273,1.6171,1.6174,1.5929,1.5233,1.4561,1.434,1.4166,1.4088,1.4088,1.4088,1.4088,1.4088,1.4088,1.4088,1.4088,1.4088,1.4088,1.4088,1.4088,1.4088,1.4088,1.3841,1.3653,1.3653,1.3447,1.3307,1.3307,1.3273,1.326,1.326,1.3227,1.306,1.2784,1.2445,1.2305,1.2305,1.2305,1.2305,1.8597,1.828,1.8067,0.0,0.0,0.0,1.6622,1.65,1.65,0.0,1.6117,1.593,1.6402,1.6095,0.0,0.0,0.0,0.0,0.0,0.0,0.0,0.0,0.0,0.0,1.561,1.4721,1.4342,1.4835,1.3766,1.3017,1.2905,1.3017,1.3017,1.2905,1.3213,1.3418,1.3506,1.4189,1.4619,1.4785,1.5127,1.5332,1.541,1.541,1.541,1.542,1.5498,1.5996,1.6707,1.6794,1.7266,1.79,1.7978,1.8008,1.8008,1.8008,1.8008,1.8008,1.8008,1.8008,1.8076,1.8461,1.8598,1.8763,1.9658,1.9912,1.9811,1.9399,1.851,1.7738,1.8221,1.7827,1.7496,1.8181,1.7708,1.7057,1.6984,1.6203,1.5452,1.5394,1.4692,1.4088,1.4088,1.4088,1.4088,1.4088,1.4088,1.4088,1.4088,1.4088,1.4088,1.4088,1.4088,1.4088,1.4088,1.4035,1.4001,1.4001,1.3948,1.3915,1.3915,1.3687,1.352,1.352,1.3327,1.306,1.2784,1.2445,1.2305,1.2305,1.2305,1.2305,0.0,0.0,0.0,1.8338,0.0,0.0,0.0,1.7162,1.7177,1.6613,1.6495,1.6505,1.6507,0.0,1.6139,0.0,0.0,0.0,0.0,0.0,0.0,0.0,0.0,0.0,1.5208,1.4595,1.4131,1.3813,1.3248,1.2905,1.2905,1.2905,1.3003,1.3184,1.3398,1.3711,1.4141,1.457,1.4893,1.5098,1.5312,1.541,1.541,1.541,1.541,1.543,1.5849,1.6297,1.6736,1.7155,1.7627,1.8008,1.8008,1.8008,1.8008,1.8008,1.8008,1.8008,1.8008,1.8144,1.8354,1.8818,1.9065,1.9358,2.0039,1.9889,1.9251,1.8417,1.7738,1.7172,1.669,1.6935,1.7293,1.7334,1.7334,1.7131,1.6601,1.6067,1.559,1.5177,1.4673,1.4302,1.4302,1.4302,1.4302,1.4302,1.4182,1.4088,1.4088,1.4088,1.4088,1.4088,1.4088,1.4088,1.4088,1.4088,1.4088,1.4088,1.4088,1.4088,1.4088,1.3941,1.3868,1.3868,1.3533,1.328,1.3018,1.271,1.2445,1.2305,1.2305,1.2305,0.0,0.0,0.0,0.0,0.0,1.874,0.0,0.0,0.0,0.0,0.0,0.0,0.0,0.0,0.0,0.0,0.0,0.0,0.0,0.0,0.0,0.0,0.0,0.0,0.0,1.4949,1.4363,1.3152,1.3065,1.3065,1.3065,1.3032,1.3154,1.3496,1.3672,1.4092,1.4775,1.4891,1.5078,1.541,1.541,1.541,1.541,1.541,1.5459,1.5576,1.6299,1.6668,1.6882,1.7607,1.7939,1.8008,1.8008,1.8008,1.8008,1.8008,1.8008,1.8008,1.8008,1.8247,1.8676,1.915,1.9629,2.0107,2.0498,1.9835,1.8758,1.7626,1.7139,1.6583,1.493,1.5766,1.6925,1.6326,1.684,1.7294,1.6666,1.6383,1.6091,1.5691,1.5496,1.5226,1.4704,1.4556,1.4522,1.4522,1.4275,1.4088,1.4088,1.4088,1.4088,1.4088,1.4088,1.4088,1.4088,1.4088,1.4088,1.4088,1.4088,1.4088,1.4088,1.4088,1.4088,1.4088,1.3848,1.352,1.3213,1.2998,1.269,1.2305,1.2305,1.2305,0.0,0.0,0.0,0.0,1.9346,0.0,0.0,0.0,1.7576,1.794,0.0,0.0,0.0,0.0,0.0,0.0,0.0,0.0,0.0,0.0,0.0,0.0,0.0,0.0,0.0,1.5798,1.5005,1.3802,1.3708,1.3708,1.3708,1.3536,1.3457,1.3506,1.4248,1.4687,1.4813,1.5156,1.5361,1.541,1.541,1.541,1.541,1.541,1.5625,1.6026,1.6124,1.6613,1.7314,1.7422,1.7676,1.8008,1.8008,1.8008,1.8008,1.8008,1.8008,1.8008,1.8008,1.8247,1.8676,1.915,1.9834,2.0537,2.0586,1.9835,1.8758,1.7626,1.6601,1.5888,1.5885,1.6044,1.6537,1.7661,1.7999,1.8377,1.9303,1.8752,1.8385,1.9356,1.8996,1.7812,1.5346,1.4696,1.4522,1.4522,1.4275,1.4088,1.4088,1.4088,1.4088,1.4088,1.4088,1.4088,1.4088,1.4088,1.4088,1.4088,1.4088,1.4088,1.4088,1.4088,1.4088,1.4088,1.4055,1.3768,1.3213,1.3173,1.2859,1.2305,1.2305,1.2305,0.0,0.0,0.0,0.0,0.0,0.0,1.9334,0.0,1.9108,0.0,0.0,0.0,0.0,0.0,0.0,0.0,1.65,0.0,0.0,0.0,0.0,0.0,0.0,0.0,0.0,0.0,0.0,0.0,1.4329,1.4167,1.3815,1.3951,1.3967,1.3841,1.4463,1.4902,1.5146,1.5322,1.541,1.541,1.541,1.541,1.542,1.5674,1.5919,1.6124,1.6643,1.7073,1.7435,1.7646,1.7852,1.8008,1.8008,1.8008,1.8008,1.8008,1.8008,1.8047,1.8256,1.8652,1.9121,1.9852,2.0312,2.0605,2.0605,1.9835,1.8917,1.843,1.7695,1.6891,1.6272,1.6281,1.646,1.6353,1.6822,1.7244,1.7113,1.7244,1.7386,1.7411,1.7169,1.6777,1.624,1.6104,1.6063,1.6063,1.5249,1.4529,1.4362,1.4342,1.4275,1.4108,1.4088,1.4088,1.4088,1.4088,1.4088,1.4088,1.4088,1.4088,1.4088,1.4088,1.4088,1.4088,1.4088,1.3881,1.342,1.3293,1.2986,1.2596,1.2385,1.2305,2.2924,0.0,0.0,0.0,0.0,0.0,0.0,0.0,0.0,0.0,0.0,0.0,0.0,0.0,0.0,0.0,0.0,1.6697,0.0,0.0,0.0,0.0,0.0,0.0,0.0,0.0,0.0,1.4971,1.4949,1.4766,1.4318,1.4471,1.4527,1.4387,1.4751,1.5107,1.541,1.541,1.541,1.541,1.541,1.541,1.543,1.5889,1.6163,1.632,1.7051,1.7451,1.7578,1.7881,1.8008,1.8008,1.8008,1.8008,1.8008,1.8008,1.8008,1.8076,1.8451,1.8968,1.958,2.0361,2.0605,2.0605,2.0605,2.004,1.9362,1.9076,1.8751,1.8154,1.7013,1.6824,1.6706,1.5934,1.6076,1.6249,1.5826,1.6346,1.6854,1.655,1.6501,1.6769,1.7568,1.7394,1.7169,1.7041,1.6135,1.527,1.4713,1.4569,1.4442,1.4229,1.4135,1.4088,1.4088,1.4088,1.4088,1.4088,1.4088,1.4088,1.4088,1.4088,1.4088,1.4088,1.4088,1.3941,1.36,1.3313,1.3053,1.2777,1.2476,1.2305,0.0,0.0,0.0,2.2393,0.0,0.0,0.0,0.0,1.9811,0.0,0.0,0.0,0.0,0.0,1.7978,1.7461,1.7373,0.0,0.0,0.0,0.0,0.0,0.0,0.0,0.0,0.0,0.0,1.561,1.5565,1.5565,1.5543,1.526,1.507,1.5055,1.5261,1.54,1.541,1.541,1.541,1.541,1.541,1.541,1.543,1.5889,1.6299,1.6707,1.7187,1.7617,1.7988,1.8008,1.8008,1.8008,1.8008,1.8008,1.8008,1.8008,1.8008,1.8076,1.8451,1.9153,1.9971,2.0458,2.0605,2.0605,2.0605,2.0566,2.0323,1.9274,1.9277,1.9377,1.8522,1.7777,1.7274,1.7526,1.668,1.617,1.7336,1.7662,1.8018,1.916,1.9389,1.9381,1.9426,1.8182,1.7049,1.6698,1.6683,1.633,1.5122,1.4696,1.4516,1.4502,1.4255,1.4088,1.4088,1.4088,1.4088,1.4088,1.4088,1.4088,1.4088,1.4088,1.4088,1.4088,1.4088,1.3941,1.36,1.3313,1.3053,1.2777,1.2476,1.2305,0.0,0.0,2.3665,2.3477,0.0,0.0,0.0,0.0,0.0,0.0,0.0,0.0,0.0,0.0,1.8141,1.7953,1.7614,1.7335,0.0,0.0,0.0,0.0,0.0,0.0,0.0,0.0,0.0,1.6216,1.6562,1.6602,1.6145,1.6657,1.6543,1.5669,1.5945,1.5892,1.541,1.5693,1.5693,1.5391,1.5703,1.587,1.5889,1.6299,1.6748,1.7187,1.7617,1.7881,1.8008,1.8008,1.8008,1.8008,1.8008,1.8149,1.8393,1.8393,1.8393,1.849,1.9202,1.9863,2.041,2.0556,2.0605,2.0605,2.0605,2.0605,2.0527,2.0157,2.0345,2.0276,1.8667,1.8241,1.8147,1.7787,1.7365,1.7404,1.8634,1.828,1.7824,1.8234,1.7623,1.7223,1.7773,1.7659,1.7743,1.843,1.7879,1.7175,1.6546,1.5507,1.4736,1.4543,1.4262,1.4088,1.4088,1.4734,1.4852,1.413,1.4776,1.4852,1.413,1.4088,1.4088,1.4088,1.4088,1.4041,1.3935,1.3447,1.3253,1.332,1.2625,1.2305,2.5247,2.4833,0.0,2.4092,2.3866,0.0,2.2493,0.0,0.0,0.0,0.0,0.0,0.0,0.0,1.8719,1.853,1.8191,1.7903,0.0,1.735,0.0,0.0,0.0,0.0,0.0,0.0,1.6588,1.681,1.7174,1.7291,0.0,0.0,1.7092,1.6256,1.6158,1.5892,1.541,1.588,1.5948,1.5644,1.6084,1.6299,1.6318,1.6758,1.7119,1.7402,1.7832,1.8008,1.8008,1.8008,1.8008,1.8008,1.8008,1.8237,1.8598,1.8598,1.8792,1.9134,1.9727,2.0195,2.0605,2.0605,2.0605,2.0605,2.0605,2.0605,2.0605,2.0605,2.1006,2.1147,1.9865,1.926,1.8938,1.8448,1.8002,1.7917,1.868,1.8596,1.8234,1.7777,1.7037,1.6504,1.6565,1.7211,1.8056,1.9097,1.8581,1.7919,1.7447,1.6301,1.5359,1.474,1.4416,1.4202,1.4095,1.4734,1.4852,1.413,1.4734,1.4817,1.413,1.4088,1.4135,1.4242,1.4142,1.4135,1.4242,1.3654,1.342,1.3586,1.2946,1.2625]}]]